GFSGL_sfc_temp_000.txt.gz
Temp
63 63 65 63 62 61 60 59 59 59 59 60 60 61 61 60 60 60 59 61 63 63 64 63 61 62 61 61 61 62 61 61 58 60 62 63 61 62 62 63 64 63 61
64 64 66 64 62 61 60 60 60 60 60 60 61 61 61 61 61 61 61 63 63 62 62 63 62 63 61 62 61 61 61 61 61 59 60 61 61 62 62 62 63 65 61
65 64 64 63 62 61 60 60 60 60 60 62 61 61 62 62 61 61 61 60 62 63 63 63 63 63 61 61 61 61 61 62 61 60 59 60 60 61 59 59 59 57 62
64 63 62 63 63 62 61 60 60 61 61 61 62 63 63 62 62 62 61 59 59 61 62 63 64 63 62 62 62 61 61 61 61 60 59 58 58 58 57 57 56 57 56
64 63 63 63 63 64 62 62 61 61 62 63 63 63 63 62 63 62 62 62 61 59 60 62 61 62 61 61 62 61 61 60 60 57 56 56 56 55 54 54 54 54 56
63 63 64 64 68 65 64 62 63 61 61 62 62 62 61 62 52 54 61 62 61 61 60 61 61 60 59 57 58 57 59 60 58 57 55 55 54 55 55 55 54 54 54
63 64 65 65 68 63 64 62 61 60 58 59 59 60 58 58 51 52 55 62 61 61 61 61 63 64 61 62 55 55 55 55 59 59 56 56 56 57 56 54 54 54 54
64 65 66 66 68 64 62 61 59 58 58 57 57 58 57 58 49 50 54 63 61 61 61 61 62 61 61 61 60 60 59 58 59 63 59 58 58 58 58 58 56 55 56
66 65 66 66 64 64 61 58 59 57 56 57 58 58 59 57 48 49 58 61 61 59 61 61 61 59 51 50 60 58 56 56 53 50 54 53 50 50 54 58 56 54 52
67 68 67 66 64 63 61 60 59 58 58 59 58 58 56 57 48 50 57 62 58 57 57 58 53 57 46 48 59 59 57 56 56 56 54 51 50 50 52 56 54 52 49
70 70 67 65 64 63 61 60 60 59 59 57 58 56 58 57 53 48 52 60 60 57 57 56 54 46 47 47 51 57 56 55 54 56 55 54 54 53 53 52 53 54 51
69 70 68 64 70 65 63 60 61 59 57 56 55 54 55 56 51 49 49 52 53 59 57 56 51 45 45 45 51 45 46 51 55 54 53 52 53 52 52 52 53 53 54
67 68 66 65 66 65 65 60 58 59 57 56 56 54 55 55 51 46 46 48 50 57 57 54 45 43 44 45 44 44 49 54 53 52 51 50 50 51 51 52 51 53 55
67 66 65 65 63 65 67 65 63 57 57 57 56 55 55 54 50 47 50 50 48 52 49 46 46 46 46 47 50 50 53 52 52 52 49 49 50 50 49 49 47 49 52
67 66 65 66 65 64 65 64 65 63 63 59 59 61 56 53 54 49 49 52 51 50 47 47 47 47 48 49 50 50 49 50 52 49 50 49 49 49 49 49 49 48 49
67 66 67 65 64 65 61 54 44 48 49 50 50 57 59 56 48 46 45 46 44 45 50 49 48 48 49 49 50 50 50 50 49 51 48 48 49 51 52 48 50 48 44
70 67 67 65 66 64 63 62 58 51 45 47 46 48 50 54 45 45 45 43 43 46 52 50 51 51 52 49 50 50 49 50 49 50 49 47 48 48 47 46 49 49 44
69 58 68 67 67 66 65 64 64 60 57 54 45 47 44 46 45 44 43 44 46 48 52 53 54 53 51 51 50 49 51 48 47 48 47 47 48 51 49 49 48 45 42
69 68 70 69 68 65 66 64 63 61 60 55 50 46 41 40 40 41 43 61 57 57 55 55 53 52 51 50 50 51 51 50 49 47 46 48 51 50 45 47 45 39 39
71 61 64 69 66 66 66 64 61 61 60 59 55 56 45 46 47 46 50 59 59 61 61 60 51 52 51 52 51 50 48 46 48 49 50 51 50 47 47 45 42 41 39
73 66 62 68 68 67 66 65 65 63 62 61 60 56 44 56 54 54 53 57 60 61 61 57 52 51 52 52 52 52 51 50 50 50 49 47 48 46 45 43 43 42 40
74 68 68 69 69 68 67 66 65 65 64 63 62 54 41 58 58 56 57 61 61 59 55 55 52 52 54 54 53 52 51 50 49 50 50 49 48 46 44 43 41 38 37
73 69 69 70 70 61 61 66 65 66 64 62 63 57 51 56 59 59 58 59 53 53 54 54 54 54 54 54 54 54 52 51 53 52 50 47 47 46 45 41 39 36 34
72 70 68 69 68 66 66 59 64 57 65 64 59 55 54 57 59 58 56 56 57 54 54 54 53 53 51 50 50 53 52 53 52 52 51 48 46 43 42 40 38 35 34
65 65 65 67 66 63 64 60 60 57 58 58 57 56 56 57 59 54 54 55 54 53 50 52 51 49 48 49 48 46 38 39 49 43 48 48 46 44 42 39 37 35 33
63 63 62 60 60 60 59 60 60 60 61 56 56 56 55 57 54 52 52 52 51 50 50 49 48 48 47 47 46 39 38 38 39 39 47 47 44 42 41 38 36 34 32

GFSGL_sfc_temp_006.txt.gz
Temp
60 60 62 60 60 59 59 58 58 59 59 60 61 61 61 61 61 62 62 63 62 62 62 62 61 62 62 62 62 63 61 62 59 60 62 63 63 62 62 62 63 63 63
61 61 62 62 60 58 59 58 59 59 60 60 61 61 61 61 61 63 64 64 63 62 62 62 61 62 62 61 62 61 61 62 61 58 60 61 62 62 61 61 62 65 64
62 61 61 61 59 58 58 58 59 59 60 61 61 61 61 61 61 61 62 63 62 62 63 62 62 62 61 61 62 61 61 62 62 60 59 60 60 61 59 59 60 60 64
61 61 61 60 60 59 59 59 59 60 60 61 61 62 62 62 61 61 62 63 63 62 62 62 63 63 62 61 61 61 61 61 61 60 59 58 59 59 61 60 60 61 63
61 61 61 60 60 59 59 59 60 60 61 62 62 61 62 62 61 60 62 63 62 62 62 62 62 61 60 61 62 61 62 60 60 59 58 58 58 59 60 60 61 59 60
60 62 61 61 61 60 59 60 60 60 61 62 62 62 61 61 49 53 59 62 62 62 61 61 61 58 56 55 56 56 60 61 60 62 60 59 59 61 60 61 59 60 61
61 63 62 62 62 61 60 60 60 59 60 60 60 61 61 59 47 49 53 62 62 61 61 61 62 60 61 60 54 54 55 55 57 61 61 61 60 61 60 58 59 60 61
61 63 63 63 63 61 60 60 58 58 59 58 59 60 60 57 47 48 52 62 61 62 62 63 62 61 60 62 63 63 63 63 62 64 63 63 64 62 63 63 61 60 60
61 62 63 63 62 60 60 58 58 57 57 58 59 60 60 57 46 47 57 62 62 62 63 62 62 61 49 51 64 62 60 59 51 51 51 49 49 49 56 60 59 60 58
62 63 63 64 62 61 59 58 58 58 58 59 58 60 55 58 45 47 57 62 60 60 60 59 53 58 46 49 63 60 60 60 59 56 56 54 53 52 50 63 62 61 58
65 64 62 62 62 61 58 58 58 57 57 57 57 57 59 58 54 45 50 62 60 60 60 60 61 48 45 45 50 60 59 58 54 57 57 58 58 58 59 59 61 62 59
64 64 62 60 65 62 60 58 58 57 56 55 55 56 56 57 49 45 46 51 53 61 60 61 58 45 44 43 50 48 46 52 60 60 58 57 57 57 57 57 57 57 59
62 62 60 60 62 61 60 58 58 56 57 55 57 57 57 56 55 46 45 45 48 60 61 55 45 43 42 45 45 44 46 60 60 60 58 57 58 57 55 55 55 55 53
62 60 59 59 59 60 62 61 60 58 57 58 57 57 57 56 56 55 55 53 49 53 49 51 48 47 46 49 51 51 59 61 61 60 58 56 55 56 55 58 55 55 55
62 61 59 60 60 60 61 60 62 61 61 60 59 60 57 57 57 52 53 56 57 53 50 52 53 54 54 55 55 56 57 57 59 56 56 56 56 56 56 56 56 56 53
62 61 60 61 60 61 60 56 44 47 48 46 47 57 61 54 47 45 44 44 42 43 54 54 54 55 55 55 56 56 56 55 58 57 56 58 57 57 56 55 57 54 49
64 61 61 60 62 61 61 60 59 53 45 45 45 46 48 53 44 44 43 40 40 46 59 56 56 56 57 57 57 58 58 58 56 57 57 56 56 56 54 54 53 51 49
65 54 63 63 64 64 63 64 64 62 60 58 46 48 43 44 43 42 40 43 48 49 56 58 58 57 56 57 57 58 58 55 55 55 55 55 55 55 54 53 50 48 48
66 64 66 64 64 62 64 64 64 63 63 59 53 47 44 41 40 39 42 59 57 55 56 57 59 59 57 57 57 57 57 55 54 53 53 54 55 55 54 51 49 43 42
68 58 60 65 64 63 63 63 63 61 61 60 59 61 49 49 52 50 49 55 58 59 58 59 59 59 58 57 55 56 55 51 52 53 54 54 54 55 53 51 50 49 49
71 63 60 66 64 65 64 64 63 63 62 61 62 58 44 58 59 56 54 54 57 60 60 60 61 60 59 56 56 55 55 53 53 53 53 53 52 52 52 49 48 46 43
70 65 65 67 66 65 64 65 62 64 63 62 63 56 39 58 61 60 58 57 58 60 62 61 62 60 59 58 56 55 55 53 53 53 53 52 50 47 46 44 43 41 40
68 65 65 67 66 58 60 63 64 63 63 63 64 58 52 57 60 60 59 60 58 59 61 60 60 59 60 59 58 58 56 55 54 54 51 50 48 45 43 41 40 38 38
67 65 66 65 64 63 64 63 62 54 64 62 59 59 58 58 58 60 61 60 59 60 60 59 61 60 58 58 58 58 59 57 57 56 53 49 45 42 41 39 38 37 37
67 65 65 64 64 63 63 63 60 61 62 61 60 61 60 58 59 59 60 59 58 57 57 58 59 59 57 57 56 56 44 41 53 48 50 47 43 41 40 39 37 36 35
66 64 64 64 63 63 63 62 60 60 61 60 60 61 61 60 59 56 56 56 56 56 55 55 55 55 54 54 53 42 39 39 42 44 47 44 42 40 39 37 37 37 36

GFSGL_sfc_temp_009.txt.gz
Temp
72 72 72 71 71 70 69 68 69 69 69 70 70 71 71 70 67 67 67 67 67 67 66 64 63 67 68 69 68 68 63 62 59 60 62 63 63 63 63 63 64 63 62
74 73 73 71 70 69 69 68 69 69 70 70 71 71 70 70 66 66 66 65 65 64 62 63 62 63 63 68 66 66 65 63 61 59 61 61 61 62 62 62 62 64 66
74 74 72 70 70 69 68 68 69 70 70 70 71 70 70 69 69 69 67 66 65 65 64 63 63 63 65 66 65 64 63 63 62 61 60 61 61 61 61 61 61 62 67
75 74 72 70 70 70 69 69 69 70 70 71 70 71 71 70 69 69 68 67 67 66 65 65 65 65 68 65 64 65 65 63 61 60 60 59 59 60 60 58 58 65 65
74 74 71 71 71 70 69 70 70 70 71 72 71 71 71 70 70 68 67 68 67 66 65 65 67 64 60 62 65 63 63 62 61 59 58 58 58 58 59 61 65 65 65
74 74 72 72 71 70 69 70 70 70 70 71 71 71 70 70 49 55 64 67 68 67 66 64 63 60 57 55 56 57 61 62 60 61 60 58 60 64 66 65 65 66 64
74 74 73 72 72 71 71 71 70 69 70 70 70 70 70 67 47 49 55 67 65 64 66 64 63 65 65 67 55 54 55 53 58 67 67 65 65 68 68 67 68 71 69
75 75 75 75 73 72 71 70 68 69 69 69 69 70 69 66 46 47 51 65 64 64 67 67 65 68 66 68 68 69 68 67 68 70 70 70 71 71 71 72 70 68 69
75 75 75 76 73 72 71 69 68 68 68 68 70 68 68 61 46 47 59 64 63 65 69 68 65 68 49 52 71 69 70 68 53 49 50 51 50 53 63 73 71 72 68
76 77 77 77 75 73 72 70 69 69 69 71 68 70 60 61 45 47 60 67 63 63 66 66 53 62 46 50 72 71 69 68 69 68 68 60 59 56 52 73 73 72 71
78 78 76 76 74 74 71 70 69 69 68 68 67 67 68 65 59 45 51 64 65 67 64 67 69 45 45 48 53 70 67 68 60 70 70 69 69 68 70 72 73 75 72
78 77 76 74 76 74 71 70 70 69 67 66 66 68 68 68 53 45 46 53 56 67 69 70 68 45 44 45 55 44 47 58 71 69 69 70 70 69 68 68 67 69 72
76 74 74 74 75 73 72 70 71 69 71 69 70 69 68 69 68 47 45 46 49 68 70 58 45 43 43 49 45 44 48 73 73 73 73 72 72 69 65 65 64 64 63
74 73 73 72 72 73 75 74 74 72 72 72 72 71 70 69 70 70 67 63 49 62 53 60 52 52 47 57 60 58 74 75 74 74 73 71 68 68 67 69 66 65 63
74 73 72 74 72 72 74 74 75 74 72 74 74 75 72 71 71 63 64 70 71 63 62 66 68 69 70 70 71 71 72 71 72 72 70 67 68 67 67 68 67 67 65
73 74 74 75 74 76 74 70 44 49 49 46 50 65 74 57 46 46 45 46 44 44 67 70 70 71 72 72 71 70 70 64 72 71 70 69 68 68 67 67 68 68 64
74 75 76 72 75 75 74 74 72 59 46 46 47 48 50 57 44 44 42 41 41 46 72 72 72 72 73 73 73 73 72 73 72 73 72 70 70 69 63 66 67 66 64
76 58 77 77 77 77 76 75 77 75 72 71 48 53 44 45 43 41 40 46 58 56 73 74 73 74 73 73 73 73 73 72 70 71 70 70 69 68 66 66 65 62 60
76 76 78 78 78 75 78 77 78 77 76 76 74 51 49 41 40 40 41 71 70 70 71 73 75 75 74 73 73 73 73 72 70 69 69 68 68 67 66 67 65 49 50
77 63 68 78 77 76 78 77 77 77 76 76 75 75 67 57 63 64 61 67 72 73 73 73 74 75 75 74 74 73 72 68 67 68 68 67 67 67 67 65 61 51 47
80 76 66 78 79 78 78 77 77 77 77 77 76 75 52 70 73 73 70 70 72 74 74 74 75 75 75 74 73 71 71 71 70 69 69 67 66 65 65 60 54 49 45
80 79 75 79 79 78 78 78 77 77 78 77 78 74 41 69 77 76 75 74 74 75 77 75 76 76 76 75 73 72 72 71 70 68 67 66 63 63 57 54 54 50 44
80 79 76 78 79 68 74 78 78 78 78 78 79 79 64 70 76 76 75 75 74 75 76 76 75 76 77 75 74 73 72 72 71 70 66 63 62 60 58 54 50 43 40
80 78 76 77 78 77 76 75 77 65 77 79 76 77 74 73 74 75 76 76 75 74 75 74 74 75 75 73 73 73 73 73 72 67 65 64 61 54 56 50 45 41 38
79 76 75 74 75 74 74 75 76 76 76 77 77 75 76 75 75 76 76 76 75 74 73 73 74 73 73 72 72 71 60 42 63 56 65 63 55 54 52 49 42 39 36
77 73 72 73 73 72 73 73 75 74 74 75 76 76 76 75 74 74 74 74 73 73 73 73 72 71 71 71 70 55 39 40 48 46 62 57 52 48 49 44 39 38 37

GFSGL_sfc_temp_012.txt.gz
Temp
79 79 78 78 77 76 75 75 75 74 75 76 77 77 78 76 71 71 69 70 70 69 67 70 69 69 74 75 71 67 65 64 60 60 61 61 61 62 63 62 64 64 62
81 80 79 78 77 74 75 75 75 75 76 77 77 78 78 75 73 69 68 68 69 67 67 66 64 68 69 69 68 65 66 63 60 58 60 61 61 62 62 62 62 64 64
81 80 78 76 75 74 74 74 76 76 76 77 78 77 76 74 73 71 69 67 66 67 66 63 63 65 67 68 67 65 62 62 62 60 59 61 61 62 61 61 61 63 67
82 80 78 76 75 76 75 75 76 77 76 77 77 77 76 76 75 71 71 69 69 69 67 64 63 66 71 67 67 66 64 62 62 60 59 59 60 60 61 59 58 62 68
81 80 78 77 77 76 76 76 76 76 77 78 77 77 77 76 77 73 71 73 71 68 66 67 69 65 62 66 67 66 66 64 62 59 58 58 58 59 58 60 60 67 68
81 80 79 78 77 75 75 75 76 76 77 78 77 77 76 78 53 56 65 73 72 69 65 67 65 61 59 55 56 56 64 66 62 61 58 58 58 59 60 60 66 64 64
81 80 79 78 77 76 77 76 76 74 76 76 76 76 74 70 50 51 56 73 74 69 66 64 63 64 66 67 54 54 54 55 60 64 60 60 60 63 64 66 69 71 70
81 81 81 81 78 78 77 76 74 74 74 73 73 74 72 68 47 47 52 72 72 70 71 71 69 67 68 70 69 66 66 65 66 64 63 65 69 72 72 73 72 72 73
82 81 82 81 79 78 76 74 75 74 74 74 75 74 72 68 47 47 59 68 71 69 72 71 72 71 51 53 70 67 65 61 51 51 53 52 52 57 67 76 73 72 70
83 82 83 82 80 78 77 75 75 76 75 78 75 74 62 70 46 47 59 71 66 67 71 70 52 65 48 51 73 72 70 70 71 69 67 61 63 62 55 76 78 76 70
85 84 83 82 80 79 77 76 75 76 76 75 74 72 71 65 64 46 52 66 70 71 73 70 69 45 47 51 55 75 71 73 67 75 75 75 74 73 77 78 79 79 73
85 84 82 81 82 81 77 76 76 75 73 73 72 73 73 71 56 47 48 55 58 73 73 75 65 44 46 47 59 46 51 62 79 78 77 76 76 76 77 77 76 77 78
84 82 81 81 82 80 78 76 77 75 77 75 76 75 75 76 69 47 47 48 51 69 76 56 45 43 45 51 46 47 45 78 79 77 78 78 79 79 74 72 71 71 71
82 80 80 80 79 80 81 80 80 78 78 79 78 77 76 76 75 73 69 66 52 68 55 66 58 56 47 61 63 62 81 81 80 80 80 80 77 74 74 75 72 71 69
81 80 80 81 78 79 81 82 82 81 77 81 81 81 77 77 77 68 69 76 76 68 69 72 74 75 76 76 78 79 81 79 79 81 80 76 77 77 75 76 74 72 70
80 81 82 83 80 82 81 79 44 51 51 51 53 67 80 59 50 49 51 49 46 48 73 76 76 77 77 78 78 78 78 72 80 80 78 77 77 75 74 74 74 73 72
81 81 84 78 82 82 82 80 77 63 48 47 48 49 51 57 46 45 44 42 43 48 77 77 78 78 79 79 80 80 79 80 80 80 79 78 78 77 72 74 74 74 72
82 62 85 84 85 85 83 82 83 80 76 76 50 57 47 45 42 42 41 47 64 60 78 80 80 80 80 81 81 81 81 81 80 79 79 78 77 77 74 74 74 71 70
84 85 85 86 87 81 85 84 85 84 83 82 82 53 50 42 40 40 41 76 76 76 78 80 82 82 82 82 82 82 81 81 79 78 78 78 77 76 74 75 74 57 59
86 69 74 87 87 85 86 85 85 84 83 83 83 82 76 61 69 69 67 73 79 80 81 81 82 83 83 83 82 82 81 78 78 77 77 77 77 76 75 74 73 66 63
89 86 74 87 87 86 86 85 85 85 84 84 84 82 57 76 79 79 78 77 78 81 82 82 83 83 84 83 82 81 80 80 79 78 78 77 77 75 75 74 72 64 63
91 89 84 86 88 87 86 87 86 86 86 85 86 81 45 79 83 83 83 82 82 82 84 83 83 84 84 84 83 82 81 80 80 79 78 78 77 75 75 73 70 64 59
91 90 86 85 88 75 83 87 87 86 86 87 87 87 76 81 82 85 84 84 83 83 85 85 84 84 85 85 85 84 81 81 82 82 79 78 77 75 73 70 66 62 52
91 89 88 86 87 88 87 85 87 72 86 88 86 87 86 82 82 83 86 86 85 84 84 84 84 84 84 84 85 84 83 83 84 83 81 78 76 68 72 67 64 59 51
92 88 87 85 85 85 86 86 85 86 86 86 87 87 88 87 84 84 85 86 85 84 83 83 84 83 83 83 83 83 69 44 71 65 80 77 74 71 69 65 58 51 49
87 87 85 85 83 84 83 83 83 84 85 85 85 87 87 87 86 85 85 85 85 85 84 84 83 82 82 82 82 66 42 41 55 42 74 74 72 70 67 61 54 45 44

GFSGL_sfc_temp_015.txt.gz
Temp
81 81 75 77 79 79 76 77 72 75 75 77 78 77 76 75 76 73 70 71 71 71 69 66 68 69 69 71 68 67 66 65 58 58 60 61 60 60 60 61 62 61 60
83 82 76 78 78 76 75 76 76 73 77 79 80 80 78 76 75 71 69 69 70 69 70 67 64 67 70 69 67 66 66 64 59 57 59 59 60 61 60 61 62 62 62
84 82 78 79 76 74 75 73 78 78 78 80 80 79 75 75 71 71 70 69 72 67 63 64 67 65 67 66 65 65 64 62 60 58 58 60 60 60 60 61 61 61 63
84 82 77 75 75 73 73 75 78 79 79 79 80 75 78 76 73 74 73 71 69 65 64 64 66 66 66 65 65 64 62 60 60 60 59 59 60 60 60 58 58 60 61
84 82 75 76 78 78 74 78 79 79 80 78 76 79 76 76 75 74 72 71 70 69 68 66 66 63 62 65 66 63 63 60 60 59 58 58 58 58 57 58 58 61 62
83 82 80 81 80 78 78 77 78 76 76 76 74 76 77 75 53 54 62 69 70 69 66 64 67 63 58 55 57 59 63 64 60 59 58 58 58 57 58 59 60 62 61
83 83 82 80 79 78 79 78 77 73 74 73 74 73 75 70 51 51 53 69 70 69 69 67 68 70 66 66 55 55 55 55 58 62 59 58 57 58 59 60 65 66 66
84 83 83 82 80 80 79 77 76 73 73 74 75 75 73 68 49 49 50 71 70 70 70 71 70 68 67 67 68 64 63 62 61 62 61 61 61 62 66 69 68 69 70
84 83 83 83 80 79 75 75 76 72 73 73 73 73 73 68 48 48 57 71 69 67 68 72 72 71 51 53 66 62 60 58 54 53 55 55 52 55 64 73 71 67 68
85 85 85 84 82 80 78 77 76 76 76 71 73 72 64 69 48 47 56 68 69 68 71 66 52 65 49 51 68 63 60 60 63 64 65 59 57 62 55 72 74 70 68
87 87 85 84 81 80 78 77 77 77 77 72 72 72 73 69 63 48 50 66 69 71 73 69 69 46 48 50 57 68 66 68 62 69 70 71 72 73 75 76 75 69 71
88 86 85 82 84 82 78 77 78 76 74 69 72 73 74 71 57 49 48 54 58 73 73 73 63 45 49 53 60 48 49 62 75 73 72 70 72 74 76 78 77 75 78
86 84 83 83 84 82 78 77 78 76 77 69 73 70 71 74 70 48 49 50 53 71 75 57 45 45 47 53 48 50 50 77 77 76 75 75 76 78 77 75 74 73 73
84 83 82 81 81 81 82 81 81 79 79 80 73 72 73 72 74 73 71 68 54 64 54 59 59 56 51 61 62 61 77 81 79 79 79 80 81 77 75 75 72 71 70
83 82 81 82 80 80 82 82 83 82 78 82 82 82 78 77 75 66 67 75 77 70 71 72 73 75 76 75 76 79 82 82 80 81 80 79 77 76 76 76 74 72 70
82 83 83 84 81 83 82 80 45 51 51 54 50 66 78 59 52 50 49 51 48 52 72 73 74 76 78 78 78 78 80 74 81 82 81 79 78 77 76 76 76 73 71
82 83 84 79 84 83 82 82 78 64 49 51 50 49 53 55 48 47 44 44 45 50 76 77 78 78 79 79 79 80 79 80 81 82 81 79 79 78 72 75 75 74 73
84 62 85 85 86 85 84 84 84 80 76 76 53 56 47 45 45 44 43 50 67 62 78 80 79 80 80 81 81 81 81 82 80 80 80 80 79 78 76 75 75 74 74
85 87 86 87 88 82 87 86 86 84 82 81 80 55 48 42 41 41 43 75 76 76 77 80 83 83 82 83 83 83 83 83 81 80 80 80 80 78 77 77 76 59 63
87 69 75 88 88 87 87 87 86 85 84 84 83 78 72 62 68 68 67 74 79 80 80 80 82 84 84 84 84 84 83 80 81 81 80 80 80 80 78 78 76 76 72
90 88 75 88 89 88 87 87 87 87 86 86 85 82 60 75 76 76 75 76 78 81 83 83 84 84 85 85 85 84 83 83 82 81 81 80 80 78 79 78 78 77 73
92 91 88 88 90 89 88 88 87 87 87 87 87 82 48 80 82 82 81 81 81 82 85 85 85 86 87 86 86 84 83 82 82 82 81 80 80 79 79 78 77 76 70
93 92 90 89 89 77 85 89 89 88 88 88 89 88 76 83 85 85 85 85 85 85 86 86 86 86 88 87 88 86 85 84 84 84 82 80 80 79 79 77 76 74 67
93 92 92 90 89 91 89 88 89 73 88 90 89 89 85 85 85 85 87 88 88 88 87 87 87 87 87 86 87 88 87 86 86 85 83 82 81 76 79 77 75 73 65
94 91 93 91 89 88 90 89 89 89 89 89 89 89 90 89 87 87 87 88 89 88 87 87 87 86 86 86 86 86 74 46 74 67 85 83 81 79 79 77 74 68 60
89 89 92 93 91 89 89 90 90 89 89 89 89 90 90 90 91 88 87 87 87 89 88 87 87 86 86 86 85 70 46 41 57 44 78 81 80 78 77 74 71 64 51

GFSGL_sfc_temp_021.txt.gz
Temp
67 66 69 69 69 65 64 66 63 64 68 65 66 66 66 64 63 62 62 63 64 64 61 62 61 62 60 61 60 61 59 60 57 58 59 60 60 60 61 61 62 61 60
67 67 70 69 64 64 63 64 64 64 66 67 68 70 67 65 64 63 63 64 64 62 61 63 61 62 61 62 61 59 59 60 58 56 58 59 59 60 60 60 60 60 60
69 70 69 68 63 63 64 67 64 65 66 69 68 67 66 65 64 63 63 64 63 62 62 61 61 62 61 62 62 60 59 60 60 58 57 59 59 60 59 60 58 58 59
72 70 68 64 63 63 65 64 68 66 66 69 69 69 66 66 65 66 66 63 62 61 60 62 62 62 61 60 60 60 59 58 59 57 57 58 58 59 59 58 57 58 58
72 70 68 64 64 64 66 65 66 67 68 70 69 66 64 63 62 62 64 62 61 61 61 61 61 62 60 60 60 60 59 59 58 57 57 57 57 57 57 58 57 58 58
72 70 69 69 69 68 67 67 65 67 68 69 68 64 60 63 49 52 58 62 62 62 60 59 60 59 56 55 56 56 60 59 57 57 57 56 57 57 57 57 57 56 54
71 71 71 69 67 68 70 68 65 66 67 66 62 60 58 55 47 48 52 62 62 61 62 62 62 60 59 58 53 54 53 54 59 62 58 57 57 57 59 57 57 56 56
73 73 71 70 67 68 69 66 64 62 62 61 62 60 58 55 48 47 53 62 61 61 61 62 62 60 60 62 61 60 60 61 60 61 60 59 60 61 61 62 58 56 59
74 72 72 71 68 69 67 63 62 62 62 62 61 59 58 54 48 46 58 62 61 61 62 63 62 61 50 51 62 60 59 58 52 51 51 51 49 52 59 61 56 58 54
75 73 73 71 71 69 67 62 62 62 63 64 62 60 56 56 49 46 57 62 60 59 59 59 53 57 48 50 62 60 58 58 58 58 57 54 54 53 52 57 57 57 55
78 76 72 70 70 65 63 62 62 62 62 61 61 60 59 57 53 47 52 62 61 60 59 59 57 48 47 48 53 62 59 59 55 58 57 54 54 55 56 56 59 58 55
75 74 69 68 72 68 64 62 62 62 60 59 59 59 59 58 52 47 47 55 57 61 59 57 52 46 46 47 54 45 48 54 61 59 57 55 54 55 56 58 60 60 60
73 71 70 69 69 66 64 62 62 61 61 60 60 59 58 58 55 48 48 53 53 59 60 52 45 46 45 46 45 46 50 60 60 58 56 56 58 59 59 59 60 60 59
69 71 67 68 66 65 65 64 62 61 60 61 61 59 58 58 57 57 55 56 51 53 49 50 51 52 51 52 52 54 62 62 61 60 58 58 59 58 57 59 57 56 55
71 71 67 68 68 64 62 60 63 62 67 64 65 63 60 58 59 56 57 61 60 57 55 56 55 56 56 57 58 59 60 62 61 61 59 60 61 59 58 59 57 55 53
70 71 69 68 68 66 61 57 45 46 49 54 54 61 64 57 49 49 51 49 48 48 58 57 56 56 59 59 59 60 61 59 62 63 62 62 62 62 60 59 58 55 53
70 69 69 67 68 65 63 61 58 55 47 45 48 52 54 53 48 48 46 46 46 50 58 58 58 59 60 60 60 62 62 64 62 66 66 64 65 64 57 62 61 57 55
68 57 70 66 70 66 66 66 63 61 59 58 50 50 48 47 48 46 43 47 54 53 59 59 60 60 62 62 63 64 64 61 62 62 62 66 65 65 61 61 61 59 56
70 69 69 69 68 69 67 66 67 63 63 59 53 49 43 41 43 43 45 63 62 61 59 61 62 63 63 66 66 66 64 62 62 61 60 61 64 61 61 61 61 51 51
74 62 64 69 68 69 68 70 66 67 65 62 60 58 49 49 52 52 52 61 63 64 64 63 63 62 68 68 65 68 64 60 63 64 62 61 63 63 61 62 61 60 57
75 67 65 67 68 66 70 65 68 68 68 66 64 60 47 60 60 59 59 60 63 64 65 65 66 65 63 63 68 66 66 67 65 66 66 65 62 60 61 61 60 60 55
76 75 68 73 71 70 66 69 66 67 70 69 68 62 42 64 63 62 62 63 64 65 62 66 67 68 67 65 63 65 67 65 62 62 64 66 66 63 59 59 59 56 50
76 75 74 72 72 65 64 69 70 67 68 69 72 66 56 64 65 65 64 64 64 65 67 66 62 67 70 69 66 66 66 68 68 68 65 63 63 64 62 59 59 54 50
70 72 74 74 74 73 72 65 69 62 69 69 67 65 62 64 66 67 67 67 66 66 67 68 69 69 67 65 69 73 71 66 67 69 67 66 65 58 63 58 58 55 51
69 68 68 71 74 71 72 68 69 70 71 73 69 65 66 66 67 69 69 69 69 68 68 68 69 69 69 70 71 67 61 45 65 58 67 65 65 62 64 62 57 52 46
65 67 68 68 69 74 73 73 69 70 71 73 72 67 66 68 69 69 70 70 70 71 71 70 71 70 70 71 71 60 46 45 50 45 66 66 64 63 61 60 56 51 46

GFSGL_sfc_temp_024.txt.gz
Temp
63 63 63 63 63 62 61 61 61 61 62 62 63 64 64 62 62 61 62 63 62 62 61 61 60 61 59 60 60 59 58 59 57 58 60 60 61 62 62 62 62 60 60
64 63 62 63 62 61 61 61 62 62 62 63 65 66 66 63 62 62 63 63 62 62 62 61 60 62 60 59 58 58 58 58 59 56 58 59 59 60 60 59 59 60 60
65 65 67 66 61 61 61 62 62 62 63 68 65 65 64 63 63 63 63 63 62 61 61 60 59 60 61 60 60 59 58 59 60 58 57 59 59 59 58 58 58 58 60
67 69 64 62 61 61 61 61 63 63 67 67 67 67 64 63 64 64 64 62 61 60 60 60 60 61 61 60 60 59 59 58 59 58 57 57 58 58 58 55 55 57 57
69 68 65 63 62 62 62 63 67 66 67 68 66 62 61 61 60 60 62 60 60 59 60 61 62 61 60 60 60 59 59 58 58 57 56 57 56 56 55 56 55 55 55
69 68 67 66 63 64 62 62 62 65 67 67 62 61 59 60 48 50 58 60 61 60 58 60 60 58 57 55 56 56 59 59 58 57 57 56 56 57 57 56 56 54 52
70 69 68 65 65 64 66 63 62 65 65 63 59 58 57 55 47 47 53 60 60 60 61 60 60 58 58 57 53 53 54 54 58 62 58 58 57 58 58 57 56 56 55
70 70 67 66 65 65 65 62 61 60 60 59 58 57 56 55 47 47 53 60 60 61 62 60 59 59 59 61 60 60 60 60 60 61 61 60 60 60 61 61 58 56 57
70 67 67 67 64 65 66 60 60 60 59 58 58 57 56 55 46 47 56 60 60 61 62 61 60 60 49 50 61 58 57 56 51 49 49 49 48 50 57 61 56 55 54
72 69 69 67 65 65 66 61 60 60 61 60 59 58 54 56 46 47 56 60 60 60 60 58 52 56 46 49 61 60 56 57 57 56 56 52 54 52 53 59 60 55 53
74 72 68 66 65 63 61 60 60 60 60 60 58 57 56 56 53 47 51 59 60 60 59 58 56 45 46 47 52 60 56 58 53 57 56 56 56 57 54 56 55 56 56
74 71 67 64 67 64 61 60 60 59 58 58 57 56 56 56 49 46 48 52 54 61 59 59 53 44 45 46 52 44 46 53 58 55 55 53 53 53 54 55 57 57 57
70 66 65 65 65 62 60 60 59 58 58 57 57 57 55 56 55 46 46 47 50 57 58 53 45 44 44 46 44 45 49 58 57 56 54 53 55 55 54 56 57 58 56
68 65 65 64 61 61 61 61 59 58 58 58 57 56 55 56 56 55 54 53 49 52 49 51 49 49 48 50 50 52 60 58 58 57 56 55 56 55 54 56 56 54 54
68 66 66 64 63 60 57 57 61 61 61 60 59 58 57 56 57 53 54 57 56 53 52 54 56 57 56 56 57 56 57 57 57 56 55 55 56 56 55 56 56 53 53
67 66 65 65 61 60 57 53 45 47 47 49 52 57 59 53 47 47 48 46 45 46 55 56 54 55 57 58 58 56 56 55 57 57 56 57 57 57 56 56 55 54 52
68 67 65 65 65 60 58 57 57 53 44 45 46 48 51 51 45 45 45 44 44 49 56 55 56 56 56 56 56 57 57 58 58 59 60 58 59 57 52 58 58 55 53
68 56 66 66 67 64 61 59 59 59 58 57 45 46 45 45 44 43 43 46 53 52 56 57 56 56 57 58 58 58 59 58 58 60 60 60 61 61 58 59 59 58 57
69 67 69 67 67 65 64 61 60 58 58 57 51 48 42 40 41 41 44 60 59 57 56 57 58 59 59 60 60 61 61 60 60 60 60 62 62 62 61 61 60 50 51
69 61 62 66 63 63 64 63 62 60 58 57 56 60 48 50 52 51 51 57 60 61 61 61 61 60 61 62 62 62 61 57 58 59 61 60 62 62 63 61 60 58 55
71 65 63 68 65 66 65 64 65 63 62 60 61 56 45 61 59 60 58 57 60 62 62 62 62 60 60 61 63 63 64 63 62 62 61 61 60 60 62 62 61 60 59
71 69 68 69 68 67 65 65 64 66 64 63 62 58 39 61 62 61 62 61 62 63 64 64 64 64 64 63 62 62 63 64 65 64 64 64 61 60 60 61 60 58 55
67 67 68 70 69 60 60 66 65 64 66 66 65 63 52 58 62 62 62 63 63 63 63 63 64 65 66 65 64 65 63 64 65 64 64 63 63 62 60 60 60 55 51
65 65 65 64 65 65 64 62 64 57 65 67 66 65 58 60 63 63 64 64 64 64 65 65 64 65 66 66 65 64 67 67 65 65 65 64 63 58 63 61 61 57 55
62 63 63 63 64 63 64 65 64 64 66 66 67 67 63 62 63 65 64 64 64 64 63 64 66 66 64 64 66 65 60 44 60 56 65 65 64 62 62 62 59 52 46
59 62 62 62 63 61 62 63 63 65 66 69 68 66 65 63 64 65 65 65 65 65 65 65 65 65 66 67 66 59 47 45 48 43 63 64 63 62 62 60 58 54 49

GFSGL_sfc_temp_027.txt.gz
Temp
62 61 61 60 61 60 60 60 59 59 60 61 62 62 62 61 61 59 60 62 62 62 61 59 59 59 58 58 58 57 56 56 56 57 59 61 62 62 61 62 62 61 60
63 62 60 60 60 59 60 60 60 60 60 61 62 63 64 62 61 60 61 62 62 61 61 60 58 60 58 58 58 57 56 57 60 56 58 58 59 60 60 59 60 60 60
62 60 60 59 59 59 60 60 60 60 60 62 63 62 63 63 62 61 62 62 61 61 61 60 59 59 60 59 58 58 58 59 60 58 57 58 58 59 58 58 58 58 59
63 62 60 59 59 59 60 59 60 61 62 65 66 65 63 62 62 63 63 62 61 61 60 60 60 60 60 59 59 59 59 59 59 58 57 56 57 57 58 56 55 57 56
63 61 60 62 60 60 60 60 61 62 65 67 64 61 60 60 58 59 62 60 60 59 60 61 61 61 60 60 59 59 59 58 58 57 56 55 55 55 55 56 55 55 55
63 66 65 65 61 60 60 61 61 62 66 64 61 60 58 59 46 52 58 60 60 60 59 60 59 58 56 55 56 56 59 59 57 57 56 54 55 55 56 55 54 53 51
67 67 65 62 62 62 61 61 60 63 63 61 59 58 56 56 46 49 52 60 59 60 60 59 59 58 58 58 53 53 54 54 58 60 58 57 56 57 57 55 55 55 53
68 67 64 63 62 62 61 60 59 60 61 59 56 56 56 55 46 47 52 59 61 61 60 59 58 58 58 59 60 59 60 60 60 62 62 59 59 59 59 59 57 55 55
68 64 64 64 62 62 60 58 57 57 57 56 57 56 56 55 46 48 55 60 60 60 60 60 60 59 48 49 58 56 56 54 51 50 49 49 47 49 56 60 56 55 53
65 65 65 64 63 61 60 58 58 58 58 58 57 56 53 56 46 47 55 60 60 59 59 58 50 54 46 49 59 58 55 56 56 56 55 52 53 51 52 60 59 55 53
68 70 64 63 62 61 59 58 59 58 59 58 56 55 56 55 53 47 49 60 60 59 58 57 54 45 45 46 52 60 56 58 54 58 57 56 56 56 55 55 55 56 53
68 67 64 62 65 62 59 59 59 58 57 56 55 55 55 57 49 46 46 51 54 60 59 58 52 43 44 44 50 44 46 52 58 57 55 54 53 52 53 54 55 55 55
66 63 61 61 62 60 59 58 57 57 56 55 56 57 56 57 55 45 44 45 48 56 60 53 43 41 43 45 43 44 49 56 55 55 55 52 54 53 53 54 55 55 53
64 61 60 60 59 59 59 58 58 57 56 56 56 56 54 55 55 55 54 52 48 52 49 51 49 48 47 48 50 52 56 57 56 56 53 52 53 52 52 54 54 53 53
64 63 60 59 59 58 56 56 58 58 57 58 56 56 55 55 56 52 53 55 55 52 54 55 57 56 55 56 56 55 55 56 55 54 54 54 53 53 53 53 54 52 52
63 62 61 60 58 57 55 53 45 46 46 49 49 54 57 50 44 43 44 44 43 45 57 57 57 57 56 56 57 56 54 54 55 55 54 55 55 55 54 54 54 53 52
64 62 61 60 59 56 55 55 56 52 43 45 44 47 49 48 42 42 42 42 43 48 56 57 57 57 58 58 58 59 55 56 56 57 56 55 55 55 52 55 55 53 52
64 53 63 63 62 58 57 57 57 56 56 55 43 46 44 42 41 41 40 45 51 51 56 56 56 56 58 59 58 56 55 55 55 56 56 56 56 56 54 55 56 56 56
63 63 65 64 63 60 58 57 57 57 57 55 51 46 41 39 39 39 41 55 56 55 55 56 56 56 56 57 57 56 56 56 57 56 56 57 57 58 57 57 57 48 50
64 57 59 63 60 59 58 57 57 56 56 55 54 55 49 49 51 51 51 55 56 55 55 56 56 56 56 56 57 57 57 55 56 58 58 59 59 59 59 58 58 57 55
64 62 58 64 61 62 61 60 60 57 57 56 56 53 43 58 57 57 54 55 57 58 57 57 56 57 57 57 58 57 58 58 59 59 59 59 59 58 60 60 59 58 59
64 64 62 65 65 64 62 63 60 60 60 59 58 53 38 53 58 58 59 58 59 61 62 61 60 60 60 60 60 59 59 60 59 58 58 59 58 58 59 58 57 57 56
62 63 63 64 64 57 58 60 61 61 61 61 60 56 48 55 59 60 60 61 60 60 61 61 62 62 62 62 63 62 62 63 64 63 61 60 60 59 59 58 58 57 54
60 61 61 60 61 59 60 60 60 54 62 62 61 60 55 57 60 61 62 62 62 62 62 61 62 63 64 62 63 63 64 65 64 63 62 62 61 57 60 59 59 58 56
57 58 60 58 58 58 59 59 59 59 61 63 63 62 60 59 60 62 63 63 62 62 62 62 63 63 62 63 64 64 58 46 59 55 64 62 63 61 61 61 60 57 55
55 55 57 58 59 60 58 58 58 58 58 60 61 62 63 61 61 62 63 63 63 63 63 64 64 64 64 64 64 58 46 44 47 44 61 62 61 61 60 60 57 57 53

GFSGL_sfc_temp_030.txt.gz
Temp
62 62 62 61 62 61 61 61 61 61 61 62 63 64 64 64 63 62 62 63 61 61 61 62 62 61 60 59 59 60 60 61 58 58 60 62 62 61 61 62 63 62 61
62 62 62 61 61 60 60 61 61 61 62 63 64 65 65 65 64 63 62 62 62 60 61 61 61 61 61 61 60 59 60 61 62 57 59 60 60 61 60 60 60 61 61
63 61 60 60 60 60 60 61 61 62 62 64 64 65 65 65 64 63 62 62 61 61 61 61 61 61 60 60 60 59 60 62 63 59 57 59 59 59 58 59 59 59 59
62 61 60 60 60 60 61 61 61 62 63 64 65 66 65 64 63 63 63 62 61 62 62 61 61 62 61 61 60 60 60 61 60 58 57 57 57 58 58 56 55 57 57
62 61 60 60 61 61 61 61 62 63 65 65 65 63 62 62 58 59 63 61 61 60 61 62 62 62 60 60 60 60 61 60 59 56 55 55 55 55 55 56 55 55 55
62 62 62 63 61 61 61 61 62 64 66 64 63 62 61 59 47 52 59 62 61 60 60 61 61 59 57 55 56 56 60 60 57 56 55 55 55 55 56 56 55 53 51
64 64 64 62 62 62 62 62 61 62 64 62 60 60 60 57 46 50 52 61 61 60 60 60 59 58 58 59 53 53 53 54 58 60 57 57 55 57 56 55 55 55 54
65 66 64 63 62 62 62 61 61 62 62 60 59 59 59 55 47 48 51 62 62 61 60 59 58 58 59 59 60 59 60 60 60 63 61 59 59 58 58 58 56 56 57
66 64 64 64 62 62 61 59 60 60 59 59 59 59 60 57 46 47 57 61 60 59 60 60 60 59 48 50 59 57 56 55 51 50 50 48 47 49 55 58 57 56 54
65 65 65 64 63 62 61 59 60 60 60 59 58 59 54 58 46 47 57 61 59 58 58 57 50 54 46 48 59 58 55 56 57 56 55 52 53 52 52 59 61 58 57
67 66 65 64 62 62 60 61 60 60 60 59 58 58 59 57 53 46 51 60 59 59 58 57 54 45 46 47 51 59 56 59 55 59 58 57 58 58 59 61 60 61 58
67 66 64 62 65 63 61 60 60 60 59 57 57 57 57 58 49 45 48 52 54 60 58 57 50 43 44 45 51 44 46 54 60 59 58 56 56 56 59 60 60 60 61
64 63 62 62 62 61 60 59 59 59 58 57 58 58 57 58 55 44 44 46 50 59 60 50 42 42 42 44 43 44 49 61 59 59 57 56 60 60 59 59 60 61 59
63 62 61 61 60 61 62 61 59 59 59 58 58 57 58 58 57 55 54 53 49 52 48 50 48 48 49 48 52 56 61 62 61 59 58 58 58 58 59 60 59 60 61
62 62 61 61 61 60 59 59 61 61 60 60 59 59 58 59 58 53 54 58 58 53 53 56 57 56 55 56 58 59 59 60 60 59 58 58 59 59 59 61 61 60 61
62 62 62 61 61 60 58 56 43 47 48 48 47 55 59 50 43 43 43 43 44 46 57 57 57 57 56 57 58 58 60 57 60 60 59 60 60 60 60 60 62 62 61
63 61 61 60 61 60 59 60 60 53 43 44 42 45 49 46 41 41 41 42 42 49 59 58 58 59 58 58 60 60 59 61 61 62 62 61 61 62 55 61 61 61 61
63 52 63 63 63 61 61 61 62 61 61 58 45 46 42 40 40 40 40 45 55 55 62 60 59 60 60 61 61 60 60 60 61 61 61 62 62 62 60 61 62 62 62
63 62 64 64 63 61 61 61 61 61 61 59 54 48 41 38 39 39 42 60 59 59 59 59 61 61 62 63 61 60 60 61 62 62 62 62 63 63 63 64 64 49 53
64 55 58 64 62 62 62 62 61 61 60 60 59 59 50 51 54 52 53 59 60 61 60 61 60 61 61 61 60 60 61 58 60 62 63 63 64 64 64 64 64 63 59
65 61 56 64 63 64 63 62 62 62 62 61 61 56 44 61 60 57 56 59 61 63 62 63 63 63 63 63 63 62 62 63 63 63 64 64 64 63 64 65 65 65 65
63 63 62 64 64 64 64 64 63 63 63 63 62 56 37 58 62 62 61 61 63 64 65 64 65 65 65 64 64 64 63 64 64 64 64 65 64 64 65 64 65 65 64
63 63 63 64 64 57 61 63 64 64 64 64 64 60 51 59 62 63 63 64 64 64 65 66 66 66 67 66 66 66 65 65 66 66 65 65 65 65 65 64 64 64 63
60 61 62 62 63 62 62 62 63 55 64 64 63 63 60 60 62 64 64 65 65 65 65 65 66 67 67 67 67 68 68 69 69 68 67 67 66 62 65 65 65 64 64
56 57 59 59 60 60 61 62 62 62 63 64 64 64 63 62 62 64 65 66 65 65 65 65 66 66 66 67 68 68 61 46 63 59 69 69 68 67 66 66 66 65 63
50 52 52 52 54 56 57 58 58 59 60 60 60 61 63 63 63 64 64 65 65 66 66 66 66 67 67 67 67 59 46 43 49 43 66 68 66 67 67 66 66 65 64

GFSGL_sfc_temp_033.txt.gz
Temp
74 73 73 73 73 74 73 73 73 72 72 73 73 73 73 72 72 70 71 71 65 63 61 67 68 69 71 71 71 63 69 69 68 65 67 64 63 64 64 64 64 63 61
75 74 73 73 73 72 72 73 73 72 73 74 74 74 74 73 72 72 71 67 62 61 62 63 69 70 69 69 70 67 70 70 71 63 61 61 61 62 62 62 61 63 62
75 74 73 72 72 71 72 72 73 73 73 74 75 74 74 73 73 72 66 62 62 63 64 64 68 69 68 68 68 66 70 70 71 63 58 60 59 60 59 60 60 60 60
76 75 72 72 72 72 72 72 73 74 74 74 74 75 74 74 72 70 67 64 62 64 62 66 69 70 69 67 65 65 68 69 66 62 58 57 58 59 59 57 56 58 57
75 74 72 72 73 72 72 72 73 73 75 75 74 73 72 71 68 65 67 64 64 61 64 62 68 68 62 64 67 65 68 66 63 59 57 57 56 57 55 57 55 55 56
75 73 73 73 73 72 71 72 72 73 74 70 72 73 70 70 47 52 62 65 63 62 63 65 64 61 59 55 56 57 66 65 62 59 57 56 56 57 57 56 55 54 52
75 74 73 73 72 72 72 72 72 72 68 67 71 72 69 67 47 49 53 66 65 62 61 60 60 62 61 62 53 54 54 54 61 65 61 59 56 59 58 56 56 58 55
75 75 74 74 73 72 72 72 71 68 66 64 70 70 69 62 47 47 51 66 64 63 61 60 59 60 61 62 63 62 63 65 66 67 66 63 63 62 60 59 57 55 55
76 75 74 74 73 72 72 71 71 68 64 66 70 69 68 62 46 47 58 64 63 61 61 61 60 59 49 50 62 59 60 58 52 51 51 48 47 49 55 58 55 58 55
76 76 76 76 74 72 72 70 70 71 70 71 68 69 57 62 46 47 58 63 60 59 58 58 51 56 46 48 62 63 58 58 58 55 54 51 53 52 52 62 66 66 64
78 77 76 75 74 73 71 70 70 69 69 68 68 68 64 60 57 45 51 63 60 61 59 57 54 45 45 47 53 62 57 60 54 58 58 58 60 61 65 70 71 72 68
77 77 75 73 75 73 71 71 70 68 68 66 66 62 61 60 50 46 48 52 55 65 59 57 50 43 44 45 54 45 46 54 62 59 60 61 62 61 66 68 68 69 70
76 73 74 74 74 73 71 70 69 68 69 64 67 63 60 60 56 45 45 46 50 62 62 49 42 42 43 45 44 45 49 63 64 60 60 61 63 66 66 64 65 68 68
75 69 73 73 72 73 74 73 70 68 68 64 64 61 60 60 57 57 57 56 49 54 49 51 48 48 48 47 52 55 66 66 66 63 63 65 67 66 67 69 68 68 70
74 68 73 74 73 72 72 72 71 72 69 68 66 66 63 60 59 55 58 63 63 57 54 59 59 59 57 58 61 64 65 68 69 68 68 67 69 69 69 70 71 70 70
74 73 75 75 74 73 71 68 43 46 45 46 48 61 67 51 45 44 45 44 44 46 60 59 58 60 61 63 64 66 68 65 70 70 70 70 70 69 70 71 72 71 70
75 75 75 72 75 73 73 73 70 56 41 41 43 44 48 47 42 42 42 42 43 49 62 61 61 61 62 65 66 68 70 72 71 72 71 70 71 71 67 70 71 72 71
76 56 76 77 77 76 75 75 75 72 66 68 46 47 40 40 41 40 41 46 56 57 63 63 64 65 64 66 68 69 71 71 71 72 72 72 72 72 70 70 72 71 71
77 77 78 78 78 73 76 75 76 75 74 71 60 50 43 38 39 40 43 65 63 64 64 64 65 68 71 72 71 70 69 71 70 71 72 72 72 72 72 73 73 55 58
77 60 66 77 76 76 76 76 75 74 73 73 72 70 55 53 57 54 62 68 67 68 68 70 70 70 70 71 71 68 64 68 70 72 73 73 73 73 73 73 73 73 72
79 75 61 77 77 77 77 77 77 76 75 75 75 68 45 71 69 66 68 71 72 72 72 72 72 72 74 73 72 68 66 70 72 73 73 74 74 73 73 74 74 74 74
77 77 76 78 78 77 77 78 77 77 77 76 76 65 38 69 75 73 72 73 75 76 77 75 76 76 76 75 74 74 73 73 74 74 74 75 74 74 74 74 74 74 74
76 75 75 77 77 64 73 77 77 77 78 78 78 73 65 71 75 76 76 76 76 76 77 77 76 77 78 77 77 77 76 76 77 77 75 75 75 75 75 74 75 74 74
70 73 73 73 74 76 77 76 77 62 75 78 77 76 74 74 75 75 76 77 77 77 77 77 77 78 78 77 78 78 78 79 79 79 77 76 76 72 75 76 76 75 74
57 58 64 67 69 69 70 70 71 71 72 73 74 75 78 76 75 75 75 76 76 76 76 76 77 77 76 77 78 78 67 43 67 62 79 77 76 75 77 77 76 76 75
49 50 52 54 55 56 55 54 55 56 56 58 61 65 67 69 69 68 70 71 73 74 75 76 76 75 75 76 76 60 43 40 54 42 71 76 76 75 76 76 75 76 75

GFSGL_sfc_temp_036.txt.gz
Temp
82 81 81 81 80 81 80 80 79 79 79 79 79 79 78 77 77 74 74 75 72 68 65 64 70 73 70 74 74 72 70 70 65 66 68 70 71 73 73 70 68 68 66
82 81 80 80 80 79 79 79 80 79 80 80 80 80 80 79 78 77 75 76 64 62 63 64 72 73 72 72 71 68 72 72 66 65 64 63 64 66 65 64 63 65 64
82 81 79 79 79 78 78 78 79 79 79 80 80 80 80 79 77 77 75 71 62 63 64 65 72 72 70 70 72 73 72 71 70 68 60 62 61 61 61 61 61 61 61
82 81 79 78 78 78 78 78 79 80 79 80 80 81 80 80 79 77 73 68 65 62 67 69 73 73 72 72 71 72 72 70 71 66 60 59 59 59 59 57 57 59 58
81 80 78 78 79 79 78 78 79 79 80 81 80 80 78 79 76 73 69 65 63 66 62 65 72 69 61 66 75 72 70 70 69 62 59 58 56 57 56 57 56 56 56
81 80 80 79 79 77 77 77 78 79 80 80 79 79 77 78 49 52 62 68 64 64 68 67 72 64 62 57 57 58 67 69 68 64 59 57 57 57 57 57 56 54 52
81 81 80 79 79 78 78 78 77 77 76 77 77 77 75 73 49 50 53 70 65 64 62 64 62 67 65 69 54 54 55 56 64 69 61 60 58 58 59 57 58 61 56
82 81 81 80 79 78 78 77 76 76 74 74 75 76 75 68 48 48 52 69 64 63 62 63 64 67 67 66 66 67 69 69 70 71 67 65 63 62 62 63 62 58 56
82 81 81 79 78 77 77 76 76 75 73 75 76 75 73 68 48 47 57 67 62 61 61 61 63 67 51 50 68 69 68 63 53 52 54 51 50 50 56 58 55 55 53
81 80 80 82 79 78 77 76 77 77 76 79 76 75 59 67 46 47 58 63 60 58 59 59 52 61 46 49 67 65 61 62 64 60 58 52 54 52 52 61 61 58 57
81 81 81 81 79 79 77 77 76 76 77 75 74 71 67 65 61 47 51 64 62 62 60 58 57 44 45 47 55 65 62 63 57 61 59 58 58 60 59 62 64 64 63
82 82 81 79 81 79 76 75 75 73 72 72 70 68 67 65 52 48 49 53 56 68 62 58 51 43 44 46 57 45 46 55 63 60 59 58 59 61 62 66 68 70 75
82 80 79 79 80 79 75 74 72 72 70 71 69 71 65 62 59 44 45 47 50 66 64 48 42 42 43 46 44 46 49 61 61 60 60 61 63 65 69 70 71 72 72
80 79 79 79 78 78 78 74 72 72 73 73 72 70 66 60 59 62 61 64 51 55 50 52 48 47 48 50 54 56 66 65 64 63 62 65 66 68 68 72 69 67 73
77 80 79 80 78 77 75 72 73 72 69 76 73 73 66 62 59 58 60 69 68 58 57 60 58 56 55 57 59 63 70 67 67 68 69 68 70 69 69 73 73 73 75
76 80 82 81 80 80 78 73 44 45 44 45 45 61 71 53 46 45 44 44 45 45 62 63 60 58 58 59 62 64 68 64 71 70 69 70 71 71 74 75 77 76 75
80 80 82 79 82 80 79 75 71 58 42 41 43 43 49 49 43 43 43 43 43 48 67 66 65 64 63 65 68 70 70 71 72 72 72 72 77 77 73 75 77 77 76
83 61 84 85 84 83 80 79 76 74 71 70 47 47 42 41 41 41 42 47 59 60 67 67 68 70 71 73 73 71 71 71 74 73 73 76 77 77 75 76 77 76 77
84 84 86 86 86 80 83 80 76 76 75 74 69 54 45 39 39 40 44 66 65 67 71 72 73 74 75 76 77 78 76 77 77 77 77 78 78 78 77 77 78 60 64
85 64 71 86 84 84 83 83 82 81 80 76 76 74 61 57 57 55 64 67 67 70 70 71 72 73 74 77 76 79 77 74 76 77 78 79 79 79 79 79 79 78 77
88 84 64 86 85 85 85 83 83 82 82 81 80 73 50 76 72 68 72 74 76 79 78 78 79 78 79 79 80 79 77 76 78 78 79 79 79 78 79 80 80 80 79
88 86 85 86 86 85 85 85 84 84 84 83 82 68 41 73 81 78 78 80 82 82 82 80 82 81 81 81 81 80 79 77 79 80 80 81 80 80 80 80 80 79 79
86 85 85 86 86 70 81 85 85 85 84 84 84 76 72 78 84 83 81 82 82 83 85 84 83 84 85 84 84 83 82 81 82 82 81 81 81 81 80 79 79 79 79
84 83 82 83 85 84 83 83 84 66 83 85 84 83 81 82 84 84 86 85 84 84 84 84 84 84 84 84 85 85 85 85 86 85 83 82 82 78 81 81 81 80 79
60 73 78 78 79 77 78 80 80 80 81 82 81 83 83 82 82 82 82 83 85 85 84 84 84 83 82 82 76 74 60 41 68 53 82 83 81 80 81 82 81 80 80
50 51 54 59 61 61 61 61 62 62 63 66 68 71 73 72 71 72 73 73 77 79 79 81 78 70 64 62 52 38 35 35 50 36 63 77 78 79 81 80 80 80 80

GFSGL_sfc_temp_042.txt.gz
Temp
80 80 79 80 79 79 77 76 76 76 76 76 77 75 75 73 73 71 72 71 68 67 67 66 64 65 65 65 65 65 63 63 60 62 64 65 64 64 66 64 65 64 61
80 78 77 77 77 76 75 75 77 76 77 78 77 76 76 76 73 72 71 71 69 67 65 63 64 67 65 65 65 65 64 64 62 60 62 63 63 64 65 65 65 65 62
75 73 74 72 74 75 74 76 77 77 77 78 78 77 75 73 71 73 73 71 69 67 65 63 64 64 64 64 65 64 64 64 63 62 60 61 61 62 60 60 60 60 61
75 75 74 75 76 76 76 77 77 78 77 77 76 76 74 75 75 74 73 70 67 66 64 63 65 66 66 65 65 65 65 63 63 61 60 59 59 59 59 57 56 58 57
76 77 76 76 77 77 76 76 77 76 76 75 73 73 73 73 71 70 70 67 65 62 62 63 65 64 61 63 65 65 65 63 61 60 58 57 57 57 57 57 55 56 57
79 78 78 78 78 76 76 75 73 72 73 72 72 72 68 70 50 53 64 66 65 64 63 63 64 59 58 56 58 58 63 63 60 59 57 57 57 56 57 57 56 55 53
80 80 79 78 77 73 75 73 70 71 71 70 71 70 67 63 49 51 58 67 64 63 64 64 66 65 64 65 54 55 55 57 61 63 58 58 57 58 58 57 58 57 55
80 80 80 78 75 72 72 69 69 71 70 69 69 69 67 60 50 51 52 66 64 62 64 66 66 66 65 67 67 66 65 64 64 65 62 60 60 61 61 62 60 58 58
82 80 77 75 73 72 71 69 70 70 68 69 70 69 66 62 48 50 58 66 62 61 62 65 65 64 53 52 66 63 62 60 54 54 53 50 48 51 58 60 58 57 55
82 78 78 76 74 72 70 69 70 70 70 69 69 68 58 62 47 51 61 65 61 59 60 61 50 60 47 49 64 63 60 60 59 57 56 52 54 53 53 62 61 58 57
82 81 80 75 75 71 70 71 71 70 70 68 67 66 65 63 57 51 53 63 61 60 59 60 58 45 47 48 55 64 60 61 56 59 59 59 58 59 60 62 62 61 58
81 81 77 75 78 75 70 69 71 71 67 66 65 64 64 63 53 49 47 53 55 61 60 60 51 44 45 47 53 45 48 55 60 58 57 57 57 58 58 59 60 61 63
79 75 77 76 75 73 69 67 68 68 66 68 65 64 62 63 59 45 45 47 51 62 61 48 43 42 43 46 45 46 51 60 58 56 56 56 58 59 60 59 60 61 61
74 75 73 72 73 72 73 69 67 66 66 66 65 65 62 61 62 61 61 58 49 51 49 52 49 50 50 52 54 57 62 61 59 57 58 59 58 58 59 60 59 60 59
76 73 72 71 70 64 58 58 63 55 58 66 65 66 62 60 61 55 61 62 60 53 56 57 57 57 58 61 61 62 62 62 60 60 59 59 59 59 60 61 61 61 60
76 73 73 73 72 71 67 60 43 43 41 43 52 63 67 51 43 44 46 45 45 46 58 57 56 58 59 61 60 60 61 59 62 62 61 61 61 60 61 62 62 62 60
76 72 76 73 74 74 72 69 63 54 43 41 44 49 51 46 43 44 44 43 42 47 59 58 57 60 60 62 61 61 61 63 64 65 64 62 64 64 59 64 64 63 63
74 64 79 75 76 74 72 71 72 68 66 62 46 46 42 42 42 42 42 47 57 56 63 61 60 61 60 63 65 64 65 64 64 64 65 66 66 66 65 66 66 65 65
79 77 75 78 78 73 71 70 74 71 69 61 56 49 43 40 40 41 42 66 64 62 64 63 63 63 64 66 66 67 67 67 66 65 66 67 68 68 67 68 68 58 60
79 59 64 77 75 70 75 72 67 71 69 67 64 58 53 55 60 60 63 66 65 67 67 67 67 68 68 68 67 66 67 65 67 66 67 68 69 70 69 70 69 69 66
85 73 67 79 75 78 71 74 75 75 72 71 68 61 47 64 63 64 65 67 70 70 68 69 71 71 71 71 68 67 68 67 68 67 67 68 69 69 70 70 71 70 69
82 84 83 79 75 78 77 76 75 73 72 73 71 60 41 70 67 68 68 69 72 74 75 72 73 73 72 72 70 68 69 69 69 70 69 71 71 72 73 71 71 70 69
72 84 75 71 78 67 75 77 76 77 76 75 72 67 66 69 68 71 70 71 69 66 67 68 66 63 63 62 59 58 58 59 63 73 73 73 73 72 72 71 71 70 69
67 76 76 71 78 78 70 73 71 63 67 77 75 73 69 65 64 60 59 59 61 60 60 58 56 52 51 51 52 51 46 43 57 61 68 71 73 69 73 73 73 72 71
58 64 71 66 69 72 69 65 68 69 67 68 68 70 69 66 64 64 62 60 60 58 55 54 54 51 46 46 44 42 36 34 44 38 67 70 70 70 72 72 72 71 71
57 55 53 57 62 62 60 60 59 60 60 58 59 60 60 59 59 58 59 59 59 57 55 51 48 48 47 43 40 35 35 36 43 40 63 63 59 58 59 64 64 65 65

GFSGL_sfc_temp_045.txt.gz
Temp
71 70 70 71 72 71 70 69 69 69 69 69 69 69 69 69 69 64 64 64 64 62 63 63 62 62 61 63 61 59 58 58 55 59 60 62 62 62 63 63 64 62 61
74 72 70 70 72 71 70 71 70 69 70 70 71 72 73 69 69 66 65 65 63 62 62 62 61 63 60 63 60 60 59 59 58 59 60 59 61 62 63 63 63 63 62
75 70 69 69 69 69 69 70 73 71 70 71 71 72 71 69 67 67 66 65 64 62 62 61 61 62 59 61 60 60 59 60 60 60 59 60 61 61 59 60 60 60 60
71 69 68 68 69 68 71 71 71 72 72 73 70 69 71 72 72 69 66 64 62 62 61 61 63 63 60 60 61 60 60 60 60 60 59 58 58 59 59 58 57 58 57
71 71 70 69 71 71 71 71 70 69 69 69 69 70 69 68 68 65 64 63 61 60 60 62 63 62 60 62 62 61 60 59 59 58 57 57 57 57 56 57 56 57 57
73 71 72 71 70 68 68 71 68 66 67 71 68 68 65 64 50 55 61 61 60 61 59 61 60 58 57 57 58 59 61 59 58 58 57 57 57 56 57 57 56 56 53
73 73 72 71 70 71 73 68 69 69 69 68 66 64 59 55 49 51 58 61 60 60 59 61 61 63 60 58 54 55 56 55 59 60 58 58 56 57 58 57 58 58 55
73 73 72 72 69 71 67 69 67 68 65 65 64 62 57 55 49 52 55 61 60 61 61 61 61 61 60 61 62 60 59 59 58 61 58 59 59 61 61 61 58 57 57
73 71 71 70 70 69 67 67 67 64 62 62 62 60 57 56 48 51 58 60 60 60 59 58 61 62 48 52 61 59 59 57 53 53 52 50 49 51 57 60 57 56 55
72 72 72 74 71 68 67 67 66 62 63 63 62 60 54 55 47 53 59 59 59 58 58 58 49 57 48 50 62 61 57 57 57 56 54 51 53 52 52 60 61 57 57
73 72 70 70 68 69 67 68 62 62 62 61 60 59 58 56 54 50 53 60 60 58 58 56 53 44 47 48 54 62 58 58 54 58 58 58 58 59 59 60 58 60 56
73 72 71 70 71 70 69 63 64 61 61 60 60 60 60 58 51 50 49 53 55 60 58 55 51 43 44 46 51 45 48 54 59 58 57 57 57 57 58 57 57 58 62
71 72 71 68 68 67 62 64 60 62 61 59 59 59 58 58 52 44 45 49 51 58 59 50 43 43 44 46 44 45 50 59 58 56 56 56 58 58 58 58 58 61 61
70 70 69 69 67 64 65 62 60 61 60 60 59 58 58 57 54 55 54 53 48 50 48 51 50 49 49 50 54 56 60 59 58 57 56 57 57 58 58 58 56 55 55
71 69 67 65 59 56 54 55 59 57 58 62 60 60 59 58 56 56 54 57 56 53 55 57 57 57 56 57 58 59 59 58 58 58 58 57 57 57 57 58 57 55 54
67 69 69 66 62 58 56 54 42 43 42 46 52 59 57 51 44 48 44 45 44 47 57 56 56 57 57 57 57 57 59 57 57 59 58 58 58 57 58 59 59 57 55
68 65 66 65 62 60 59 58 55 50 43 41 43 46 47 45 43 44 43 43 42 51 57 57 57 57 57 58 56 59 58 59 58 57 56 59 60 60 56 60 60 59 57
69 58 67 63 64 64 62 60 61 59 56 54 44 44 42 42 42 42 41 47 55 54 58 57 56 57 58 58 57 57 57 57 57 58 58 60 62 62 60 60 59 58 57
70 69 69 70 67 66 66 62 62 59 55 53 52 47 42 40 40 40 42 59 59 59 59 59 58 59 59 58 58 58 58 58 58 59 60 60 61 60 59 59 58 53 53
71 59 64 67 65 64 64 63 60 58 56 58 57 54 52 53 52 51 54 60 60 60 61 61 60 60 59 59 60 62 61 57 59 59 62 62 60 60 60 60 59 61 60
74 72 61 68 65 68 67 65 64 62 59 58 56 55 45 59 55 55 56 60 60 62 64 61 59 60 63 64 64 64 64 63 64 63 64 62 61 60 61 62 66 67 66
73 72 68 72 71 66 65 65 67 65 63 59 57 53 37 58 58 58 58 60 63 60 62 62 62 61 61 60 62 63 64 64 64 64 64 65 65 66 64 62 63 62 62
66 71 71 69 69 62 64 62 64 63 64 61 60 56 54 62 60 60 58 56 56 53 52 53 51 51 51 52 51 50 53 54 55 59 60 65 65 66 67 66 67 66 66
67 68 66 66 64 63 63 60 59 58 65 63 62 62 59 58 56 55 53 52 51 52 50 48 46 46 46 46 46 46 44 45 49 55 61 65 65 60 62 64 64 64 64
57 60 62 59 59 59 59 59 60 63 65 63 62 59 57 58 56 55 51 50 49 48 47 46 46 43 43 41 43 43 37 35 42 41 57 58 55 58 59 58 59 58 56
51 50 53 54 53 52 53 52 51 52 53 52 52 51 50 50 51 51 51 49 48 45 43 42 42 42 41 40 39 35 35 36 43 39 54 53 52 52 54 55 55 54 53

GFSGL_sfc_temp_048.txt.gz
Temp
67 67 67 68 68 67 67 67 67 66 67 67 67 67 68 68 67 66 63 63 62 61 61 61 61 60 59 60 61 60 57 56 53 56 58 60 60 61 62 62 63 62 61
67 68 67 68 67 67 66 67 67 67 68 68 69 69 70 68 67 64 63 64 62 60 60 60 61 62 61 60 61 59 57 57 56 55 57 59 60 61 62 61 62 63 62
69 68 68 68 68 67 68 68 68 68 67 70 71 71 70 69 65 64 64 63 62 61 61 61 61 61 59 60 59 58 58 58 58 57 59 60 60 61 60 60 60 60 60
70 68 67 68 68 68 67 68 68 69 68 71 71 71 68 67 67 66 64 62 61 61 61 61 61 61 61 60 59 58 58 58 59 59 59 58 58 59 60 58 57 58 57
68 67 66 66 66 67 67 68 69 71 71 69 65 65 66 69 69 65 63 61 60 59 59 60 61 62 62 59 60 58 59 59 60 60 58 57 57 57 57 57 56 57 57
67 66 67 67 69 69 69 68 68 68 65 67 64 64 64 64 51 54 59 60 59 59 59 60 62 60 58 56 57 57 59 59 59 59 58 57 57 56 57 57 57 56 54
68 69 70 70 70 69 70 69 64 62 62 63 64 63 59 56 48 50 55 60 59 59 59 59 61 62 59 59 53 55 53 54 58 61 58 58 57 57 58 57 58 56 55
69 71 71 71 71 70 68 65 62 64 64 62 61 60 56 55 48 49 53 60 59 60 60 60 60 60 59 60 60 59 57 58 60 60 58 56 56 58 60 59 59 56 57
70 71 72 71 69 67 64 65 65 64 63 62 59 56 55 55 48 49 55 59 58 58 58 60 60 59 48 50 60 58 56 56 51 51 51 49 49 50 55 59 58 56 54
69 69 70 70 67 64 66 67 65 63 61 60 58 57 53 56 47 49 55 58 57 57 58 57 50 55 46 48 60 58 56 56 55 55 54 50 51 52 52 62 60 57 56
70 70 69 68 69 68 68 66 64 61 60 59 57 56 56 57 53 48 51 60 59 57 57 55 52 45 44 47 52 60 57 56 54 57 57 57 57 58 58 60 61 62 58
70 69 67 66 69 70 67 64 62 60 59 58 58 57 57 57 49 48 49 52 54 57 57 55 51 44 44 46 52 44 46 53 58 57 57 56 56 57 58 57 58 60 61
68 66 67 66 65 68 65 60 60 60 59 59 58 57 56 56 53 45 46 47 50 57 57 49 42 42 43 45 43 44 49 58 58 56 56 56 57 58 58 57 57 60 60
66 66 65 64 62 62 64 61 60 59 58 58 58 57 57 55 53 54 53 52 48 50 48 50 49 48 48 49 53 55 59 59 58 57 56 57 57 58 57 58 56 57 57
66 65 64 63 59 55 51 53 59 58 59 59 58 58 57 54 53 52 53 56 56 52 54 57 56 56 56 56 57 57 57 58 57 57 56 56 57 57 57 58 57 56 56
66 63 61 58 58 56 54 51 41 43 46 47 50 57 56 49 45 44 43 44 44 46 56 56 55 56 56 56 56 56 56 55 57 58 57 57 57 57 57 57 58 56 54
66 64 61 58 57 56 56 56 53 48 43 42 45 45 46 44 42 42 43 42 43 50 57 56 56 56 56 57 56 57 56 57 58 59 58 58 58 57 54 57 58 57 54
63 57 62 59 58 57 57 57 57 58 56 53 43 43 41 42 42 42 42 48 56 54 58 57 56 57 57 55 55 57 58 57 55 56 57 58 58 58 58 58 58 55 55
65 64 62 61 61 58 58 58 57 57 55 52 51 46 41 39 40 40 42 58 57 57 56 56 57 57 56 56 55 55 56 56 56 56 58 59 60 60 59 59 58 49 50
65 56 59 61 60 60 58 57 56 56 56 57 56 53 49 51 53 54 55 58 58 58 58 58 58 59 56 56 56 56 56 56 58 58 58 60 60 60 57 56 56 55 54
66 62 55 63 60 61 60 58 57 58 59 58 57 54 42 55 53 53 56 58 60 61 60 59 59 60 61 60 60 60 59 59 60 60 61 60 60 57 58 58 58 58 59
70 66 66 64 61 61 60 60 58 59 59 57 56 49 39 57 58 58 58 56 55 55 59 58 55 53 53 54 54 61 62 62 60 62 62 62 60 59 59 58 58 58 60
65 65 64 63 61 55 60 60 60 58 58 58 57 55 55 57 57 54 52 51 49 48 47 48 47 47 49 48 48 48 52 53 53 54 58 61 62 61 62 62 62 61 60
65 64 61 58 61 60 61 60 59 53 58 58 59 58 54 53 51 48 47 47 47 45 45 45 46 45 45 45 47 47 45 45 49 55 59 58 57 55 56 57 56 56 55
60 58 58 57 57 57 59 60 60 60 60 58 57 55 53 51 48 47 46 45 44 44 43 43 44 43 44 44 43 44 38 38 47 44 55 55 55 55 54 55 54 53 52
51 52 51 51 50 50 51 51 52 53 51 51 50 49 48 47 46 45 44 44 43 43 42 42 42 42 42 41 39 37 37 37 43 38 52 53 52 52 53 53 53 53 52

GFSGL_sfc_temp_051.txt.gz
Temp
67 65 64 63 64 65 66 65 65 66 66 67 66 66 66 66 67 65 63 64 64 62 60 60 59 59 58 58 58 58 58 55 53 54 56 61 61 61 62 62 63 62 61
66 65 63 64 65 65 65 65 65 66 66 67 67 67 68 67 67 66 65 64 61 60 59 59 60 60 58 58 58 59 58 56 55 53 58 59 60 61 61 61 61 63 62
64 63 64 65 65 65 65 65 66 66 66 67 68 68 69 68 66 66 65 62 61 60 60 60 60 59 58 59 59 59 57 57 56 56 58 59 60 61 60 60 59 60 61
65 65 66 66 66 66 66 66 66 67 67 67 68 68 69 68 68 63 63 61 60 60 60 60 60 60 60 59 60 59 57 56 57 58 58 58 58 59 59 58 56 58 57
67 67 67 67 67 67 67 67 68 67 68 68 68 68 67 66 65 63 62 61 60 59 59 59 60 60 60 60 60 57 57 57 58 59 57 57 57 57 57 57 56 57 57
66 66 68 67 66 66 67 67 67 65 66 66 66 64 62 62 50 54 59 59 59 58 58 58 60 59 58 54 55 56 58 59 58 59 57 57 57 56 57 57 56 56 54
65 67 66 67 65 65 65 66 65 65 65 64 60 60 58 57 48 49 53 59 58 58 58 59 60 61 59 59 53 54 53 53 58 62 57 59 57 58 58 57 54 55 55
65 66 66 66 66 66 66 64 63 65 63 59 58 58 58 54 47 48 51 58 58 58 59 60 60 60 59 58 58 57 57 58 58 60 61 57 57 60 58 57 55 56 57
66 66 67 68 67 66 64 63 63 60 59 58 59 58 57 55 46 46 54 57 57 56 57 59 60 59 49 50 59 57 55 54 51 51 51 49 47 50 55 60 56 56 54
66 68 68 69 66 66 65 64 60 61 60 59 57 56 55 55 46 46 54 57 57 55 56 56 51 55 45 47 59 58 56 55 55 54 54 50 50 51 52 62 60 57 55
68 68 68 68 66 66 62 61 61 61 59 56 55 56 58 57 53 46 49 57 57 55 56 55 53 44 44 46 51 58 55 55 53 56 56 56 56 57 58 59 61 61 56
67 68 67 67 68 65 62 62 61 59 57 56 57 57 57 57 49 46 48 52 53 58 56 56 51 43 44 46 51 43 45 52 58 57 56 55 55 56 57 58 59 60 61
65 64 63 66 66 65 63 61 59 58 59 57 57 56 56 56 54 46 46 46 50 57 57 49 43 42 43 45 43 44 49 58 57 56 55 55 57 57 57 57 57 59 59
64 62 62 62 64 64 63 61 59 59 58 57 56 57 56 55 55 55 53 52 48 50 48 50 48 47 47 47 52 55 58 58 58 56 56 56 57 57 57 57 56 57 57
63 63 60 60 61 55 50 55 59 59 58 58 58 59 56 54 54 52 53 56 56 52 54 56 56 56 56 56 56 57 57 57 57 56 56 56 56 57 56 57 56 55 54
62 61 59 57 56 54 54 52 42 44 45 45 49 55 54 46 43 44 44 44 44 45 56 56 55 56 56 56 55 55 56 55 57 57 57 57 56 56 57 57 57 55 54
62 59 59 56 56 55 56 56 54 47 42 42 43 44 45 43 41 42 42 42 42 49 57 56 56 56 56 56 56 56 55 56 57 58 57 57 57 57 54 57 57 56 55
61 50 58 57 56 56 57 57 58 58 55 53 42 43 41 41 41 41 42 47 55 54 57 56 56 56 56 56 55 57 57 56 57 57 57 58 58 58 56 57 56 55 54
61 59 59 57 57 55 57 58 60 58 55 51 49 44 41 39 40 42 45 58 57 56 56 56 57 57 55 54 54 55 58 57 55 56 57 57 58 58 56 57 57 48 50
62 51 55 58 57 57 57 57 57 56 56 56 54 50 48 51 53 54 56 57 57 56 57 56 57 56 55 55 56 56 56 54 55 56 57 58 58 59 58 58 57 54 53
61 58 52 59 58 58 58 58 58 59 58 57 54 50 41 56 54 55 56 58 58 59 59 59 59 56 57 57 58 58 58 58 59 58 58 58 57 56 56 55 55 55 55
61 60 60 60 59 58 58 59 59 60 58 56 53 47 38 57 57 55 52 51 51 51 55 54 52 51 51 49 51 57 59 59 59 60 60 60 59 57 56 56 55 55 55
62 60 60 60 59 52 57 59 59 58 58 57 55 55 57 55 51 50 48 46 45 45 46 48 47 47 48 48 48 47 54 53 51 55 55 56 57 57 57 56 58 57 55
63 61 60 59 59 58 58 58 57 52 57 58 57 54 51 49 46 45 45 46 44 43 44 44 45 45 44 44 46 43 45 46 52 53 55 55 54 53 55 54 53 53 52
59 59 59 59 59 59 57 57 58 59 57 55 53 50 48 47 45 43 44 43 43 41 41 42 42 43 43 41 43 44 39 39 46 42 54 54 54 53 52 52 52 50 51
52 53 53 56 57 58 58 55 53 52 50 50 48 47 45 44 43 42 41 41 41 40 40 41 41 41 41 40 39 36 37 37 42 39 52 52 51 51 50 50 49 50 48

GFSGL_sfc_temp_054.txt.gz
Temp
60 60 62 62 64 64 65 65 66 66 67 67 68 68 69 69 68 67 66 66 65 64 64 63 63 63 62 61 62 62 61 61 59 59 60 62 62 63 63 63 64 64 63
62 61 60 62 63 64 65 65 66 67 67 68 69 69 69 68 67 67 65 66 65 63 63 63 63 63 62 62 62 62 61 60 60 58 60 61 61 62 62 62 62 65 65
62 58 59 62 64 64 65 65 66 67 67 68 69 69 68 68 67 67 68 65 64 64 63 63 63 62 61 61 62 61 61 60 60 60 59 60 60 61 60 60 60 61 62
62 60 61 63 65 65 65 65 66 67 67 68 68 69 69 68 69 68 65 64 64 63 63 63 63 63 62 62 62 62 59 59 60 61 60 59 59 60 61 58 58 60 59
63 62 63 64 65 65 66 66 67 67 68 69 68 68 69 68 67 65 65 64 63 63 62 63 63 63 60 61 62 59 58 60 60 61 58 58 58 58 58 59 58 58 58
64 64 66 66 67 67 66 67 67 67 67 67 67 67 66 65 52 54 61 63 63 62 61 62 63 59 59 56 57 56 60 60 60 61 59 57 58 58 58 58 57 57 56
66 69 68 67 67 67 67 67 66 65 66 65 64 64 61 59 48 49 53 62 62 61 61 61 61 62 60 60 53 53 54 53 58 64 59 59 58 59 59 58 58 59 56
67 67 68 67 66 67 66 65 64 64 63 63 61 60 59 55 46 47 51 61 61 61 62 62 61 61 60 61 58 59 60 62 63 62 63 61 63 61 62 62 60 58 59
65 66 67 67 65 64 63 63 62 62 60 60 60 59 58 55 45 46 56 60 60 60 61 62 62 61 50 49 59 58 59 57 51 50 51 49 47 49 57 62 60 58 56
65 65 66 66 65 63 63 62 62 62 59 59 59 59 54 55 44 46 55 60 58 58 59 59 50 56 44 47 59 58 57 57 56 56 56 51 52 53 51 63 63 60 58
67 66 65 65 64 63 63 61 60 59 58 57 57 58 59 56 52 45 48 60 59 59 59 56 55 44 44 46 51 59 57 56 54 58 57 57 57 58 60 61 63 64 62
66 65 64 63 64 63 62 60 60 58 57 56 57 57 58 58 49 45 47 51 54 60 60 57 53 43 43 45 51 44 45 52 59 57 56 56 56 58 60 60 61 61 62
63 62 62 63 64 63 62 59 58 59 58 57 57 57 56 57 55 45 46 46 49 58 58 48 42 41 42 45 44 44 48 59 58 57 56 56 58 60 60 59 59 61 60
61 61 62 63 62 62 62 61 60 59 58 58 57 56 56 57 56 55 54 53 47 50 48 50 47 47 46 48 53 56 59 60 58 57 57 58 59 58 57 58 58 58 58
61 62 62 62 60 55 51 57 60 60 58 58 58 59 57 56 56 53 54 57 56 52 54 56 56 56 56 57 57 58 58 59 58 57 57 56 57 57 57 58 57 57 57
61 61 60 59 58 56 55 53 42 44 45 46 49 55 54 48 44 44 44 43 44 45 57 56 56 56 56 56 56 56 57 56 58 58 58 57 57 57 57 58 59 59 60
60 59 58 58 58 58 58 56 54 47 41 41 42 43 45 44 42 42 42 42 42 49 57 56 57 57 57 57 57 57 56 58 59 59 58 58 58 58 56 57 58 57 57
60 51 60 58 57 58 59 58 58 57 55 52 41 42 41 41 40 40 42 47 55 54 58 56 56 57 57 57 58 58 58 58 58 58 58 58 58 58 57 56 57 56 55
60 60 60 58 59 57 59 59 59 57 54 49 49 45 41 40 40 41 44 58 56 56 57 57 58 59 58 59 60 59 58 58 58 58 58 58 59 59 58 57 57 47 50
58 48 54 59 58 59 59 58 57 56 55 54 52 50 50 53 54 55 56 57 57 57 59 58 59 59 60 60 60 60 59 58 58 58 58 58 59 59 57 57 58 57 58
59 58 51 59 58 59 58 58 58 58 56 54 53 51 42 57 55 55 56 57 58 58 58 59 59 59 61 61 61 62 59 59 59 57 60 57 58 59 58 58 58 62 63
61 60 60 58 59 58 58 60 60 58 56 53 52 48 40 57 53 50 50 50 53 53 56 56 55 53 53 53 54 58 59 60 61 60 62 60 61 62 62 62 63 63 63
61 61 60 59 59 53 58 59 59 58 56 54 55 55 53 50 49 47 47 46 47 47 49 50 49 50 49 48 49 51 58 59 59 58 62 64 62 63 63 63 63 62 61
62 62 59 58 58 58 58 58 57 51 56 58 55 53 49 47 45 45 44 45 45 45 45 45 44 44 45 47 48 48 48 53 58 60 62 61 59 56 59 58 58 57 56
61 60 60 58 58 58 57 57 58 57 55 53 50 48 46 45 44 44 44 44 44 44 43 44 45 44 44 46 47 46 37 38 46 43 56 54 53 53 51 51 50 51 51
60 60 60 59 58 57 56 54 53 51 50 49 47 45 44 43 42 42 42 43 42 42 43 43 42 42 42 42 39 36 36 37 43 40 54 53 51 53 51 51 50 49 48

GFSGL_sfc_temp_057.txt.gz
Temp
69 70 70 72 75 76 76 77 77 77 77 79 79 78 78 77 77 76 73 75 72 69 70 70 71 72 75 74 75 75 74 75 71 70 65 66 65 67 68 69 71 73 70
70 70 70 72 73 73 74 76 77 77 78 80 79 79 79 78 77 75 74 73 69 68 72 73 73 74 72 72 74 72 73 72 73 67 63 63 64 67 64 65 67 72 74
70 70 70 70 71 72 74 75 77 78 78 79 79 79 79 78 76 74 77 74 74 75 74 72 74 72 71 72 73 72 73 71 67 71 65 65 62 62 61 64 64 66 66
70 70 68 70 71 72 74 75 76 78 78 78 78 79 78 78 78 78 76 73 73 69 69 74 74 72 72 71 71 71 70 68 65 70 67 62 61 61 62 60 60 63 62
68 70 69 71 72 74 75 75 76 77 78 79 77 77 78 77 79 77 72 70 68 72 72 73 73 70 65 67 73 71 69 65 63 68 65 61 59 59 60 61 61 61 61
65 67 71 73 73 73 73 72 72 75 76 77 75 76 75 77 53 56 66 70 74 73 72 72 72 62 62 56 58 58 61 65 68 69 68 62 59 60 61 61 60 60 59
65 67 69 73 73 72 70 69 69 70 73 73 74 76 75 73 50 52 57 74 74 72 71 69 68 69 64 70 55 54 54 54 59 69 67 63 59 60 63 63 64 65 64
64 64 69 72 71 70 67 68 68 71 72 72 72 72 70 61 47 48 52 73 72 72 71 70 68 67 68 68 65 64 64 68 68 71 70 67 65 65 62 63 65 61 62
64 62 69 69 68 68 68 68 69 70 69 69 68 67 61 56 46 47 61 72 71 69 70 70 70 70 51 50 61 60 63 63 53 51 54 52 49 51 59 67 63 64 60
63 63 68 68 68 69 68 67 68 69 67 63 63 68 59 60 45 47 61 73 66 64 65 66 50 64 45 46 61 59 59 61 64 63 63 56 57 58 52 68 70 68 64
65 65 68 67 69 68 67 67 65 65 61 62 63 63 63 61 55 46 50 72 69 70 70 69 63 44 44 46 51 60 59 63 55 63 61 63 63 62 64 67 68 72 66
67 67 68 66 65 66 65 64 63 61 61 60 61 61 62 63 51 46 47 55 56 71 70 66 54 43 43 45 52 44 45 54 65 59 59 59 59 61 64 65 65 68 73
68 65 65 65 65 66 63 62 60 61 61 60 61 60 60 65 64 45 44 45 50 68 71 52 42 41 42 46 43 44 47 65 63 62 59 59 62 64 64 64 66 65 64
65 64 63 63 63 63 63 64 65 64 63 62 63 61 62 62 62 61 59 59 49 54 49 52 49 51 49 51 53 57 65 66 65 63 61 62 63 64 64 65 63 64 65
63 62 62 63 63 61 61 67 69 69 66 67 67 64 62 61 61 56 58 63 61 56 56 59 59 59 59 59 61 61 62 63 64 63 63 62 62 62 61 62 62 64 66
62 63 60 60 61 62 60 56 42 45 45 46 51 62 66 52 45 44 44 44 44 45 61 59 58 58 59 58 59 59 61 58 61 62 62 63 63 61 62 61 62 60 61
64 62 61 62 65 64 63 58 54 48 41 40 41 43 47 46 42 42 42 43 42 50 61 59 59 59 59 59 60 60 60 61 62 61 60 59 61 61 59 59 61 65 63
64 54 67 68 68 63 62 62 61 58 56 54 43 45 41 41 41 41 42 47 57 56 60 57 59 61 61 62 62 62 61 61 61 61 61 61 62 62 61 57 59 60 59
70 71 65 62 63 61 63 61 61 60 56 52 52 47 43 40 40 41 45 59 59 57 57 58 67 65 62 62 63 62 62 62 61 62 62 62 62 62 59 61 60 48 50
70 52 57 65 67 63 61 60 59 57 56 55 54 53 54 53 56 58 60 58 58 59 61 59 63 63 65 69 66 63 63 63 63 62 62 62 61 65 62 58 58 56 56
66 67 56 71 66 63 61 59 57 57 55 54 55 54 43 59 57 57 57 60 60 64 64 67 63 64 67 68 68 67 67 67 62 65 64 62 65 59 62 61 63 63 62
68 65 63 63 62 62 61 61 59 58 58 57 55 48 40 56 54 52 51 53 55 64 62 60 58 58 59 62 69 64 63 66 64 65 62 59 59 62 63 68 59 65 71
67 62 62 63 62 54 59 60 59 58 58 58 56 53 53 51 49 49 49 52 51 53 54 57 57 60 58 58 54 63 66 69 70 64 68 67 67 69 70 70 69 68 64
68 62 61 60 61 60 59 59 56 53 59 57 54 51 49 48 47 46 49 48 50 50 49 49 55 56 53 56 61 63 63 67 66 66 68 66 63 60 60 57 57 57 55
64 61 61 60 60 59 58 57 58 57 56 54 50 49 48 46 46 46 47 48 48 47 45 44 47 49 51 52 54 52 39 36 53 48 63 58 54 54 54 54 53 50 50
63 60 60 60 59 59 56 54 54 54 53 50 49 49 46 44 44 43 45 47 46 46 47 46 46 45 46 44 42 36 36 37 47 41 61 62 59 57 54 57 54 53 52

GFSGL_sfc_temp_060.txt.gz
Temp
77 77 76 77 79 80 80 81 81 82 83 82 85 84 84 83 83 81 83 83 81 81 81 79 77 79 80 77 81 83 80 82 77 76 77 74 72 70 72 75 74 78 74
78 77 77 77 77 77 79 81 83 83 84 85 86 86 86 85 83 82 83 84 82 80 79 79 79 79 77 79 80 77 80 81 79 69 72 72 70 70 69 71 73 75 74
78 77 76 76 76 76 78 80 82 84 85 86 87 86 86 86 84 84 84 83 82 81 79 78 79 78 77 78 77 79 78 77 76 72 71 71 67 72 64 68 68 68 71
77 76 74 76 77 77 78 80 82 84 85 85 86 87 88 87 86 85 84 82 81 80 80 79 79 77 76 76 76 76 76 74 76 75 70 68 65 63 65 63 64 66 65
74 74 73 75 77 79 79 80 82 83 85 87 86 87 87 86 87 83 82 81 81 79 77 78 79 75 69 72 78 74 73 74 75 71 66 68 62 60 60 62 66 67 64
72 72 74 75 77 78 79 79 80 82 84 85 85 86 84 87 56 60 74 80 78 77 74 78 79 66 66 59 59 58 67 72 71 63 66 69 62 63 63 65 65 65 64
70 72 74 75 77 77 81 80 80 80 81 82 83 84 81 82 53 55 59 78 78 77 77 77 78 79 69 75 57 55 57 55 58 68 68 70 65 66 68 66 62 65 70
69 71 73 74 76 76 80 79 79 79 79 80 80 81 76 72 51 52 56 79 78 78 78 77 75 74 73 72 71 71 71 64 64 72 71 71 71 70 66 68 66 66 69
68 70 71 72 72 70 75 76 74 74 74 73 75 76 77 67 48 50 64 77 78 77 78 77 73 73 54 52 69 68 65 64 56 50 52 52 51 54 63 68 66 66 67
68 70 71 74 68 69 70 69 71 72 73 76 75 77 64 67 46 49 62 82 76 76 73 71 52 66 46 47 69 63 61 63 71 69 66 59 59 59 53 64 71 68 67
68 68 71 68 65 68 68 69 69 70 72 72 72 71 67 62 56 47 50 80 77 76 76 74 74 45 44 45 52 65 60 65 61 68 66 68 67 67 68 71 71 74 72
64 65 67 63 66 67 67 67 68 70 70 68 68 65 66 69 55 47 47 57 61 76 72 75 65 43 43 45 53 45 46 55 68 62 61 63 63 67 68 71 72 74 76
65 63 61 65 66 67 65 65 68 70 69 67 66 66 71 73 70 45 45 48 48 70 75 57 43 42 43 49 43 44 47 68 65 59 59 62 66 69 69 70 70 72 74
62 62 63 63 63 64 65 69 72 69 70 71 71 73 74 74 72 72 69 68 53 63 53 59 53 54 51 56 56 60 73 71 67 65 66 66 66 66 66 71 68 70 71
59 62 63 63 63 64 66 69 70 70 71 75 75 76 72 71 72 65 67 74 74 64 63 65 66 70 67 67 69 69 70 72 69 68 66 66 65 66 67 70 70 68 66
61 61 62 61 62 64 63 56 44 46 44 47 53 68 74 55 45 44 44 44 45 46 64 66 65 70 66 66 68 65 70 64 70 72 68 67 67 70 67 66 66 66 67
62 61 61 63 64 62 65 62 59 53 43 41 42 45 49 48 43 42 42 43 43 49 66 63 64 65 66 67 68 68 68 67 68 69 69 71 69 67 64 64 67 67 61
63 53 70 67 72 73 73 71 69 68 66 64 46 49 42 41 41 41 43 48 58 59 67 63 65 65 66 67 69 68 67 66 66 64 64 63 66 65 64 64 63 65 66
71 71 72 76 78 73 74 74 72 72 69 63 57 48 43 40 41 42 45 65 62 64 66 66 66 68 68 69 69 69 68 67 65 65 64 63 65 66 63 61 59 49 52
72 56 63 74 73 72 68 71 68 63 62 64 63 56 53 54 57 58 65 65 61 61 60 64 70 74 72 71 70 70 68 65 67 66 65 66 66 65 63 64 67 63 60
75 74 61 75 70 73 70 68 65 64 63 65 63 61 45 64 64 61 59 65 59 61 64 67 73 72 70 69 71 68 67 68 67 68 67 65 68 63 70 66 69 63 61
77 76 75 75 69 68 67 67 65 62 62 59 56 51 40 62 59 56 57 57 63 67 67 69 70 70 73 70 69 70 70 67 69 69 62 69 65 66 68 69 69 69 69
78 76 74 70 65 56 61 61 63 61 58 58 59 57 55 52 52 53 54 60 67 68 68 69 66 69 71 67 60 67 68 66 70 71 69 70 68 69 68 66 68 66 69
72 67 65 62 60 59 61 61 63 55 60 59 54 53 52 51 51 50 53 55 61 59 59 60 64 68 67 67 67 71 70 66 72 71 69 66 64 63 64 62 61 60 59
71 67 65 62 60 59 59 61 61 60 58 52 52 52 50 49 51 52 55 54 53 51 53 59 60 60 59 59 57 54 39 37 57 50 66 61 57 57 57 56 55 55 56
66 65 62 61 60 61 60 57 58 57 52 50 49 48 49 50 51 52 53 53 53 49 47 48 49 51 52 50 46 37 37 38 49 40 67 68 66 65 65 64 61 61 60

GFSGL_sfc_temp_063.txt.gz
Temp
79 79 79 79 79 79 79 80 80 80 81 83 85 85 83 83 84 82 81 82 81 81 82 79 78 81 82 78 78 83 77 77 77 71 78 75 74 74 76 77 74 76 73
80 80 79 79 79 78 79 79 80 81 82 82 82 80 83 83 82 82 81 85 83 82 79 81 81 81 79 80 81 76 81 81 72 72 75 75 72 73 74 72 70 74 74
80 79 78 78 77 77 78 79 81 82 83 85 87 86 87 87 85 84 84 86 85 84 83 81 81 81 77 79 78 81 80 80 79 75 70 74 72 69 71 70 70 70 68
79 78 77 77 77 77 79 80 81 82 84 86 86 88 89 88 88 86 85 86 85 85 83 82 81 80 78 76 78 77 77 78 76 71 69 71 70 68 71 68 65 66 68
76 76 75 77 77 77 78 80 82 82 85 86 87 87 89 90 90 87 86 85 83 83 81 81 81 77 70 73 75 75 77 75 72 68 68 69 69 66 66 65 65 67 68
73 73 75 76 77 77 77 79 81 82 83 85 86 88 87 90 66 64 78 84 83 81 78 80 81 70 67 61 62 59 67 71 70 67 68 69 65 65 68 68 64 67 64
72 73 74 75 76 76 78 79 79 80 81 82 84 87 86 86 56 56 62 84 81 79 79 78 79 81 72 77 59 58 58 58 59 71 69 64 67 70 68 66 66 67 67
71 72 74 75 76 77 77 78 77 80 79 80 82 85 85 81 52 54 58 81 80 80 80 80 78 78 76 76 74 73 74 72 71 71 67 65 72 70 70 69 69 66 67
67 70 72 73 72 75 76 76 77 78 78 80 83 84 81 71 50 54 65 79 79 79 80 79 79 77 58 54 73 72 70 70 55 52 53 53 52 54 62 66 68 65 61
65 69 72 70 68 71 73 74 76 77 77 80 79 79 68 72 49 53 64 82 77 78 77 74 53 66 48 50 72 69 66 68 62 67 67 60 62 60 54 69 67 67 65
67 69 68 67 67 70 70 71 72 74 73 74 74 73 74 71 63 49 50 79 78 78 77 73 73 46 45 47 49 69 66 64 58 67 69 70 69 69 67 67 65 65 69
66 66 66 68 65 68 68 69 72 72 70 69 67 70 73 73 56 48 49 54 64 77 74 76 63 43 44 46 56 46 48 54 67 65 64 65 69 68 70 67 69 71 74
62 63 64 63 65 68 65 67 69 67 65 66 72 71 70 71 66 47 48 48 52 73 72 52 44 43 44 48 44 44 47 65 65 62 62 65 69 70 72 71 72 73 73
59 59 59 60 65 68 66 68 65 65 68 72 72 73 71 70 67 71 70 67 54 61 55 62 57 55 51 58 57 58 63 65 68 65 63 66 70 68 70 71 71 72 71
58 58 60 60 62 64 64 65 70 73 75 76 77 76 72 70 72 67 69 75 74 64 66 67 68 68 67 68 69 70 66 70 68 67 64 65 65 65 68 72 72 71 70
61 62 60 62 61 58 62 55 45 46 48 50 56 70 76 56 45 44 44 47 48 49 69 70 67 70 68 69 70 70 72 66 72 72 71 71 69 68 67 70 71 69 70
56 59 61 60 62 63 63 62 61 52 45 45 47 50 52 46 43 43 44 45 45 49 69 68 66 66 71 70 71 70 70 70 72 68 70 71 68 67 67 70 70 71 68
58 52 63 63 64 65 68 68 69 68 67 65 47 50 42 42 42 41 43 50 62 61 68 69 70 70 72 72 71 70 70 70 69 70 71 68 67 67 69 66 68 67 65
63 65 67 65 68 67 67 67 74 72 70 63 57 49 44 40 41 43 45 70 68 67 69 69 67 69 73 73 72 71 71 70 68 67 67 67 67 68 66 65 66 49 53
64 52 59 68 64 67 67 71 71 72 69 69 66 57 54 55 58 64 69 70 68 70 68 67 68 71 72 73 73 71 69 68 68 68 68 69 68 68 67 66 66 65 66
66 62 58 67 69 74 73 73 74 73 70 67 62 61 46 65 65 68 65 69 70 70 69 64 65 69 74 72 71 71 70 67 68 69 69 68 68 69 66 65 67 67 66
72 71 74 78 79 75 73 72 70 70 68 63 60 54 41 64 65 65 66 60 62 62 66 67 71 70 72 72 72 71 72 71 68 67 70 70 70 68 69 70 67 67 65
77 76 74 74 71 61 67 68 70 66 63 61 61 59 62 59 60 62 62 59 63 66 70 73 73 71 72 72 72 69 64 66 69 70 69 69 70 69 69 66 65 67 64
72 73 70 67 66 65 68 66 63 57 63 61 59 56 55 54 54 55 59 61 65 68 71 69 69 70 69 70 70 70 69 68 70 69 70 67 67 63 67 66 65 63 60
73 70 67 64 64 65 63 64 64 63 59 59 54 52 51 53 54 52 57 61 61 59 62 65 65 62 61 61 61 59 39 38 59 50 67 61 59 58 57 55 55 56 56
70 67 64 61 62 64 63 62 61 59 56 54 52 51 52 52 53 51 50 52 53 52 53 57 55 52 51 52 47 38 38 39 52 42 68 65 65 67 67 64 63 63 60

GFSGL_sfc_temp_069.txt.gz
Temp
64 64 64 65 65 65 64 66 66 65 67 69 70 68 68 71 73 71 73 76 74 74 73 72 70 70 69 68 67 65 64 64 60 63 63 64 64 64 65 65 65 64 62
64 63 63 65 65 65 65 65 65 65 66 67 69 72 72 72 71 74 74 76 74 72 73 70 71 72 69 68 66 65 65 65 63 61 61 62 62 63 63 63 64 66 63
65 63 61 62 62 63 64 65 66 66 66 66 70 70 72 73 73 72 74 74 74 74 73 71 71 70 69 68 67 65 65 65 65 61 60 61 61 62 61 62 62 61 62
62 59 58 58 59 62 64 65 65 67 66 68 70 71 72 73 75 75 75 73 74 74 72 72 71 71 70 68 67 66 65 65 62 61 59 59 59 60 60 59 59 59 58
61 59 58 58 60 64 66 66 66 65 68 70 71 71 72 73 77 76 75 74 72 71 71 72 71 69 66 67 67 64 63 62 61 59 58 58 58 58 58 60 58 58 61
59 59 60 60 61 61 64 67 63 64 66 69 70 71 70 74 65 60 67 72 72 69 70 70 69 65 64 62 63 61 63 64 60 59 58 57 57 58 59 59 58 56 56
58 60 61 61 62 61 63 64 61 61 62 63 67 69 70 70 59 57 56 72 69 70 69 67 67 67 63 64 57 58 57 55 59 61 59 59 59 59 60 59 58 59 57
58 60 62 62 62 62 61 60 61 60 61 63 67 69 70 70 56 54 54 68 70 68 67 68 66 63 63 63 61 61 60 61 60 63 61 61 61 61 61 62 60 59 60
58 59 61 61 60 61 60 59 59 58 60 61 66 67 64 66 52 50 53 66 67 66 68 68 66 65 54 53 62 61 59 57 52 52 53 51 50 52 58 62 59 59 56
57 59 61 61 60 59 60 61 61 57 59 61 63 62 61 65 54 49 52 67 65 64 62 63 56 61 48 51 63 61 58 57 58 58 57 54 54 55 51 61 60 59 56
58 58 59 59 58 58 57 59 60 60 59 58 59 61 63 63 65 47 49 67 65 64 63 61 56 47 45 49 53 61 59 59 55 58 58 58 60 60 60 61 61 60 59
57 57 57 57 59 60 56 58 58 56 55 56 57 59 62 64 53 48 48 56 59 66 63 60 52 45 47 45 52 44 45 54 58 58 58 59 59 58 59 59 62 61 63
54 55 56 57 58 58 56 57 53 55 55 57 58 59 60 59 56 47 49 52 54 64 64 53 43 43 43 45 43 43 49 59 58 59 57 57 59 60 59 59 60 62 63
53 53 54 53 55 56 58 58 54 55 56 56 57 59 61 58 56 54 56 54 50 52 49 49 50 51 51 49 51 53 59 59 59 59 57 60 61 59 58 59 58 58 58
52 53 53 52 52 54 56 55 55 56 56 58 59 61 62 58 59 56 58 60 59 55 55 57 57 57 56 56 56 57 58 59 58 58 57 57 58 58 59 58 58 58 56
51 52 53 52 52 53 53 52 43 44 45 46 49 57 62 54 49 48 49 47 48 49 58 58 57 57 56 56 56 56 57 57 59 59 58 58 60 59 57 61 59 61 56
50 52 53 52 54 54 53 54 54 47 43 44 46 47 51 50 46 47 47 47 46 53 59 58 58 58 58 57 58 58 57 60 61 61 60 60 60 60 56 60 58 61 57
53 48 54 54 55 54 55 56 56 55 55 53 47 49 44 45 45 46 45 49 57 56 60 59 58 57 58 58 58 58 58 60 61 60 60 60 57 60 60 59 59 59 57
54 54 54 56 57 56 58 58 59 58 54 51 50 47 45 44 44 45 48 61 58 59 60 61 59 58 58 60 59 59 59 59 57 58 60 61 61 61 56 56 56 48 50
58 51 52 57 58 59 59 58 56 55 55 55 54 51 51 56 60 57 59 59 59 58 61 60 58 59 60 60 60 59 57 57 59 60 60 60 60 61 59 59 56 55 57
57 58 51 59 58 59 59 59 58 58 57 57 56 55 45 61 58 58 58 58 59 60 62 61 59 59 61 61 60 58 59 60 61 61 61 60 61 59 58 59 60 58 58
60 59 59 59 59 61 61 62 58 58 59 57 56 47 43 60 58 58 59 59 59 59 59 59 60 61 62 59 61 59 59 61 61 61 61 61 59 59 59 59 57 57 55
63 62 61 61 61 55 58 59 58 59 60 59 56 57 58 58 58 59 59 59 59 58 61 62 62 61 60 58 57 59 60 59 60 60 58 58 59 58 55 53 52 51 51
63 62 61 60 61 59 59 58 57 53 58 58 57 56 56 57 57 58 58 58 58 56 56 56 57 58 56 55 53 53 56 57 60 60 59 56 55 54 54 54 54 54 52
62 61 61 58 58 58 57 56 56 55 55 54 54 54 55 54 54 54 54 53 52 50 50 50 49 49 49 50 50 49 41 41 51 46 58 56 55 54 54 53 52 51 50
60 59 59 58 57 56 54 54 53 53 52 52 52 51 51 50 49 48 49 47 46 46 47 47 45 45 45 44 45 40 39 40 45 41 56 56 55 54 51 50 50 48 48

GFSGL_sfc_temp_072.txt.gz
Temp
61 61 60 60 61 61 61 62 63 63 64 64 65 66 66 66 67 68 68 68 68 67 68 69 69 71 71 70 68 65 63 61 59 60 61 62 62 62 63 63 64 63 62
61 60 60 60 61 59 60 61 62 63 64 64 65 66 66 67 67 68 68 69 68 68 70 71 71 72 69 70 67 65 63 62 61 59 60 61 61 61 62 62 63 65 62
62 61 59 59 59 59 59 59 61 62 63 63 65 65 67 67 67 68 69 72 72 72 73 73 73 71 70 68 66 65 63 63 63 60 60 61 60 60 60 60 60 60 61
59 57 56 55 56 56 57 59 60 62 63 65 64 65 66 67 69 70 71 70 71 73 72 72 72 71 70 68 66 66 63 62 62 62 60 58 58 59 59 57 57 58 57
60 58 57 56 56 56 57 58 59 60 63 67 67 66 65 67 70 69 69 69 69 69 70 72 72 70 66 65 66 64 62 60 60 60 57 57 57 57 57 57 57 57 58
58 58 58 58 59 58 57 57 57 60 63 65 67 67 64 70 61 57 60 65 68 69 70 71 71 63 63 59 59 60 62 62 59 58 57 56 56 57 57 57 56 55 56
58 58 59 58 58 57 58 57 57 57 60 62 64 64 62 63 56 54 55 62 63 67 69 70 66 69 64 64 56 57 57 55 59 61 59 58 57 58 58 56 56 56 56
56 57 59 58 58 57 57 58 58 55 55 59 59 60 60 64 55 52 54 61 62 65 69 68 66 63 64 63 63 61 60 60 59 62 61 60 60 60 61 60 58 57 58
57 57 58 58 58 57 57 57 57 53 57 55 58 58 58 59 53 51 53 61 62 64 68 67 66 64 53 52 62 60 58 57 51 50 51 49 49 49 55 59 57 57 56
56 57 57 57 57 57 58 57 58 56 57 59 59 57 57 59 53 47 50 59 62 64 63 63 54 61 49 50 62 60 57 57 57 57 58 55 53 53 51 60 60 58 56
59 59 57 57 56 57 57 56 56 57 58 55 56 57 58 58 58 49 47 57 63 63 61 62 62 48 46 48 52 61 58 57 54 57 56 56 57 57 59 58 59 59 57
56 55 54 55 56 58 55 54 54 55 49 51 53 54 56 57 52 51 47 46 55 64 63 62 57 45 46 45 52 45 45 52 58 56 56 56 57 58 59 58 60 61 62
54 52 53 55 56 55 54 54 50 50 50 52 53 54 53 56 57 48 46 44 46 60 61 55 47 45 45 46 43 43 48 58 57 57 56 56 59 59 58 57 58 60 62
52 52 52 52 53 54 57 54 53 52 52 52 54 54 54 55 57 57 55 52 49 53 50 51 52 51 49 48 50 53 58 57 58 57 56 57 57 57 57 57 56 57 58
51 52 51 51 51 52 53 53 53 54 54 54 54 54 54 55 59 53 54 59 59 56 54 57 58 57 56 55 55 56 57 57 57 56 55 56 56 56 56 57 56 56 55
49 50 49 50 51 50 51 50 44 44 44 43 44 50 57 50 47 46 45 45 47 48 58 57 57 57 56 55 55 55 56 55 56 57 56 56 58 58 58 59 56 57 57
47 49 50 50 50 49 49 50 49 45 43 46 44 42 42 47 44 44 44 46 46 51 58 57 57 56 55 55 56 55 55 56 58 57 57 59 59 59 57 59 59 57 55
50 47 52 51 52 52 51 51 51 50 50 51 45 44 42 43 42 43 45 49 57 55 58 57 56 56 57 57 56 56 56 57 57 58 59 59 57 57 55 57 56 58 56
51 50 50 52 53 52 52 52 52 52 52 53 50 45 45 43 44 44 46 60 58 57 57 57 57 57 57 56 56 56 57 57 56 57 58 57 56 57 57 55 54 46 49
51 47 48 52 53 54 54 54 55 56 53 53 54 51 49 50 54 57 57 58 58 58 59 58 57 57 57 58 57 57 55 55 56 58 59 59 59 60 57 57 57 56 55
52 51 48 53 54 55 56 57 56 55 55 55 53 51 45 59 59 58 57 58 58 59 61 60 58 59 60 59 58 56 56 56 57 58 59 59 59 58 58 58 58 56 55
57 58 56 57 58 58 58 57 57 57 57 55 54 49 41 60 58 57 57 57 57 61 62 59 58 60 59 59 58 57 57 60 60 60 59 59 59 58 58 57 55 54 54
57 58 56 56 58 53 57 58 57 57 57 57 58 58 58 57 57 56 56 57 58 59 59 59 58 56 56 56 57 57 56 56 57 58 58 57 56 53 53 53 53 53 54
60 59 59 58 59 58 58 57 56 52 58 58 58 57 57 55 54 55 55 54 53 51 53 54 55 54 53 52 52 53 55 57 57 57 56 54 53 52 54 53 52 52 50
59 58 58 57 56 56 56 57 56 56 55 55 55 53 52 53 52 51 50 50 50 48 47 49 51 50 50 50 50 48 40 40 51 46 55 55 53 53 52 51 50 49 46
58 57 57 56 55 55 55 54 53 53 53 52 51 50 50 48 48 47 47 48 47 46 46 45 46 45 46 45 43 38 39 40 46 44 57 56 54 52 51 49 47 45 43

GFSGL_sfc_temp_075.txt.gz
Temp
58 58 58 59 59 58 58 58 58 58 59 60 62 63 63 63 63 64 65 67 67 67 66 65 66 68 68 67 68 67 66 65 63 64 60 61 62 62 62 63 63 63 61
60 58 58 57 57 57 58 59 59 59 60 61 62 63 64 64 63 62 63 66 67 65 66 66 67 67 68 68 68 68 65 63 63 61 60 60 60 60 61 61 62 63 61
57 57 57 57 56 56 57 58 58 59 59 60 62 63 63 64 63 63 63 65 66 67 69 69 68 68 68 69 69 67 65 64 62 60 59 59 59 59 59 59 59 59 61
58 56 56 55 56 56 56 56 57 58 58 59 60 62 63 64 64 64 64 63 64 68 68 69 71 70 69 69 69 67 63 62 61 60 58 58 58 58 58 57 56 57 57
57 56 55 54 54 55 55 56 57 58 59 59 60 61 61 64 67 63 63 62 62 63 65 69 69 69 66 67 69 67 63 62 59 58 57 56 56 56 57 56 56 56 56
58 57 57 56 56 55 54 55 55 55 56 57 58 58 59 65 60 56 59 60 61 61 63 65 68 65 65 58 58 59 62 62 61 59 57 57 56 57 56 56 55 54 55
55 57 59 58 58 57 56 56 55 54 54 54 55 56 57 60 54 52 54 59 58 58 60 62 65 68 63 68 58 55 55 56 58 62 58 58 57 57 57 55 55 55 55
56 58 60 59 59 56 55 54 53 51 51 51 53 54 56 60 53 50 51 56 57 59 61 62 63 66 67 66 64 62 61 60 60 61 61 60 60 59 59 58 57 57 57
55 56 56 57 57 56 55 54 52 50 50 50 54 55 53 54 50 50 51 57 58 59 61 63 65 66 57 49 62 61 59 58 53 49 51 49 48 49 55 58 56 56 56
53 56 58 59 58 57 57 55 53 50 53 55 56 52 53 55 51 45 47 57 57 58 60 62 54 59 47 48 62 61 58 57 58 57 57 53 53 51 50 59 58 57 57
53 54 56 58 58 58 56 54 53 52 53 52 52 52 52 54 56 46 44 55 57 58 60 62 63 46 46 47 53 61 59 57 54 57 56 56 56 58 58 58 58 59 57
54 52 53 55 56 57 52 53 51 51 49 49 48 49 51 54 48 49 44 45 50 56 58 62 61 46 47 46 52 49 46 52 56 55 54 56 55 56 57 59 58 58 60
52 52 52 54 54 55 53 50 48 48 50 49 49 50 51 53 54 46 45 48 45 51 57 58 48 46 43 48 46 45 48 57 56 57 56 57 56 57 57 58 57 58 60
51 51 52 53 52 53 53 52 51 50 48 49 49 49 50 52 54 54 55 55 47 49 49 49 49 51 49 49 50 52 58 57 57 57 56 55 57 57 55 55 55 56 56
50 51 52 52 51 53 54 53 52 53 52 51 51 52 52 52 54 52 52 56 57 53 53 54 57 57 56 56 57 57 56 56 56 55 55 55 55 55 55 55 55 55 54
47 49 49 50 49 50 51 50 42 45 45 45 46 49 54 48 45 43 43 43 45 45 56 58 58 58 57 57 57 57 55 54 56 55 55 56 55 55 56 55 55 55 54
46 47 49 49 49 49 49 48 48 45 43 44 42 42 40 46 42 42 41 42 42 45 58 58 58 58 56 56 56 57 55 55 56 56 55 56 57 58 56 58 57 55 56
47 45 48 48 49 50 50 50 50 48 49 49 43 43 41 40 40 41 40 43 49 49 59 58 57 56 55 55 55 54 55 56 56 55 56 58 58 58 57 57 57 57 56
47 47 47 49 50 50 51 49 50 50 50 49 50 44 43 40 40 40 42 57 57 58 57 57 56 56 56 56 56 55 56 56 56 55 56 58 56 56 54 56 54 45 50
49 46 46 48 50 51 51 51 51 51 50 52 52 51 47 45 47 49 54 59 58 58 57 56 56 57 57 57 56 55 54 54 55 55 56 55 55 57 54 53 53 52 52
48 49 47 51 51 52 53 53 52 52 53 53 52 49 41 53 53 57 58 58 58 58 57 56 57 57 57 56 56 56 55 55 55 58 58 58 58 57 57 57 57 56 55
50 50 50 50 53 53 54 56 56 55 55 53 52 49 39 58 58 58 57 58 58 58 58 58 57 57 58 57 56 56 56 58 58 59 58 58 58 57 57 57 55 54 53
53 53 54 52 53 51 55 57 56 55 55 55 55 54 58 58 57 57 57 57 57 57 57 57 56 55 56 56 56 56 56 58 59 59 59 58 57 56 56 54 53 54 53
57 58 58 58 58 57 56 56 56 51 56 57 57 57 56 56 54 53 52 53 54 54 55 56 56 55 54 54 55 55 56 57 58 59 58 55 50 49 52 52 51 50 47
58 58 58 57 56 56 56 56 56 55 54 54 53 52 51 50 48 48 49 49 50 50 50 51 52 52 51 51 50 49 41 40 51 45 54 54 52 51 50 50 48 47 46
56 56 55 55 55 54 54 53 53 52 51 51 50 48 47 46 46 48 48 48 47 46 47 48 46 45 45 44 43 39 39 40 46 43 55 54 51 50 49 46 43 42 40

GFSGL_sfc_temp_078.txt.gz
Temp
57 57 58 59 59 59 59 59 59 60 61 62 63 64 64 65 65 64 65 66 66 67 68 67 66 65 65 66 68 68 67 66 63 66 66 66 65 65 67 67 68 68 67
57 58 58 59 58 58 58 59 59 60 61 63 64 64 65 66 64 64 64 66 66 66 67 67 67 67 66 66 66 67 68 66 65 64 66 64 64 65 65 65 66 67 67
57 57 56 56 55 56 57 58 59 60 61 62 63 64 65 66 66 65 65 66 65 65 66 67 68 69 66 66 67 67 66 67 65 65 65 63 63 63 63 64 64 64 64
57 57 56 55 55 56 57 57 58 60 60 61 62 64 65 65 66 66 66 64 64 66 66 67 68 68 68 68 69 70 68 66 64 63 63 62 62 62 63 62 62 62 62
57 56 55 57 56 56 56 56 58 58 60 61 61 62 63 64 66 64 64 64 63 64 64 66 67 67 64 64 68 69 69 66 64 62 61 61 60 61 61 61 62 62 62
56 56 57 56 56 55 55 56 55 57 57 58 58 60 60 64 56 54 56 60 63 63 63 64 65 63 64 58 57 57 63 67 64 62 61 60 60 61 60 61 61 60 61
54 56 57 57 56 56 56 56 55 54 54 55 57 58 59 59 52 50 52 59 59 61 61 61 63 66 62 68 61 56 54 54 57 64 61 60 60 62 62 60 61 61 62
54 55 57 58 57 56 56 55 53 53 53 54 55 57 57 58 50 49 50 57 59 60 61 62 62 63 64 64 67 68 62 61 61 63 63 63 64 63 65 64 63 62 62
53 54 55 57 57 57 55 55 54 53 52 53 55 55 54 55 49 48 50 57 57 59 62 63 64 64 56 49 62 64 62 60 52 50 51 50 48 49 57 63 61 61 59
53 54 55 56 56 55 55 55 54 55 55 56 55 54 53 55 48 47 49 56 57 60 62 62 51 56 50 47 60 62 61 61 59 58 57 54 53 53 50 66 63 61 61
55 55 54 54 54 55 55 56 54 54 55 52 53 53 53 54 54 47 44 53 58 59 60 61 62 48 47 44 47 64 62 59 56 60 60 60 59 60 60 63 64 64 62
54 53 53 52 53 55 53 56 55 53 51 50 50 50 52 53 46 48 47 44 51 57 59 60 60 47 46 43 47 47 47 53 60 59 58 58 60 59 60 62 64 64 66
51 52 51 52 53 53 53 53 51 50 53 51 50 50 50 52 53 44 44 42 43 49 55 53 46 45 43 46 46 44 47 59 59 58 58 59 61 61 62 62 62 64 65
45 48 51 51 52 53 54 54 52 50 50 50 50 50 50 51 53 55 55 54 47 50 51 53 50 49 47 51 50 50 59 60 60 60 59 60 61 60 60 62 62 62 63
44 44 46 50 50 51 53 53 52 54 52 52 52 52 50 50 53 51 52 57 58 54 53 54 54 55 56 57 56 58 58 59 59 59 59 59 61 61 61 62 62 62 63
42 42 45 47 50 50 50 50 45 47 45 45 46 50 53 49 45 43 42 43 43 42 54 55 56 57 57 57 58 57 58 57 60 61 62 62 62 62 62 62 62 63 62
42 45 47 48 49 48 49 49 48 45 41 41 41 41 41 46 42 41 41 40 39 41 56 57 58 59 59 59 59 59 58 60 61 62 62 62 63 63 61 62 63 63 63
45 44 47 47 49 49 49 50 50 50 49 50 44 44 41 40 41 39 40 41 51 45 56 59 59 61 59 58 59 59 59 60 61 62 62 63 63 63 61 59 59 61 59
47 47 48 49 49 49 50 50 51 50 50 50 50 43 43 40 39 38 40 51 55 53 56 59 59 58 59 59 60 61 62 61 61 61 62 63 63 61 58 58 56 48 52
48 43 45 48 48 49 50 50 50 50 50 50 50 51 50 45 46 48 48 51 56 56 58 58 58 59 59 61 62 62 59 57 61 62 62 63 59 60 61 58 57 62 60
48 48 46 49 50 50 50 51 52 51 50 50 52 52 41 50 51 51 50 53 58 59 58 58 59 60 61 62 62 62 62 62 62 62 61 62 63 60 61 63 62 59 57
49 50 50 50 51 51 51 53 53 52 53 53 53 48 37 51 53 53 57 58 59 59 59 59 60 61 63 63 63 63 63 62 62 60 60 60 60 59 60 58 57 56 58
49 50 51 50 51 48 52 54 55 55 55 53 53 51 48 55 57 58 58 59 58 57 59 61 62 62 63 63 63 64 63 61 61 61 60 59 59 58 57 56 56 56 57
50 51 51 52 52 52 54 55 55 49 54 54 55 56 56 55 56 56 57 57 58 59 61 62 63 63 61 62 62 65 64 62 62 61 60 58 55 53 54 54 53 53 48
58 57 57 56 55 55 55 55 56 56 55 53 53 52 52 52 51 53 55 55 55 56 56 57 60 57 57 58 60 57 43 41 54 47 56 55 53 53 53 52 51 49 47
54 55 54 55 54 54 54 53 52 52 52 51 49 49 48 48 50 50 52 52 52 51 51 54 53 52 53 54 53 40 39 40 47 43 57 54 52 51 50 48 48 49 49

GFSGL_sfc_temp_084.txt.gz
Temp
77 78 78 78 79 80 79 80 80 80 80 81 82 81 81 80 80 77 77 77 75 75 75 74 74 74 73 78 81 82 81 80 73 77 71 70 71 75 81 81 77 78 73
76 75 74 76 78 78 78 79 80 79 80 81 81 81 82 81 80 79 79 81 79 78 78 79 79 81 78 78 81 77 79 79 75 70 68 69 72 76 77 74 75 81 83
74 77 74 74 75 76 77 78 79 80 80 81 81 81 81 81 80 81 81 81 81 80 80 79 79 79 77 79 79 79 79 78 77 75 69 69 73 76 74 74 74 75 80
72 73 72 75 75 73 77 78 79 80 80 80 81 82 82 82 82 82 81 80 80 80 79 79 79 79 77 77 77 77 77 78 78 76 73 70 70 72 68 68 69 75 75
68 70 70 71 73 75 75 76 78 79 80 81 80 81 81 82 83 81 80 78 77 77 78 78 78 74 66 68 77 77 76 76 79 79 73 71 67 66 65 72 74 77 74
68 63 69 70 72 72 73 74 73 76 78 80 80 81 79 83 56 61 72 77 77 76 75 76 77 70 68 60 59 58 64 72 73 76 74 71 71 70 72 73 72 70 71
68 67 66 67 69 71 72 72 73 73 76 76 78 79 77 78 54 54 56 77 75 74 74 74 76 81 71 78 64 57 55 52 56 72 71 72 73 76 76 71 71 72 75
67 68 68 62 63 63 69 69 68 71 70 73 75 76 76 76 52 50 52 75 74 74 74 74 73 74 75 75 76 76 77 78 75 67 68 71 74 77 76 74 72 72 74
61 66 68 67 64 59 57 60 65 66 67 70 73 74 74 75 51 48 57 74 75 73 75 75 75 75 62 50 73 73 74 75 64 52 52 49 50 51 59 68 69 68 69
56 58 65 68 68 67 68 65 62 66 68 72 71 74 68 74 49 47 57 77 73 74 74 74 58 65 56 43 70 71 70 73 76 74 64 57 59 60 51 70 72 70 70
52 58 56 57 60 67 68 69 68 67 68 68 70 72 73 71 66 46 47 74 76 75 76 76 79 47 44 43 45 67 67 65 63 65 65 66 65 65 67 72 74 74 73
45 46 50 54 59 63 65 67 67 67 66 67 68 70 73 73 57 47 45 50 60 72 72 76 74 43 43 43 49 50 43 47 61 63 64 62 63 64 67 72 73 75 77
43 43 44 47 52 57 58 62 66 66 68 67 68 69 71 74 73 49 45 45 46 65 73 66 45 44 44 50 45 42 42 59 63 63 64 64 67 72 70 71 73 74 74
41 42 43 45 46 48 53 58 60 65 66 68 69 70 71 73 73 72 66 62 46 54 58 65 62 53 44 52 57 64 65 64 65 66 65 66 67 67 68 71 69 70 70
42 42 42 43 45 47 48 49 58 64 67 68 70 72 71 71 73 65 66 70 72 66 65 70 70 70 70 73 72 69 66 65 65 66 65 65 66 69 70 72 70 69 68
41 40 42 42 44 45 48 49 48 49 48 47 46 59 73 58 50 49 49 48 42 42 65 69 70 71 72 74 71 64 62 60 65 65 67 67 68 69 69 68 71 68 66
41 41 42 43 45 44 46 46 48 49 44 44 45 46 48 49 45 45 46 41 39 44 65 68 69 72 73 73 70 63 61 64 66 70 72 68 70 71 69 71 68 69 67
45 42 45 44 46 47 46 48 48 50 56 58 44 49 44 39 40 40 39 42 51 47 65 67 70 73 74 73 68 67 61 64 68 70 70 73 69 73 72 70 69 68 70
47 49 50 49 49 49 49 51 49 49 52 57 61 45 44 39 39 39 40 62 63 65 65 68 72 74 75 73 71 63 64 64 66 70 72 69 71 73 69 70 71 57 64
57 43 45 48 48 48 47 47 47 48 50 53 55 59 60 48 50 50 53 60 65 69 71 71 73 73 74 73 65 64 67 64 71 71 69 70 71 71 73 75 75 74 75
58 56 45 51 51 51 52 52 52 52 53 54 54 55 45 59 61 62 62 63 65 68 70 71 74 74 73 70 64 68 72 72 73 68 68 68 70 72 75 72 71 74 74
56 56 56 56 54 53 54 54 54 56 58 60 59 54 38 61 65 67 67 67 69 71 73 74 74 71 69 64 68 71 69 69 73 68 69 71 76 74 74 74 75 71 69
61 60 59 58 58 51 58 59 59 59 58 60 59 58 57 57 61 68 70 70 70 71 75 76 70 64 63 65 73 73 71 74 74 71 73 74 76 74 74 72 71 67 69
57 60 59 61 63 63 62 63 62 52 60 63 61 58 57 58 58 66 72 72 73 72 72 69 64 63 64 66 69 70 74 76 77 76 77 77 75 70 73 72 68 63 60
50 54 59 61 61 64 61 57 55 55 55 55 55 57 62 61 60 65 69 69 69 67 62 61 61 63 65 70 73 75 53 43 72 61 79 76 73 70 70 65 61 60 60
45 48 50 52 53 56 55 55 55 53 52 51 51 55 56 57 62 65 62 63 60 59 62 62 64 62 68 72 73 48 41 42 60 47 71 66 64 65 63 61 60 61 60

GFSGL_sfc_temp_087.txt.gz
Temp
79 79 79 81 82 76 71 69 73 78 84 86 85 84 84 84 83 80 80 81 79 76 77 77 76 77 78 77 74 72 69 68 66 73 79 81 77 76 73 76 80 79 79
79 77 78 77 80 79 75 66 71 81 82 84 84 84 84 84 83 81 80 82 78 75 76 76 77 79 76 74 73 71 70 77 74 70 75 78 76 76 73 74 77 80 79
77 76 71 75 75 75 79 80 81 81 80 82 84 83 83 83 82 82 82 81 79 78 78 77 78 78 76 79 78 79 80 79 79 77 75 79 78 76 72 71 76 77 77
77 75 73 70 75 74 76 77 80 81 80 81 82 83 84 84 84 83 82 81 77 79 81 81 80 80 78 78 77 77 77 77 77 77 77 78 79 77 75 73 74 77 74
74 73 72 73 73 74 77 78 79 77 79 81 81 82 82 83 84 81 82 80 79 79 79 80 79 75 66 67 76 76 76 75 76 77 77 79 77 74 72 74 74 72 73
71 71 73 73 73 73 73 72 77 78 79 79 77 80 80 84 62 62 75 79 78 77 77 78 79 71 70 61 60 59 64 70 70 71 74 74 74 75 73 75 71 68 62
65 70 71 72 70 70 72 73 74 75 77 77 77 79 78 78 55 57 64 79 77 76 76 76 77 82 73 79 62 58 57 55 58 70 70 72 72 75 74 71 71 70 65
56 61 67 71 72 67 63 64 70 71 71 72 77 78 75 75 53 55 59 78 76 76 76 76 75 75 75 75 77 76 76 77 73 69 70 72 74 75 73 72 72 71 68
52 56 59 64 66 70 64 58 65 70 69 69 73 76 76 74 50 51 61 75 76 75 76 77 76 76 62 53 74 72 73 75 71 56 52 50 50 49 54 65 69 62 62
47 49 55 58 60 57 65 62 59 67 69 71 68 71 71 75 48 49 61 78 74 75 75 75 59 68 56 46 71 72 70 72 74 75 73 66 57 62 52 66 68 63 62
49 51 50 51 57 57 56 63 64 58 62 65 65 67 69 71 61 48 50 76 78 76 77 77 79 50 47 43 47 71 68 65 65 70 69 66 65 69 70 66 66 65 66
46 46 47 50 51 54 55 57 61 63 56 56 60 61 68 71 59 47 49 50 62 76 77 79 73 43 43 43 50 54 44 47 70 66 64 63 66 68 67 69 72 70 72
43 43 44 46 49 49 49 55 61 61 63 58 57 61 68 68 73 51 47 49 49 68 77 64 45 43 44 47 42 41 41 68 71 64 63 65 70 71 69 71 70 72 74
42 41 42 42 44 47 46 51 59 63 64 64 66 67 68 72 74 70 65 61 48 58 61 69 64 57 45 51 57 62 70 73 71 65 64 69 71 70 67 71 70 68 69
43 43 43 42 43 43 45 47 51 62 63 65 67 68 68 68 70 67 65 68 68 65 65 70 70 71 70 72 73 72 75 75 70 64 65 69 67 68 69 70 67 68 68
43 42 41 42 42 43 44 46 44 44 43 43 47 56 68 62 54 51 52 52 52 50 65 69 70 72 73 74 74 75 75 67 69 65 68 68 68 70 69 69 68 68 66
44 42 42 43 43 43 44 45 44 47 44 45 43 48 46 44 46 48 45 42 42 48 68 69 70 72 73 75 76 77 74 73 68 68 68 68 71 71 65 68 68 67 67
48 42 43 44 44 45 46 47 47 48 48 50 47 48 46 45 42 44 41 48 57 56 69 69 70 72 74 75 76 77 74 72 65 65 65 68 69 72 70 68 69 70 67
51 48 46 45 46 46 46 46 52 49 49 50 56 48 43 40 38 38 41 70 68 67 67 68 71 73 74 76 77 77 74 71 65 66 69 69 70 70 69 69 68 57 59
55 44 47 49 50 49 47 48 48 48 48 49 49 53 59 54 59 60 62 67 69 69 70 68 70 73 75 77 78 76 74 66 65 69 70 68 67 69 68 67 72 73 64
54 54 45 50 49 48 49 52 53 52 49 49 48 53 51 61 62 63 64 65 67 69 71 72 74 75 76 77 77 74 69 66 69 70 68 67 68 70 69 66 70 67 68
57 58 55 54 53 52 50 50 48 48 48 48 51 56 39 60 65 65 66 66 68 70 73 74 76 78 79 78 76 70 66 67 70 69 69 68 71 70 68 76 73 68 65
56 59 59 58 58 51 55 55 55 55 54 53 56 55 57 61 63 67 68 69 70 71 73 74 73 72 76 77 74 69 70 70 71 73 70 68 68 69 72 70 69 67 70
55 56 56 59 59 59 61 58 57 51 58 60 61 64 62 62 64 68 71 72 70 72 74 74 70 75 75 73 70 71 72 72 71 71 70 68 71 71 70 70 67 70 69
44 48 50 53 56 55 56 55 55 56 57 61 60 60 58 62 64 67 65 63 65 69 73 71 75 73 72 72 71 72 61 44 65 59 72 72 69 67 65 68 70 67 64
40 41 43 45 48 50 52 53 53 52 52 53 57 61 61 60 63 67 66 65 73 73 74 71 71 70 71 70 70 54 39 40 54 44 70 71 72 72 72 69 67 67 65

GFSGL_sfc_temp_093.txt.gz
Temp
63 63 62 62 63 61 59 61 64 62 58 59 62 62 62 62 63 60 60 62 61 60 67 67 65 66 66 65 65 64 63 63 61 62 63 64 65 66 67 68 68 68 68
61 62 62 61 61 60 60 60 60 59 58 59 61 62 63 63 62 60 60 61 60 60 66 67 67 67 65 65 64 64 64 64 62 61 61 62 64 65 65 65 67 71 69
58 58 58 59 60 61 59 60 59 59 57 58 61 61 62 63 62 61 62 61 60 62 67 69 67 67 65 65 64 63 63 64 62 61 61 62 63 62 63 64 65 65 67
57 56 55 56 57 59 60 59 59 60 58 57 58 62 62 62 63 62 63 62 61 63 69 70 67 66 64 64 65 64 63 62 61 59 59 59 60 61 61 61 62 62 63
54 53 53 55 56 57 58 57 57 60 62 63 62 60 61 61 63 62 62 62 63 66 68 68 66 65 64 63 63 61 61 59 58 56 54 53 55 54 57 60 60 61 62
51 50 52 52 53 54 56 57 56 56 59 62 60 62 59 62 59 54 62 62 63 68 63 65 64 62 60 59 60 59 61 59 56 55 54 52 54 54 56 58 59 58 56
50 50 51 51 51 52 55 55 57 54 54 59 59 60 58 58 54 50 53 64 68 61 62 63 65 70 64 65 59 57 56 55 58 56 54 54 54 57 59 58 58 59 58
48 49 49 48 49 51 52 51 53 54 52 55 58 59 58 58 52 51 53 64 61 63 66 65 64 63 63 64 62 61 61 61 58 58 56 58 58 59 59 60 60 60 60
45 46 48 48 48 49 49 49 49 50 51 53 58 59 57 56 51 50 60 61 61 62 65 65 63 62 54 54 63 61 59 60 60 56 54 51 49 48 51 59 59 59 56
44 45 47 47 46 45 46 47 49 51 51 52 56 56 56 56 52 48 60 61 60 62 61 62 57 60 49 51 59 58 57 57 59 58 57 53 48 54 49 58 61 60 57
45 46 46 46 45 45 45 47 49 49 52 50 54 56 58 58 55 48 48 61 64 62 63 59 60 52 48 44 52 57 56 56 56 55 54 54 55 58 60 59 61 62 57
44 44 45 45 45 46 44 44 45 48 50 50 48 53 58 58 51 49 49 47 58 63 60 59 59 49 46 41 45 49 47 47 53 53 52 53 54 57 63 64 61 62 62
44 44 45 45 45 45 42 42 43 45 48 49 51 52 52 57 55 47 49 49 48 57 59 55 42 41 41 42 44 43 43 52 51 51 51 53 56 61 62 62 62 63 62
44 45 46 46 44 44 43 43 42 44 45 48 50 51 56 56 55 56 56 50 50 51 49 49 48 48 49 50 47 45 51 51 51 51 53 55 59 62 60 61 60 60 59
45 46 45 44 43 43 43 43 43 45 46 46 48 47 47 52 55 54 54 55 52 53 52 52 51 53 54 54 54 55 53 53 52 53 55 57 58 60 60 61 60 60 59
43 46 43 42 42 43 42 42 41 42 41 42 42 45 48 44 45 46 48 46 48 46 54 53 53 54 54 54 55 55 55 54 54 55 57 58 58 60 59 59 61 59 59
43 46 43 43 43 42 43 41 41 41 41 40 42 42 41 42 42 45 45 45 45 46 52 53 53 54 55 55 56 55 55 56 57 58 58 58 60 62 58 59 60 59 59
45 45 43 43 43 43 43 43 43 43 41 43 42 45 43 43 43 43 43 45 47 49 53 53 54 55 56 56 56 55 56 56 57 57 58 59 60 60 60 60 59 58 59
47 48 47 45 44 44 44 44 45 45 45 43 46 43 42 39 40 41 43 57 54 53 54 54 55 55 56 56 56 56 57 56 57 58 58 59 60 60 58 59 58 50 54
46 45 45 47 46 45 45 45 44 45 45 45 46 47 47 43 48 44 48 54 54 56 57 58 55 56 56 56 56 56 56 55 56 58 58 58 59 60 59 59 59 58 59
46 50 45 48 48 47 46 46 46 45 45 46 48 48 40 48 49 49 49 51 56 59 59 57 56 56 56 56 56 56 56 57 57 58 58 59 59 59 59 59 60 59 57
45 46 49 50 50 49 48 48 47 47 47 47 48 46 37 47 52 54 55 54 55 57 57 57 56 57 57 57 57 56 55 58 58 59 59 59 60 59 58 60 59 58 57
41 42 44 45 46 45 49 49 48 48 48 47 48 45 44 45 47 49 54 58 57 56 56 56 56 56 57 58 58 58 58 59 60 60 60 59 59 58 59 59 59 58 57
37 38 40 41 42 43 47 50 50 45 45 45 49 47 46 46 48 50 51 53 55 55 55 55 56 57 57 58 58 61 61 62 62 62 62 60 59 57 60 59 58 58 57
34 35 36 37 38 39 41 44 49 50 49 49 48 47 47 48 49 52 52 54 52 53 54 55 55 56 58 58 59 61 54 43 56 49 61 61 59 60 60 60 58 58 56
33 33 34 34 35 36 37 38 40 43 49 50 49 49 51 49 50 52 53 52 56 55 54 54 55 57 58 59 61 52 40 39 49 43 59 60 60 60 60 59 58 59 58

GFSGL_sfc_temp_096.txt.gz
Temp
55 55 56 57 58 57 56 57 57 58 59 58 60 60 62 63 62 60 60 61 60 60 61 60 61 61 60 62 64 62 61 60 59 59 61 62 64 64 65 66 66 65 65
53 55 55 56 56 56 56 55 55 57 59 58 59 60 61 63 61 59 59 61 58 58 60 60 60 61 62 64 63 62 63 62 61 59 60 60 63 64 63 62 64 68 66
55 55 54 54 54 54 55 56 54 55 57 58 58 58 60 61 62 61 60 60 59 60 61 61 61 62 61 63 64 63 62 63 62 61 60 60 61 60 61 61 62 63 66
55 54 52 52 52 53 54 54 53 55 56 57 58 58 60 61 62 62 61 60 60 62 62 62 62 62 62 64 65 63 62 62 60 60 58 57 57 58 58 58 58 60 62
50 49 49 50 51 51 51 52 52 53 55 56 58 60 58 60 61 61 60 59 58 58 61 64 64 65 65 64 64 61 61 59 58 56 53 52 53 52 53 56 57 58 59
47 48 49 50 50 50 50 50 51 53 52 52 54 57 58 60 53 52 54 58 61 61 61 63 66 62 60 58 58 58 61 58 56 54 52 51 52 53 53 56 57 56 55
47 47 48 49 50 50 49 49 49 51 50 50 51 55 57 59 50 49 51 56 57 58 60 62 62 65 61 63 56 56 55 55 57 56 52 51 53 54 56 56 56 57 57
45 46 47 47 48 49 48 48 47 48 47 48 50 53 56 59 50 47 49 53 55 57 61 60 59 58 60 62 60 59 58 57 56 57 57 56 57 57 57 58 57 58 58
44 45 47 47 47 46 46 46 47 47 46 44 48 50 53 57 49 48 51 56 56 58 60 60 60 60 51 52 61 59 58 58 56 53 52 51 48 49 53 56 55 57 57
43 45 46 46 46 45 46 46 47 46 47 48 48 50 53 55 48 48 49 55 55 58 58 58 53 58 48 50 58 57 55 55 56 55 54 51 47 50 48 57 58 58 58
44 44 45 45 45 46 45 45 45 44 45 47 50 48 51 54 54 46 45 53 56 57 58 58 60 48 47 48 51 56 54 55 53 54 53 52 53 54 55 56 59 62 59
43 43 44 45 46 47 45 45 44 44 43 45 46 46 50 56 49 45 45 46 53 57 61 63 57 46 44 43 49 42 42 49 53 51 50 50 51 52 55 62 62 62 63
42 41 43 46 46 47 45 44 42 42 42 44 47 47 49 56 54 46 45 46 48 57 63 58 47 43 41 42 42 41 44 52 51 49 49 49 51 54 58 60 59 60 60
40 42 44 44 44 44 44 44 43 42 42 44 47 50 48 53 55 52 51 51 49 51 49 47 47 47 47 46 46 44 50 50 50 49 49 51 53 56 57 58 58 58 57
40 41 42 44 43 42 44 44 43 44 43 44 47 49 48 49 45 44 51 52 52 51 51 52 52 50 50 51 51 51 50 50 50 50 51 53 55 55 57 58 58 58 57
38 40 42 43 43 43 42 42 41 41 41 41 42 46 49 45 40 41 43 45 45 47 53 53 49 51 51 51 53 53 52 52 52 51 52 53 55 55 57 57 58 57 57
39 41 44 43 43 42 42 41 40 42 40 40 40 42 42 42 40 42 40 41 42 48 51 50 51 51 52 53 53 53 53 53 54 53 54 55 56 57 55 57 58 58 57
41 42 45 44 43 43 43 43 42 42 41 41 42 41 42 41 40 40 41 42 45 48 50 51 52 53 53 54 53 53 53 53 54 54 54 56 56 57 58 58 58 57 58
40 42 44 47 45 44 44 44 44 44 44 43 44 42 43 41 40 40 39 52 55 50 51 51 53 53 53 53 53 53 54 53 53 54 55 56 57 57 57 57 56 49 53
40 42 43 47 47 46 45 44 44 44 44 44 41 45 46 45 42 43 45 52 51 55 54 52 52 53 53 53 53 53 54 52 53 53 55 56 57 57 57 57 57 58 58
40 42 41 46 46 48 46 45 45 45 45 45 44 45 40 45 47 48 48 50 54 53 52 53 52 53 53 53 54 54 52 52 53 53 55 57 57 57 58 57 58 57 56
39 40 41 42 43 43 46 47 47 46 46 47 48 44 37 48 50 50 52 50 52 54 53 54 53 54 54 55 56 53 53 53 54 55 56 57 58 57 57 58 57 56 54
37 37 38 39 40 40 43 48 48 47 46 47 48 46 44 47 48 48 51 51 52 53 53 53 53 53 54 55 54 55 55 55 55 57 57 57 57 57 57 57 57 55 55
35 35 36 36 37 38 39 41 48 44 43 45 47 45 46 47 45 47 50 50 54 54 52 52 53 55 55 54 54 56 58 58 58 59 60 58 57 55 57 57 58 57 55
33 33 33 34 34 34 36 37 39 42 48 47 44 45 47 45 45 47 48 51 49 51 52 52 53 55 56 56 56 57 51 41 53 49 60 59 58 58 58 58 57 56 55
33 32 32 32 32 33 33 34 36 37 39 43 48 44 44 45 45 46 47 48 49 50 51 51 52 55 56 55 56 49 39 38 45 38 57 58 58 59 59 58 57 56 54

GFSGL_sfc_temp_102.txt.gz
Temp
51 50 50 51 51 52 50 49 50 50 52 53 54 55 56 57 58 58 59 60 61 61 63 64 65 66 63 63 63 62 61 61 58 60 61 63 63 64 68 70 70 70 71
50 50 50 49 50 50 50 51 50 49 51 51 52 53 55 55 56 57 58 60 60 60 61 62 62 64 64 64 62 62 61 61 62 60 61 62 63 66 68 67 68 72 72
50 50 48 48 48 48 49 50 50 50 50 51 52 51 52 53 53 56 58 59 59 60 61 61 61 61 61 62 63 61 60 61 60 60 60 62 63 66 65 65 65 68 68
48 47 46 46 47 47 48 48 48 50 50 50 51 51 51 52 53 55 57 58 59 61 61 61 62 61 61 61 62 61 61 59 60 59 60 61 63 63 64 63 62 64 65
46 46 45 46 47 48 47 48 48 49 50 52 50 50 50 51 55 55 56 57 58 59 60 62 62 61 61 61 63 61 61 59 60 60 59 60 58 56 59 60 62 62 63
44 44 46 47 48 48 48 47 47 47 48 49 48 48 48 52 50 50 51 51 56 58 58 60 61 60 59 57 56 57 61 61 59 58 57 58 55 57 57 59 60 61 61
45 46 47 48 47 48 48 47 47 46 47 47 47 47 47 48 47 46 48 50 53 56 57 57 58 61 58 62 56 54 55 54 58 61 57 57 54 55 59 60 60 61 61
45 45 47 47 46 47 46 45 45 46 46 47 47 47 47 48 47 45 47 50 52 56 57 57 57 58 59 59 59 58 59 59 58 60 60 57 58 58 62 63 62 61 62
43 44 45 46 45 45 44 45 46 47 47 47 48 47 46 46 46 44 45 48 50 54 57 58 58 59 51 47 57 57 55 52 50 51 50 47 47 49 56 62 59 59 58
43 43 45 45 44 44 44 45 46 47 46 48 47 48 47 46 45 44 45 48 49 52 56 57 50 52 45 47 54 55 54 54 56 55 53 51 52 52 50 61 60 58 58
43 43 43 44 43 43 44 46 45 45 46 45 45 46 46 46 47 44 44 48 50 53 55 57 56 47 46 45 44 56 56 58 54 58 57 56 55 55 56 58 60 61 60
42 42 42 43 43 44 43 44 45 45 43 44 43 44 46 47 46 45 43 42 48 53 55 57 54 47 44 43 46 43 45 52 58 57 57 55 56 57 57 57 58 61 65
40 40 41 42 42 43 43 43 44 44 43 43 43 43 44 46 48 45 43 42 43 52 57 53 48 45 42 44 41 43 49 58 57 56 55 55 57 59 60 62 59 61 61
39 39 40 40 41 43 44 45 44 43 42 42 42 42 43 45 47 48 49 47 46 52 50 51 49 45 42 46 49 54 58 58 58 56 55 55 56 59 61 62 60 59 58
38 39 39 40 41 42 44 45 44 44 43 41 42 42 41 43 45 42 45 52 54 52 50 52 53 53 54 55 55 55 55 56 57 55 56 57 58 59 60 61 60 59 59
37 38 38 39 41 41 43 44 43 41 41 40 39 40 43 42 39 41 40 43 43 44 52 54 54 55 54 56 56 55 56 55 57 56 57 58 59 60 60 59 59 59 58
36 37 38 39 40 41 43 44 43 45 43 41 39 37 38 38 40 41 39 41 41 46 56 55 54 56 55 57 57 58 58 59 58 60 59 59 60 59 60 60 61 60 57
38 39 39 39 40 41 43 45 45 43 43 45 42 39 39 39 39 39 39 44 50 51 55 55 54 55 56 58 58 59 58 59 60 60 60 60 61 61 61 61 59 60 58
38 38 38 39 40 41 42 43 45 44 44 45 47 43 43 41 40 40 42 52 52 51 53 54 57 57 58 58 58 60 60 60 60 60 60 61 61 62 61 61 60 50 52
37 37 37 38 38 39 40 41 43 45 45 45 45 45 46 46 46 46 48 52 54 54 55 55 56 57 59 59 59 60 60 59 59 59 59 61 61 62 62 61 61 58 58
36 37 36 37 37 37 38 40 44 46 45 46 45 44 38 48 46 47 48 50 54 56 56 55 56 59 60 59 60 60 60 59 59 59 61 61 61 62 62 62 61 60 59
36 35 35 35 35 35 36 39 41 43 46 45 46 43 36 50 48 48 49 52 55 57 58 58 60 61 61 61 61 61 61 61 60 60 61 62 62 62 61 61 59 56 52
34 34 33 34 34 34 35 36 38 39 44 47 47 48 48 49 49 49 50 52 55 55 58 57 58 59 61 60 61 62 63 62 61 62 62 62 62 60 60 59 57 54 52
33 32 32 32 32 32 33 33 35 36 38 41 43 46 48 49 50 50 51 53 52 56 56 56 57 60 59 59 60 62 63 63 64 64 63 63 60 55 60 58 57 56 52
32 31 30 30 30 30 31 32 32 34 36 37 38 40 43 46 49 51 52 53 54 54 55 56 57 58 60 60 61 61 52 36 56 44 63 62 60 59 60 58 57 53 50
30 30 29 29 29 29 29 30 30 31 32 34 36 36 39 41 45 47 50 52 53 54 55 56 56 57 58 59 60 50 41 38 48 35 56 59 60 60 59 57 55 52 50

GFSGL_sfc_temp_105.txt.gz
Temp
63 62 61 61 61 60 60 60 59 59 59 59 60 60 60 60 60 60 61 63 63 65 67 68 68 70 72 74 71 69 64 65 64 73 80 77 70 69 71 75 76 74 70
61 60 60 59 59 58 58 58 58 57 58 58 58 58 59 59 59 58 58 60 61 63 65 66 67 70 69 70 71 66 66 63 62 61 72 75 69 70 70 71 71 71 76
59 59 58 57 57 56 56 57 57 57 57 58 58 58 58 58 58 57 57 58 59 61 64 65 66 67 67 69 69 68 66 63 62 61 63 71 73 71 70 68 70 72 77
57 56 55 55 55 55 55 56 56 57 57 57 58 59 59 59 59 59 58 58 59 61 62 64 65 66 66 67 68 68 67 62 62 60 60 63 69 70 71 69 69 72 75
55 53 53 54 55 55 55 54 55 56 56 57 57 58 58 58 60 59 58 56 56 55 57 61 64 65 63 64 68 67 64 61 60 58 58 61 62 65 65 69 68 70 71
53 52 52 52 52 52 52 53 55 55 56 56 55 55 55 58 52 49 51 55 54 55 56 59 61 62 63 56 56 57 62 61 60 59 59 58 61 67 70 65 68 66 62
52 53 53 51 50 51 52 54 54 53 52 51 53 55 52 52 49 47 48 54 52 50 53 57 60 63 61 65 58 54 55 54 55 61 59 59 60 67 68 62 65 64 67
49 51 49 49 49 51 52 51 50 51 52 53 53 51 50 51 48 46 46 52 53 51 55 55 58 59 64 60 59 58 59 59 59 59 60 61 63 61 62 63 62 62 68
47 48 47 48 48 50 48 48 50 52 53 52 53 50 49 49 47 45 45 50 51 50 54 54 56 61 54 48 55 57 59 60 51 52 52 51 49 50 58 62 62 64 66
45 45 46 47 47 46 47 49 51 52 51 52 50 53 49 47 46 43 44 50 47 49 51 53 53 53 47 45 58 57 56 56 58 53 53 49 50 52 53 64 69 68 68
44 44 45 46 46 46 49 51 49 47 46 48 50 50 47 47 48 43 43 47 46 49 49 57 59 47 44 43 45 55 56 54 52 55 55 56 57 59 62 68 71 70 70
42 42 43 45 47 50 47 46 46 45 44 45 46 46 51 49 46 45 43 42 48 47 53 56 56 44 43 42 48 44 44 52 57 56 56 57 58 62 63 66 67 71 74
41 41 42 45 47 48 46 43 43 44 44 44 44 47 46 45 45 45 42 42 43 47 52 50 44 42 43 46 43 43 46 62 64 64 62 61 63 65 66 64 66 68 68
39 40 42 42 44 48 46 44 43 44 44 44 44 45 44 44 45 47 47 49 46 48 48 52 49 47 44 49 53 57 60 67 67 63 62 63 63 64 65 64 61 61 60
39 39 40 42 43 45 44 43 44 47 47 45 45 46 43 42 44 42 41 48 54 50 53 55 54 58 61 60 64 67 67 67 62 62 64 66 67 68 64 62 61 62 61
37 38 38 40 40 41 41 42 44 42 42 40 39 41 44 42 40 40 40 39 42 43 56 58 61 64 63 64 66 64 65 60 65 66 67 68 68 69 63 62 63 62 60
37 37 39 40 40 39 40 41 42 47 44 42 41 40 38 38 39 39 39 39 39 45 58 63 66 68 67 66 66 66 66 66 67 69 70 70 71 69 62 61 61 60 58
38 38 38 38 38 39 40 41 42 44 46 53 47 41 40 39 40 40 39 42 48 51 63 66 67 69 66 66 67 66 67 69 70 70 70 71 71 70 66 63 61 62 58
38 39 38 37 38 39 40 41 42 44 48 48 55 50 47 42 41 41 44 53 54 60 65 67 69 69 66 67 70 70 70 70 70 71 71 72 72 72 70 69 63 53 54
37 36 36 36 37 37 38 39 42 43 47 49 51 54 54 49 48 49 51 56 64 66 66 67 69 70 71 72 72 73 72 70 71 71 71 72 72 74 72 71 63 60 61
36 36 35 36 35 36 36 38 39 40 46 49 53 50 34 54 49 49 53 61 63 65 66 64 68 71 73 73 73 73 72 71 71 71 73 72 72 73 73 72 70 62 62
35 34 34 35 34 34 35 37 38 38 42 46 47 47 37 54 52 53 53 57 65 67 65 65 63 70 73 74 73 72 72 72 71 72 72 72 73 73 71 68 62 59 56
39 35 33 33 33 33 34 35 36 35 38 40 44 48 52 51 49 51 53 61 62 63 61 61 68 74 75 73 74 75 73 72 72 74 72 71 71 70 64 60 63 60 58
37 36 33 32 32 31 32 33 34 35 36 39 39 41 44 50 50 50 54 53 60 64 60 66 69 72 71 72 72 75 73 73 74 74 73 71 69 62 63 62 61 58 55
35 35 33 32 30 29 30 31 32 33 34 35 36 37 39 42 47 48 53 57 61 59 60 62 65 64 67 68 71 71 49 35 60 45 73 71 69 64 62 60 57 53 50
33 33 33 32 32 30 29 29 31 31 32 33 34 35 36 37 40 43 46 50 52 60 64 66 66 64 65 68 69 52 41 35 52 35 69 70 70 68 62 58 55 53 49

GFSGL_sfc_temp_108.txt.gz
Temp
71 71 70 70 69 69 68 68 67 67 66 66 66 66 66 66 66 65 64 65 65 65 67 68 69 71 73 77 79 77 76 78 74 76 80 82 80 80 81 81 80 81 83
71 70 69 68 68 67 67 66 66 65 66 66 65 65 66 66 66 65 64 64 63 62 64 65 66 72 70 71 73 72 75 76 75 69 74 76 76 79 79 77 78 82 84
70 69 67 67 66 65 65 65 65 64 64 65 65 64 65 66 65 65 65 64 63 63 62 62 64 65 67 70 69 71 73 75 74 73 71 76 76 78 77 76 75 76 80
68 67 65 64 64 64 64 63 64 64 64 64 64 65 65 66 66 65 64 63 62 63 59 57 59 62 64 66 68 67 68 69 72 71 70 72 74 75 72 67 71 77 75
65 64 63 63 63 63 62 62 62 62 63 64 64 64 64 62 63 61 58 59 58 57 58 59 59 59 59 59 63 64 66 67 70 72 69 70 64 69 69 70 71 75 69
62 62 63 63 62 60 60 60 61 62 63 62 60 60 60 58 52 51 53 54 54 54 54 56 58 57 59 57 56 57 61 65 65 68 65 62 63 66 66 68 68 65 63
59 60 61 61 59 58 59 60 61 59 59 58 56 53 53 56 51 48 49 57 55 52 53 53 58 61 58 64 61 56 54 53 55 65 60 63 66 67 67 66 68 65 69
56 57 58 58 56 56 55 59 58 58 57 55 52 58 58 57 49 47 47 52 52 51 51 52 56 58 59 60 65 65 67 66 66 64 65 63 66 71 70 70 70 68 73
52 53 54 53 51 53 55 57 57 57 54 54 56 55 52 52 49 45 46 49 50 48 51 55 57 58 55 48 60 62 62 60 58 51 53 54 53 51 59 68 65 65 65
49 50 48 47 49 50 53 55 57 52 53 52 52 50 49 52 49 45 47 52 46 48 52 56 51 54 50 46 57 60 57 63 64 58 55 53 53 60 52 64 63 62 61
48 46 45 46 48 50 52 55 52 52 49 48 49 49 49 54 52 44 44 46 47 49 52 54 61 48 45 44 43 56 61 62 56 58 60 57 57 57 58 62 64 63 60
44 43 44 45 49 52 51 50 51 49 47 46 47 48 53 54 48 45 43 42 44 47 49 54 55 44 42 42 43 46 44 48 57 57 56 56 57 57 60 62 62 63 63
43 42 43 47 49 50 48 49 50 48 46 46 47 51 53 55 49 45 43 42 44 46 53 53 44 43 45 48 42 43 45 57 56 56 56 57 57 59 61 61 63 67 70
41 41 42 44 46 48 49 50 47 46 45 45 49 54 52 52 46 48 51 49 48 47 48 50 47 47 44 49 51 51 58 57 56 56 56 58 60 61 61 64 64 66 64
40 40 41 42 44 45 45 46 45 48 45 44 51 55 56 47 47 45 43 44 43 49 53 57 59 62 65 64 62 62 64 64 62 62 61 62 64 65 65 64 64 64 61
39 39 40 41 42 42 42 44 44 42 41 41 40 44 52 44 41 40 40 39 38 42 53 60 63 62 67 68 67 66 69 66 67 66 66 66 66 64 62 63 64 64 61
38 39 40 39 39 40 40 40 40 46 44 43 42 41 40 41 39 39 39 38 39 44 60 65 66 67 69 72 70 68 69 70 69 68 68 69 69 65 60 59 60 62 62
39 39 39 39 38 39 40 40 40 42 43 51 52 44 43 40 40 39 39 43 57 54 67 67 71 72 74 73 72 72 70 70 71 71 71 72 67 65 62 62 63 65 63
38 38 38 38 38 38 39 40 42 42 44 48 57 50 48 45 42 41 40 54 60 65 66 71 75 75 74 73 72 74 73 73 73 75 75 76 72 70 67 65 62 53 55
38 35 35 38 36 36 38 38 39 40 43 53 55 56 60 48 51 53 61 57 56 65 70 75 75 75 76 75 75 77 75 73 74 76 76 76 77 78 73 69 66 61 63
41 36 34 37 35 36 37 37 38 39 40 42 47 49 35 46 51 51 55 57 57 65 72 75 78 78 79 79 79 78 77 77 77 77 78 77 77 77 78 73 70 65 64
44 37 33 35 34 35 36 36 36 37 38 39 44 47 39 51 51 53 55 59 66 71 75 76 77 78 79 79 79 78 78 77 77 78 77 78 76 72 71 74 68 60 58
44 43 36 34 33 33 34 35 36 36 38 40 43 43 44 46 54 55 60 67 71 71 73 75 78 78 79 78 79 80 78 77 78 78 76 76 75 73 65 64 64 61 60
46 43 40 35 33 32 32 33 35 35 37 37 39 40 41 41 43 46 58 62 69 70 70 71 73 76 76 77 79 79 76 73 79 78 77 75 73 71 64 63 69 67 63
45 43 40 38 35 33 31 32 32 33 35 35 36 37 40 38 44 44 46 48 61 68 63 62 72 71 74 74 77 72 46 36 62 44 79 77 75 72 69 61 60 58 56
43 41 39 37 36 35 35 33 33 32 32 33 34 36 37 38 40 43 46 45 52 60 58 62 70 67 72 73 66 42 36 35 54 35 70 76 75 74 65 57 53 52 53

GFSGL_sfc_temp_111.txt.gz
Temp
77 76 74 74 74 73 72 71 71 70 70 69 69 69 69 68 68 66 65 66 66 66 67 66 66 67 69 72 73 73 74 75 69 73 79 80 77 78 80 82 83 82 82
77 75 73 73 72 71 71 70 70 69 69 69 69 68 69 67 66 66 65 67 66 65 65 65 64 67 64 66 69 68 70 71 68 64 73 73 75 76 76 76 79 83 83
75 74 72 71 70 69 69 69 69 68 68 68 68 67 67 67 67 67 67 67 67 67 66 65 64 62 61 63 64 66 69 69 68 69 70 76 76 78 77 76 75 75 80
73 72 70 69 69 68 67 67 67 68 67 67 67 68 68 68 68 68 67 64 62 63 63 63 61 60 58 60 60 61 65 66 67 65 67 67 69 74 76 73 72 73 73
69 68 67 68 68 68 67 66 65 64 65 66 67 67 67 64 66 63 63 61 60 58 58 60 60 59 59 58 59 59 58 58 61 63 66 69 68 66 70 73 68 70 76
67 66 67 67 67 67 66 63 61 62 63 63 63 63 61 63 55 51 54 58 57 55 56 59 59 57 57 55 55 55 56 57 58 58 61 64 64 69 72 72 67 65 65
64 65 65 65 65 65 64 62 62 61 61 61 60 59 60 61 51 49 49 57 57 56 56 55 55 58 55 58 56 55 55 54 54 60 59 62 65 69 69 67 67 67 66
62 62 62 62 60 60 59 58 59 60 60 58 58 58 58 55 49 48 48 54 53 56 56 56 53 53 55 54 56 57 59 61 63 63 62 64 66 69 68 68 67 67 68
59 58 58 57 55 54 53 53 58 58 57 57 58 56 55 55 50 46 48 53 54 53 56 56 54 54 50 47 52 51 52 54 58 55 54 52 48 49 56 65 63 63 62
55 54 54 53 51 50 48 51 55 55 56 57 56 55 54 57 50 46 48 55 49 50 50 51 50 51 48 46 51 51 50 56 61 65 65 57 51 58 50 63 63 61 63
51 50 50 50 49 48 48 51 53 54 55 54 53 54 55 55 55 47 44 48 48 46 47 48 54 47 43 41 42 48 52 56 59 59 61 62 62 62 64 66 67 66 64
45 46 47 47 47 48 50 51 52 53 52 52 50 51 55 56 53 50 44 43 45 45 46 50 52 46 42 43 43 44 42 45 52 56 58 57 57 58 62 64 67 68 69
42 44 44 45 47 47 49 50 51 52 49 48 47 49 54 59 60 46 44 43 43 46 50 51 45 42 43 45 44 40 43 54 55 55 55 56 57 58 62 62 64 66 66
40 42 43 43 44 46 49 50 48 47 47 46 46 49 55 58 52 54 53 53 48 46 49 49 47 45 45 46 49 53 55 54 53 53 55 56 58 58 59 61 60 60 59
39 41 42 43 43 44 46 45 45 48 46 45 47 49 53 52 52 46 46 45 44 43 42 52 55 55 56 56 57 59 58 57 55 55 54 56 56 56 57 60 59 60 59
38 40 41 42 43 42 43 44 44 42 42 41 40 44 56 48 44 41 40 39 38 38 50 57 60 64 64 61 62 64 64 62 63 64 62 59 57 59 60 61 62 60 57
39 39 40 40 40 39 40 40 39 45 44 43 43 43 42 41 40 41 40 39 39 40 58 62 64 65 62 70 68 67 67 67 68 67 65 62 62 64 62 62 62 61 58
39 38 38 39 39 38 38 39 40 40 41 49 51 48 46 42 40 40 40 42 60 54 62 62 68 70 70 70 70 70 67 66 67 65 64 63 63 63 62 62 62 61 58
40 37 37 39 38 37 39 39 40 41 43 45 53 52 49 44 43 42 40 57 62 62 61 60 72 73 73 74 73 75 73 66 63 67 65 64 63 64 62 61 61 53 53
42 36 35 38 37 37 38 37 37 39 40 42 45 46 44 47 51 56 61 61 58 65 63 66 75 75 75 77 76 76 76 69 66 68 68 67 65 66 65 64 63 62 60
47 37 36 36 35 36 37 35 37 37 38 41 45 45 37 45 49 55 63 64 59 63 62 65 71 75 78 72 75 78 77 76 75 67 73 68 68 66 69 67 66 64 61
51 45 38 36 33 35 35 35 35 36 38 39 40 42 38 42 45 47 52 58 59 63 63 74 76 76 75 63 74 73 70 67 74 71 70 72 73 70 69 66 62 62 58
51 50 44 39 35 34 35 35 37 35 36 38 38 38 39 38 42 44 46 50 57 62 70 72 70 77 79 78 75 73 68 70 70 70 74 74 72 69 68 66 67 62 60
51 50 47 44 37 35 33 35 36 34 34 34 37 36 36 37 39 40 46 52 56 63 68 71 74 75 75 73 76 75 69 67 75 77 78 76 74 68 68 63 61 62 61
48 47 46 44 41 39 36 34 34 34 35 35 35 35 35 36 38 39 49 51 57 61 61 64 69 70 66 62 65 61 42 37 56 44 77 77 75 70 68 62 58 61 61
46 45 44 42 41 36 38 37 36 33 33 35 35 35 35 35 35 36 41 45 50 55 57 58 62 64 61 59 51 39 36 35 45 37 57 76 75 71 67 60 56 62 59

GFSGL_sfc_temp_114.txt.gz
Temp
73 72 71 71 71 71 69 68 68 68 67 66 66 66 65 65 64 63 63 63 62 61 62 62 61 61 62 62 62 63 62 63 60 64 68 70 67 67 70 71 71 71 72
75 73 72 71 71 69 68 67 67 66 66 66 66 66 66 66 64 63 62 63 61 61 61 61 61 64 59 60 60 58 60 60 59 57 63 65 65 67 68 67 70 76 73
73 73 71 70 68 67 66 66 66 65 65 66 66 65 65 65 64 64 64 64 62 61 60 59 58 58 57 58 59 57 58 59 58 56 57 62 65 68 68 66 67 67 72
70 69 66 66 65 65 66 66 65 66 64 63 63 64 64 65 65 64 63 61 60 60 59 58 57 57 56 56 56 56 57 55 56 56 55 57 61 64 63 62 63 65 64
67 66 65 65 65 65 64 64 64 63 63 62 62 63 64 63 65 61 60 58 57 56 56 57 57 57 58 57 56 55 54 53 54 53 53 53 55 59 62 64 62 64 63
64 64 65 65 65 64 63 63 62 61 61 61 61 61 60 62 55 53 53 55 54 53 52 54 56 56 55 55 55 55 54 51 50 50 51 50 52 55 59 61 61 59 57
63 64 64 63 62 61 61 60 58 57 58 58 58 59 58 58 52 48 50 54 51 52 52 52 53 57 55 55 54 53 53 52 52 53 50 52 53 57 58 59 60 59 59
61 61 61 59 58 57 56 54 54 55 55 56 56 57 56 57 50 48 48 50 52 53 53 53 52 52 53 53 52 51 52 52 53 55 53 53 56 58 60 60 61 60 61
57 55 55 54 53 52 51 50 51 52 53 54 55 55 55 55 49 47 47 53 52 52 54 54 52 51 49 46 50 49 50 50 54 52 50 50 48 49 55 59 58 57 56
51 50 51 51 50 48 49 48 50 50 51 55 54 55 53 53 50 47 48 53 52 51 51 51 49 48 46 44 47 48 46 48 51 52 53 53 50 52 49 57 59 57 57
48 47 46 47 48 48 48 48 48 50 51 51 52 53 53 52 52 48 47 50 49 48 48 48 50 46 44 43 42 47 48 50 49 50 52 54 56 59 59 57 59 59 58
45 44 44 46 46 48 47 47 48 50 50 50 50 50 52 53 52 49 44 43 46 47 48 49 49 45 43 42 42 43 42 43 46 47 50 53 55 57 59 60 61 62 62
41 41 43 45 45 46 45 45 47 49 46 47 47 48 49 54 55 48 45 44 45 48 50 47 43 42 41 43 42 42 42 52 50 48 50 52 55 58 60 60 61 63 63
39 39 41 42 43 44 45 46 45 44 43 45 46 46 49 51 53 54 55 52 49 48 47 47 46 44 44 45 47 52 53 53 52 52 54 55 57 56 58 59 59 60 59
37 38 39 41 42 42 43 43 43 45 44 43 45 46 47 47 51 47 44 48 49 47 42 45 53 55 55 55 55 55 55 54 53 53 53 54 54 54 56 59 59 59 58
36 36 37 39 40 40 40 41 42 41 41 41 40 42 47 45 43 42 42 41 40 39 44 51 53 54 55 56 58 58 57 56 56 54 54 54 53 55 58 59 60 57 54
35 35 37 38 39 37 37 38 37 43 43 43 42 42 41 39 40 41 41 39 38 39 52 55 56 58 60 58 59 58 57 57 60 59 57 55 55 57 57 57 57 56 55
36 36 36 37 38 37 38 38 39 39 40 43 47 43 42 41 40 40 40 42 56 51 56 59 61 64 64 60 57 58 60 59 60 59 60 59 59 59 58 57 57 56 56
37 35 36 37 37 37 37 37 38 38 39 42 47 44 42 40 43 43 42 55 54 57 58 59 64 67 66 66 59 59 59 58 58 61 61 60 60 60 59 59 56 50 52
39 36 37 36 36 36 35 35 35 36 38 40 41 40 39 43 46 47 53 57 58 59 58 59 60 66 66 68 67 61 59 59 59 60 61 61 61 62 60 58 58 57 56
47 39 37 36 35 35 35 35 35 35 35 37 39 39 35 39 42 43 47 52 52 54 56 57 59 60 61 63 63 62 62 62 63 64 64 63 63 62 62 62 61 55 53
50 48 41 36 35 34 35 35 35 34 35 35 36 38 35 38 39 41 44 46 49 51 57 59 59 61 64 63 63 60 62 64 65 66 65 64 64 62 61 60 57 55 53
49 48 46 43 38 34 35 36 35 34 34 35 35 35 35 35 35 37 40 44 45 52 55 58 58 59 63 61 60 56 52 54 60 63 64 65 64 63 62 60 59 56 54
47 46 44 43 39 39 36 34 35 34 35 34 35 34 34 34 34 34 36 41 43 50 52 56 58 56 53 52 51 49 43 40 52 53 62 66 64 62 61 60 61 57 55
45 44 41 40 37 38 37 38 37 35 35 35 35 35 34 34 34 34 35 38 42 46 51 54 55 55 54 50 48 44 38 35 41 37 53 66 65 62 60 56 57 56 55
43 41 40 38 38 36 36 37 38 37 36 35 35 35 35 34 34 35 35 37 41 43 45 49 52 54 51 48 44 38 36 35 38 35 43 67 65 63 59 56 57 57 55

GFSGL_sfc_temp_117.txt.gz
Temp
62 61 61 60 61 60 59 58 58 58 59 60 60 59 59 59 58 57 56 57 57 55 56 56 56 58 55 54 55 55 56 56 52 56 60 62 62 64 67 69 69 67 66
62 61 60 60 59 58 58 58 58 57 57 58 59 59 59 59 58 57 56 58 56 55 56 55 54 59 52 54 54 53 53 54 52 50 55 57 57 61 63 62 67 72 67
61 59 57 57 56 56 56 57 58 57 57 57 57 57 58 58 58 57 57 56 55 54 54 53 53 52 50 52 53 54 55 56 56 55 52 55 56 58 59 62 64 65 68
59 57 56 55 56 56 56 56 57 57 55 55 55 57 58 58 59 58 56 53 53 54 53 52 52 53 53 54 53 53 54 53 54 53 53 52 53 55 55 55 58 59 60
57 55 54 55 55 55 55 55 55 55 55 55 56 56 56 57 61 53 53 51 52 54 53 53 54 56 57 55 53 52 53 52 52 51 50 50 50 49 50 56 56 59 58
55 55 56 55 55 53 52 52 51 50 51 53 54 56 57 59 52 51 51 53 54 51 49 51 52 54 53 53 54 54 53 50 49 49 49 47 47 46 50 51 53 54 55
53 55 55 53 52 51 51 50 48 47 47 48 51 55 55 56 52 49 50 53 50 50 50 51 50 54 54 54 53 53 53 52 52 50 47 48 49 50 49 49 52 53 56
50 50 50 49 49 48 47 45 45 49 51 46 48 52 54 56 50 47 48 50 51 50 49 50 51 52 53 52 52 51 51 51 52 53 51 51 51 53 53 53 55 54 57
46 46 46 46 45 46 47 47 48 48 45 45 49 50 52 54 49 47 47 49 49 49 51 52 53 51 50 46 48 47 47 48 53 51 50 49 47 47 50 53 50 52 51
45 45 46 43 42 45 46 46 48 43 45 49 51 52 52 52 49 46 46 51 50 51 52 51 49 48 46 44 46 46 44 47 49 50 49 48 47 49 49 50 51 48 53
45 44 44 43 45 45 45 46 47 46 47 49 49 51 52 52 50 46 45 49 49 48 48 49 50 47 44 43 43 45 45 48 48 48 49 50 50 51 53 53 53 53 53
42 41 42 42 45 46 44 44 45 45 47 47 47 47 48 48 49 47 45 44 47 46 48 49 49 45 43 43 42 42 41 43 45 45 46 46 48 51 53 55 54 57 59
40 40 40 42 43 44 44 43 43 44 44 43 44 45 46 50 48 47 45 44 45 48 50 48 45 43 42 43 43 41 41 46 48 44 44 46 49 54 56 56 56 57 58
38 38 39 39 40 42 42 42 42 42 42 42 42 43 44 46 48 51 52 51 48 49 49 48 46 44 43 44 44 50 53 53 52 52 51 50 53 53 54 55 56 56 56
36 36 36 37 39 40 41 40 41 42 42 40 41 43 43 43 45 44 43 45 46 46 42 45 49 52 53 55 55 55 54 54 53 52 53 53 54 55 55 58 57 57 56
35 35 35 36 38 38 38 39 41 40 40 40 39 39 44 42 40 40 39 39 39 39 43 47 51 54 53 53 54 54 54 53 53 53 53 52 53 53 52 56 56 56 52
34 34 34 37 37 36 37 37 36 41 42 42 41 41 40 39 39 40 40 39 38 39 47 54 55 56 54 56 56 55 55 55 55 54 53 53 56 56 55 57 55 54 53
36 36 34 36 36 36 36 36 37 36 37 41 43 40 39 38 40 41 42 43 54 51 55 54 55 57 56 55 57 56 57 57 56 55 54 56 58 58 57 56 56 54 55
37 35 35 35 36 36 35 36 36 36 37 38 40 40 39 39 40 43 45 51 51 52 53 55 56 57 57 57 57 58 58 56 56 57 57 57 58 57 57 57 55 50 51
38 37 36 35 36 36 36 35 34 35 35 36 36 36 36 39 39 41 45 46 48 51 54 56 57 57 57 57 56 57 57 58 58 58 58 59 59 58 57 57 56 53 50
39 38 37 36 35 35 35 34 34 34 34 34 35 36 33 36 36 37 40 42 44 49 52 52 51 53 53 52 49 50 51 53 54 58 58 60 59 58 59 56 54 51 50
43 39 38 36 36 35 36 35 34 34 34 34 34 35 34 36 35 36 38 40 42 44 50 53 50 49 48 47 45 44 43 44 47 50 59 59 60 59 58 56 54 52 52
41 39 37 35 35 35 35 36 35 34 34 35 35 34 34 34 34 35 36 38 40 42 44 51 50 47 46 45 44 43 41 40 43 46 54 59 59 58 57 56 55 53 51
39 37 36 34 33 31 32 35 36 35 35 34 35 35 33 33 34 34 35 36 38 40 43 47 48 44 43 42 42 41 39 37 42 42 49 59 57 56 58 57 55 53 50
37 36 35 33 33 33 30 31 31 35 35 35 35 35 34 34 34 34 35 35 36 38 41 44 44 43 42 40 39 38 34 33 37 36 45 56 57 55 57 55 55 53 51
34 33 33 31 32 33 33 31 31 31 32 33 34 34 34 33 34 35 35 35 35 37 40 41 41 43 40 39 37 34 32 33 34 34 41 57 57 54 53 53 51 50 51

GFSGL_sfc_temp_123.txt.gz
Temp
55 54 54 54 55 55 54 54 54 54 55 55 56 55 55 54 54 52 52 52 52 52 52 52 52 52 50 50 49 48 47 47 47 52 53 53 52 54 56 56 57 57 59
54 53 52 52 52 52 52 51 52 52 53 53 54 55 55 55 53 52 52 53 52 51 51 51 51 55 49 49 48 48 50 52 49 47 50 51 50 51 52 51 56 60 57
53 52 50 49 49 48 48 49 50 50 50 51 52 52 53 53 53 52 52 52 51 51 51 50 50 49 48 49 49 49 50 51 49 47 46 50 50 49 51 52 50 52 57
51 49 47 46 46 46 46 47 48 48 47 48 49 50 51 52 53 53 53 51 50 53 52 50 49 48 48 49 49 48 49 48 47 46 46 47 49 49 47 48 48 50 50
49 47 45 46 46 46 46 46 46 46 46 47 48 48 48 50 54 51 51 50 50 51 49 50 51 52 55 54 51 49 48 48 49 48 48 48 48 48 48 51 47 48 49
45 44 45 45 45 44 43 43 43 43 43 44 45 45 45 49 49 49 50 48 52 52 52 52 52 52 50 51 52 52 52 49 48 48 48 47 48 49 50 49 45 43 42
43 45 44 43 43 41 42 42 41 40 40 41 42 43 43 43 46 46 49 50 49 52 52 50 48 51 51 50 51 52 51 51 51 50 47 48 48 51 50 47 46 43 44
41 42 43 42 41 40 39 39 39 39 41 46 41 42 42 45 46 45 47 50 50 49 47 47 46 47 48 49 50 50 51 52 52 52 50 50 51 52 52 51 49 48 44
38 39 40 40 38 38 38 38 39 41 45 46 47 44 44 47 46 45 45 46 45 45 47 48 48 48 48 46 48 48 48 48 51 50 48 47 46 46 49 49 46 45 43
37 38 39 38 37 37 37 39 45 45 45 46 46 48 46 44 45 44 44 44 43 44 46 48 48 48 47 45 46 46 45 47 49 49 49 48 46 47 47 48 49 45 45
40 38 38 38 39 43 43 44 44 44 44 44 45 46 47 47 44 43 43 45 43 45 46 47 50 46 44 43 44 45 45 47 47 47 47 48 48 48 47 47 48 49 46
40 39 36 37 41 42 41 42 43 42 42 43 43 44 47 48 46 45 43 43 45 45 46 47 48 45 44 43 42 43 41 42 44 43 44 45 46 47 48 48 49 50 50
38 38 38 39 40 41 41 40 40 41 41 41 41 41 43 46 46 45 43 42 43 44 47 47 44 43 42 44 44 43 43 47 45 43 43 45 47 49 49 49 50 49 48
36 36 37 37 39 40 41 41 40 40 39 40 40 39 40 41 42 44 43 42 43 45 47 47 45 43 43 45 48 54 56 54 49 47 48 52 50 48 48 49 49 50 48
36 36 36 37 38 38 39 39 39 41 39 39 37 38 36 36 40 39 38 40 43 44 41 46 54 53 52 51 51 52 54 56 53 52 51 50 48 48 49 50 51 52 51
34 35 35 36 37 37 37 37 40 39 39 39 38 37 38 38 39 39 40 40 42 41 49 48 47 47 46 46 46 47 50 52 55 53 52 52 50 50 51 53 54 53 52
34 35 35 36 36 35 35 35 34 38 40 39 38 38 37 37 39 39 40 40 43 45 46 45 44 44 44 44 44 45 46 50 55 55 53 53 53 53 52 53 53 52 50
36 36 35 35 35 35 35 35 35 34 34 36 39 37 37 38 38 39 40 43 45 46 45 43 42 42 42 41 42 43 46 49 54 54 54 54 54 55 54 53 53 51 50
36 35 35 35 35 36 35 35 35 35 34 34 36 36 37 38 38 39 40 41 41 42 43 41 41 41 40 40 40 41 43 45 48 56 55 56 56 55 53 53 51 45 48
34 36 36 35 35 36 35 34 34 34 34 34 33 33 34 36 35 36 38 39 39 41 41 41 40 40 39 39 38 38 39 41 43 47 56 55 54 53 52 50 49 47 45
33 33 34 32 31 34 35 33 34 33 33 33 33 34 32 34 33 34 35 36 36 38 39 39 41 39 38 37 36 36 36 38 39 42 52 55 54 52 52 51 50 48 47
34 32 32 30 30 30 33 34 33 33 33 33 32 33 32 33 32 33 34 34 35 37 39 37 38 38 36 35 34 34 33 34 36 38 44 56 55 54 52 51 50 48 46
33 33 31 30 29 29 28 30 32 32 32 32 32 31 30 31 31 31 32 33 34 35 36 38 35 36 36 35 35 34 32 32 34 38 42 56 55 55 54 52 50 47 45
33 32 30 29 29 27 25 30 29 30 30 30 30 30 29 29 29 30 30 32 33 33 34 36 35 35 34 34 34 34 33 33 36 38 46 54 55 53 53 51 49 47 45
29 29 28 27 27 26 27 30 27 27 28 27 28 29 29 29 28 29 29 30 31 32 32 34 35 35 34 33 32 33 32 32 34 35 44 47 50 53 53 51 49 47 45
29 28 27 26 25 25 25 27 27 25 27 25 25 26 26 27 28 27 27 28 29 30 32 32 34 34 34 33 32 32 32 32 33 35 41 44 44 45 46 48 48 46 45

GFSGL_sfc_temp_129.txt.gz
Temp
62 59 58 57 59 60 60 61 62 63 64 65 65 65 65 65 64 64 64 65 64 64 65 64 64 64 66 67 67 66 64 62 55 59 64 66 64 63 64 65 66 66 67
58 54 54 53 57 57 59 59 60 60 61 62 62 63 63 63 62 62 62 64 63 62 63 63 63 65 62 63 64 61 60 60 57 54 60 62 61 62 62 60 63 66 66
56 56 54 53 55 55 56 56 58 59 59 60 60 60 60 60 60 61 61 61 62 62 62 62 62 62 60 62 61 59 58 58 58 57 57 61 61 62 60 58 59 61 64
55 53 53 53 52 53 55 56 57 57 58 58 58 58 58 58 58 60 60 59 60 61 61 60 61 61 60 60 59 59 58 56 54 52 51 54 56 60 59 55 54 61 63
55 54 51 53 55 55 55 55 55 56 56 57 57 58 57 57 60 56 57 57 58 58 59 60 61 60 58 57 59 59 58 57 58 53 52 53 54 56 57 59 54 55 58
54 53 53 52 52 52 53 53 54 54 54 55 55 56 56 58 48 47 49 56 57 57 57 59 60 58 58 54 54 53 55 55 55 54 53 52 53 56 57 55 50 49 49
52 53 52 52 52 52 52 53 52 52 53 54 55 56 55 56 47 45 47 55 56 57 57 58 59 62 58 60 56 54 53 51 51 54 51 54 53 54 53 49 48 49 50
49 49 50 50 50 51 51 51 51 53 52 53 51 51 53 55 47 45 45 55 57 57 57 57 57 57 58 56 55 55 56 57 58 55 51 51 52 53 52 50 50 50 53
46 46 47 48 48 49 49 50 51 52 51 48 49 50 50 52 47 44 46 52 55 54 57 57 56 55 51 46 47 46 48 49 53 51 49 48 47 46 48 50 47 47 47
45 46 47 47 47 48 49 49 50 49 48 49 50 54 50 52 47 44 45 49 49 51 54 56 51 49 45 43 45 45 44 46 48 49 51 49 47 47 47 48 49 46 46
47 48 48 48 48 49 49 49 49 49 50 50 51 52 50 48 48 42 42 44 45 44 46 49 51 46 43 42 42 44 44 46 46 46 46 47 48 49 49 48 48 49 47
46 47 46 46 48 49 47 47 46 45 44 45 46 48 49 47 45 43 41 40 42 43 46 49 51 44 42 42 44 42 41 44 49 48 45 45 46 47 49 49 48 49 51
46 46 45 47 48 47 45 44 43 42 42 42 42 39 41 46 46 42 41 41 44 48 51 49 44 43 43 45 44 42 44 48 48 48 49 47 48 48 50 49 49 49 50
41 42 46 46 44 45 46 43 41 39 38 37 36 36 38 42 41 42 43 46 49 53 49 51 48 43 43 45 46 46 48 48 54 52 50 50 51 49 49 49 47 48 48
40 39 41 41 44 41 41 40 39 40 38 35 35 36 37 37 38 38 39 46 44 46 46 49 46 42 41 42 42 43 45 46 47 53 53 53 52 50 50 51 50 49 48
40 38 38 39 39 39 38 39 39 39 39 37 37 36 39 38 38 38 38 38 40 40 48 44 40 39 37 37 38 40 43 43 44 49 57 54 55 50 51 51 50 50 54
38 38 37 37 36 37 41 39 35 37 39 38 37 37 37 37 37 37 38 39 39 44 46 41 38 38 36 36 37 37 38 40 45 48 55 55 59 56 50 53 54 53 51
41 39 38 37 37 39 39 39 38 34 32 35 37 36 36 37 37 37 37 39 40 44 45 40 38 37 35 34 35 36 37 40 42 47 53 55 55 54 54 55 54 52 50
43 41 39 37 37 39 39 37 37 34 32 32 35 34 35 36 36 36 37 37 38 38 44 41 40 37 35 33 34 35 36 38 40 44 47 54 54 56 51 51 48 42 45
43 36 38 41 39 37 39 36 36 34 31 31 32 31 32 35 34 32 35 35 36 38 39 44 42 39 36 33 33 34 35 36 38 41 45 52 53 52 49 49 48 46 45
44 42 37 42 41 39 37 36 35 34 34 32 31 33 31 31 32 30 31 33 33 34 38 40 45 42 40 35 33 32 33 35 36 38 42 52 52 50 50 49 48 47 47
43 42 42 40 39 38 39 39 37 34 34 35 37 38 33 38 35 30 30 31 32 33 36 37 43 44 42 40 36 33 31 32 34 36 41 48 53 54 55 54 53 51 50
42 41 41 40 39 36 38 38 37 37 38 36 36 37 36 34 35 34 33 31 31 32 35 35 39 41 42 41 40 38 33 31 33 36 41 46 50 54 57 55 55 52 49
41 40 40 39 37 36 37 37 37 35 37 38 39 39 38 35 33 34 36 36 35 33 33 33 36 35 38 39 40 40 36 34 38 37 44 46 48 49 54 58 59 58 56
41 40 39 38 38 37 36 37 37 37 37 37 37 38 39 39 38 37 37 38 40 38 35 35 35 38 34 33 34 37 33 32 38 35 47 45 46 47 49 52 54 56 57
38 37 37 37 37 37 37 37 36 36 36 37 37 38 38 39 39 39 39 39 39 40 40 40 39 38 37 33 32 31 31 32 35 34 48 47 43 45 45 47 49 53 53

GFSGL_sfc_temp_132.txt.gz
Temp
73 72 71 69 68 67 67 67 67 68 69 70 71 71 71 71 71 69 69 71 71 70 71 70 69 70 71 73 74 73 72 70 63 68 70 69 67 66 70 71 71 70 71
71 69 68 67 66 62 62 63 64 67 68 68 69 69 70 70 70 68 68 69 69 68 69 68 68 71 68 68 67 64 64 66 63 61 65 66 65 67 67 65 68 71 69
69 66 64 62 61 59 59 59 62 64 66 67 68 67 68 68 67 67 67 67 67 67 67 67 67 67 64 64 63 61 64 67 67 63 61 65 65 66 64 65 65 67 69
69 66 63 62 60 60 60 59 61 62 64 65 66 66 67 66 67 67 67 65 65 66 66 66 65 65 64 63 62 62 65 62 61 59 59 59 61 65 63 61 63 67 67
66 64 63 62 63 62 60 61 62 62 64 64 65 65 66 65 67 61 60 61 62 64 65 66 67 65 59 59 62 62 61 61 61 61 60 60 61 62 62 64 62 63 65
61 58 61 62 63 62 62 62 62 62 63 63 64 64 63 66 49 49 51 58 60 62 62 65 66 63 63 56 55 54 56 58 57 59 60 61 62 63 62 62 57 53 49
63 62 62 62 62 61 62 62 60 60 61 61 62 61 58 56 48 46 47 57 59 61 61 62 64 68 62 63 59 55 53 52 52 54 52 53 53 58 56 52 51 49 51
60 59 59 59 58 59 60 59 58 60 59 58 58 59 57 57 48 45 46 57 59 61 61 60 59 61 61 53 52 51 52 52 53 53 51 51 52 53 52 51 51 51 52
57 57 56 58 57 57 56 55 55 56 56 56 58 58 56 55 45 44 46 53 55 56 58 58 56 54 50 45 47 47 48 50 53 50 49 47 46 46 47 49 48 47 46
55 56 57 58 57 55 54 54 53 54 55 54 54 56 52 54 45 43 43 46 46 51 55 57 51 50 44 43 45 46 44 47 49 49 50 49 48 49 47 47 48 47 47
56 57 56 55 56 54 52 53 52 51 50 50 52 55 54 51 49 42 42 42 46 46 52 55 56 44 42 41 41 45 44 43 44 45 47 48 49 49 49 50 48 48 47
55 54 54 54 55 54 51 51 51 48 47 47 48 48 51 52 46 43 41 41 45 53 53 53 53 42 41 41 44 41 41 44 49 50 49 50 48 48 50 51 49 49 51
52 51 52 53 53 52 50 48 47 44 41 41 40 41 46 50 47 43 43 42 45 52 51 49 44 41 41 47 44 42 44 47 47 50 53 52 51 50 50 51 50 50 51
48 49 51 51 51 49 47 45 45 43 41 38 37 38 42 45 43 42 51 48 49 51 51 53 46 42 42 46 50 51 50 46 46 47 54 56 54 52 51 50 48 48 48
45 46 49 47 48 46 45 42 41 40 38 36 36 38 38 38 38 38 41 47 44 48 49 51 45 41 39 44 42 41 43 44 44 47 50 54 52 53 51 51 49 49 50
44 44 45 42 44 50 46 44 38 38 38 37 37 36 39 38 37 37 38 38 39 40 51 49 43 37 36 37 37 38 41 41 42 46 51 55 52 53 50 51 57 55 54
42 42 43 45 47 49 47 43 36 38 39 38 36 36 36 36 36 37 37 37 40 46 50 48 38 36 35 35 35 36 37 39 44 47 50 54 54 53 52 50 52 54 51
46 40 43 42 47 49 46 42 37 34 33 35 37 36 35 37 36 36 38 41 51 50 52 49 40 36 35 34 34 35 37 39 42 44 48 52 53 52 51 52 53 54 55
52 49 44 43 45 46 45 41 38 33 33 32 35 35 35 37 36 36 40 46 48 48 48 51 50 39 35 35 34 34 36 37 38 43 45 51 51 50 48 49 48 42 44
50 39 44 51 50 46 46 42 38 37 34 34 36 33 34 40 35 32 38 42 40 45 46 48 50 49 40 38 36 34 34 35 36 38 41 47 52 51 49 48 47 47 46
53 51 40 51 49 49 48 45 45 44 44 42 44 40 33 43 44 34 33 34 35 38 44 43 49 51 48 46 42 37 33 33 34 37 40 46 51 54 54 51 49 48 48
52 51 51 49 48 46 47 47 47 46 46 45 46 46 35 47 47 45 41 34 33 35 38 38 47 48 47 46 46 44 36 32 33 37 39 46 50 53 59 59 56 53 52
51 51 50 49 47 43 46 46 45 46 47 48 48 48 48 46 45 46 47 48 42 35 37 36 41 44 44 44 45 45 40 34 35 38 40 45 48 50 54 56 58 57 55
51 50 49 48 45 45 45 46 46 41 45 46 47 47 47 48 46 46 48 49 49 47 45 42 39 43 40 40 41 44 41 38 44 42 46 46 47 50 55 54 57 56 57
50 49 48 48 47 46 46 46 46 46 46 46 46 46 47 47 47 46 47 49 49 49 48 49 48 44 43 40 38 39 34 31 39 34 52 51 49 50 51 52 54 55 56
46 46 46 46 45 46 46 46 45 45 44 45 46 46 46 46 47 46 47 47 49 49 49 49 49 48 45 42 38 33 31 31 36 33 50 55 51 51 52 54 51 54 53

GFSGL_sfc_temp_135.txt.gz
Temp
76 76 74 74 74 74 72 72 71 71 72 72 73 73 73 73 73 71 70 71 72 72 72 71 71 72 72 73 74 74 73 72 67 70 73 72 68 67 70 71 72 71 72
75 73 72 71 71 70 68 69 69 69 70 70 71 72 72 73 72 70 69 70 69 68 69 69 69 72 69 69 71 68 69 67 63 60 65 67 65 68 67 65 69 72 72
72 71 68 68 67 66 65 66 67 65 67 67 67 67 68 69 69 69 69 69 68 68 67 67 67 68 67 67 66 62 61 62 64 60 60 67 67 68 65 65 65 67 69
73 70 68 67 67 67 67 67 66 67 65 65 65 67 69 70 69 69 67 64 63 65 65 66 67 66 63 61 61 62 64 64 63 63 63 64 65 65 63 61 62 66 65
71 69 67 68 68 68 67 67 66 67 68 68 68 69 69 68 62 59 60 60 60 61 63 65 66 64 61 61 65 63 60 60 61 60 60 62 63 63 61 62 60 62 62
69 68 68 67 67 63 65 66 66 66 66 66 66 66 64 65 50 49 52 56 58 59 60 63 65 63 63 57 55 54 55 54 53 54 55 53 55 56 58 57 53 52 52
68 68 67 67 66 65 65 65 63 61 61 59 61 63 59 58 47 46 47 55 58 61 61 61 62 65 60 59 54 53 53 52 52 50 48 49 49 52 53 50 50 50 50
65 65 65 65 64 63 62 60 59 59 58 57 58 60 57 54 45 44 45 57 57 58 57 56 56 56 56 49 49 50 51 52 53 53 51 51 51 51 51 50 50 50 52
63 63 64 64 62 61 59 58 58 58 56 54 55 55 54 55 45 44 45 50 50 52 56 59 58 56 44 43 45 46 46 48 52 50 49 47 45 45 46 47 45 45 46
62 61 62 63 61 58 57 56 56 56 56 55 54 55 52 52 44 43 43 49 53 55 57 58 51 45 42 41 42 43 42 45 46 47 49 49 48 49 47 47 46 44 46
62 61 60 60 59 56 55 54 54 52 53 52 52 54 54 50 48 42 42 49 50 51 54 56 55 43 41 40 40 42 44 44 46 49 51 53 54 51 50 51 49 48 46
59 58 57 57 57 55 52 53 52 50 50 49 48 51 54 52 45 43 42 41 45 50 53 54 50 41 40 40 43 40 41 46 50 49 49 54 53 50 50 50 51 50 50
55 54 54 54 53 53 52 50 51 50 47 46 43 45 47 50 48 42 43 43 45 52 54 48 43 41 40 44 42 41 44 46 45 46 48 50 53 54 52 51 50 50 50
50 51 52 52 51 51 51 48 45 43 42 41 39 41 43 46 44 42 52 54 47 55 52 47 43 42 41 43 44 44 44 43 43 46 46 49 54 52 50 49 48 48 48
49 51 50 50 52 49 46 44 43 39 37 36 35 39 38 40 39 38 40 42 45 50 49 50 42 40 39 41 41 41 43 43 43 44 48 52 54 51 55 51 50 53 52
46 47 47 48 53 51 48 44 38 38 38 36 36 36 40 38 37 37 38 38 38 40 54 46 39 38 36 36 37 37 40 40 41 44 48 52 52 52 52 56 54 54 55
45 45 50 51 53 50 47 40 36 39 39 38 36 36 36 36 36 37 38 39 40 47 56 46 39 37 36 36 36 36 36 38 41 43 45 50 50 52 52 52 56 56 52
50 42 48 52 53 52 48 42 38 35 32 37 38 38 37 37 36 37 39 46 53 51 53 53 45 41 39 37 37 36 36 37 38 40 43 47 50 50 49 49 48 48 47
56 55 53 53 52 51 50 43 40 38 35 34 39 40 40 38 37 37 39 47 48 48 45 47 51 47 41 38 37 37 36 35 36 40 41 46 51 50 48 47 47 42 43
54 44 48 56 55 54 52 51 48 46 42 44 43 45 44 44 45 39 38 41 40 46 45 45 47 47 47 42 40 40 37 35 35 39 40 45 49 52 50 49 47 46 45
57 55 43 55 54 54 53 51 49 48 47 47 46 45 35 51 51 51 46 36 35 37 42 43 49 48 47 47 45 44 41 37 36 39 40 45 48 50 54 54 51 49 47
57 56 55 53 52 51 52 52 51 49 49 49 49 48 37 51 51 51 51 51 46 38 40 40 47 49 46 46 46 45 42 39 40 41 40 47 50 50 54 55 56 54 50
56 55 54 53 52 47 52 51 50 49 49 49 51 50 51 50 50 50 51 52 51 51 50 50 48 47 49 45 45 45 42 39 41 45 43 47 49 50 52 52 54 54 53
56 55 54 52 50 50 51 50 50 45 48 49 49 50 50 50 49 49 51 53 53 52 53 52 52 49 47 45 43 43 41 38 42 45 47 52 52 51 54 52 54 55 55
54 53 52 52 51 50 50 50 49 48 48 47 49 49 50 50 50 50 50 52 53 52 52 52 52 50 47 43 41 39 34 32 38 34 47 57 52 52 53 52 52 54 53
50 49 49 49 49 50 49 50 49 49 47 48 48 49 49 49 50 50 50 50 51 52 52 52 51 50 45 42 38 34 32 32 35 33 46 56 53 54 53 51 49 49 49

GFSGL_sfc_temp_138.txt.gz
Temp
69 70 70 70 70 70 69 68 68 68 69 69 69 69 69 69 68 66 66 66 65 63 64 63 63 63 64 65 65 65 64 63 58 61 63 63 62 63 64 64 64 64 65
70 69 68 68 67 66 65 65 66 65 66 66 66 66 67 66 64 64 63 64 63 61 61 61 62 66 61 62 63 60 60 60 57 54 59 60 60 61 62 60 63 67 64
70 68 66 65 64 63 63 64 64 65 65 66 66 65 66 66 65 64 63 61 59 59 59 59 60 60 59 60 59 59 59 60 59 57 56 60 61 62 61 61 60 61 64
69 67 65 64 64 64 65 65 65 66 66 66 66 67 67 62 59 58 57 56 57 58 58 59 59 59 59 58 59 59 59 57 57 56 56 57 59 60 61 59 59 62 61
68 66 64 64 65 65 64 64 65 64 64 65 65 65 62 61 56 53 54 54 53 55 57 59 61 61 61 58 57 55 54 53 53 52 52 54 55 56 55 59 56 56 56
67 66 66 66 65 64 63 63 62 61 60 61 61 61 57 57 47 47 48 50 53 54 56 59 59 60 57 55 52 51 51 49 48 48 48 47 49 51 53 52 50 50 48
66 66 65 64 63 62 61 60 59 57 57 56 56 56 54 51 45 45 46 50 54 55 54 53 54 59 51 48 48 50 51 51 50 47 46 47 48 50 51 48 48 48 48
64 64 64 63 61 61 59 57 56 56 54 54 54 54 54 49 45 44 44 50 51 52 54 55 55 53 46 44 44 46 47 47 47 48 48 48 49 50 49 48 48 48 49
61 61 62 61 58 57 55 54 54 54 53 54 53 53 52 52 44 43 44 48 52 52 55 55 51 47 43 41 41 42 44 46 50 50 48 46 45 44 45 45 44 44 43
59 60 61 59 56 54 53 52 52 53 53 53 53 54 51 50 43 43 43 48 49 49 53 55 50 43 41 40 40 40 40 43 43 45 48 50 50 51 48 48 46 43 44
59 59 57 58 54 54 53 53 52 52 51 49 50 52 52 48 46 42 42 46 47 50 52 51 48 42 40 40 40 41 39 41 42 46 48 50 52 52 52 51 50 47 45
56 55 54 54 54 54 51 51 50 49 48 46 47 49 50 48 43 41 42 43 45 47 49 46 44 40 39 40 41 40 40 43 45 45 46 47 48 51 51 50 50 50 50
53 52 52 53 52 52 48 47 46 46 45 43 43 43 45 48 44 42 44 44 45 49 49 45 42 40 41 43 42 41 43 43 43 43 43 46 50 52 50 49 49 50 50
51 51 52 51 49 49 48 45 41 39 39 39 38 40 42 44 42 41 43 45 45 48 46 46 43 42 42 43 43 43 43 42 41 41 44 49 53 52 48 49 48 48 47
50 50 49 51 48 45 42 41 40 38 36 36 36 38 39 38 38 37 37 41 42 45 42 46 43 41 40 40 41 41 41 41 40 41 45 47 51 51 51 50 50 51 50
48 49 48 50 50 48 43 39 38 38 38 37 37 37 40 38 37 38 39 39 41 43 50 45 42 39 37 37 37 38 39 38 38 41 44 46 49 49 49 50 52 51 50
45 47 50 50 49 46 42 39 37 38 39 39 38 38 37 37 38 39 40 41 41 44 46 46 43 39 38 37 37 38 37 38 39 41 43 45 50 49 48 47 48 48 47
48 44 51 51 51 48 43 40 39 37 35 38 40 39 38 38 38 38 40 44 44 44 42 44 43 41 38 37 38 38 38 38 38 41 42 45 48 50 48 47 46 45 45
54 54 53 52 51 49 46 42 41 39 38 37 43 44 41 39 38 38 40 40 40 40 41 43 45 44 40 39 39 40 39 38 39 41 42 45 48 49 49 48 47 41 41
53 46 49 54 53 52 50 48 47 47 45 44 42 44 45 48 47 45 39 39 37 39 41 43 46 45 43 40 39 39 38 38 38 41 42 45 48 49 49 49 48 44 43
55 54 48 53 52 52 52 50 49 49 48 47 42 44 35 47 48 48 48 46 39 37 39 43 46 46 45 42 41 39 37 36 36 40 42 45 49 48 51 51 49 47 45
55 54 52 51 51 50 50 50 50 49 48 47 47 46 39 47 47 48 48 48 48 44 46 48 45 44 43 41 40 39 36 34 34 38 41 45 50 50 51 51 52 50 48
54 53 52 51 51 47 50 49 49 48 48 47 47 47 47 45 46 46 48 49 48 49 50 49 45 43 42 40 39 39 36 32 33 39 39 45 50 49 50 49 50 50 49
54 53 52 50 49 48 49 48 48 44 47 47 47 46 46 46 44 45 46 48 49 49 49 48 45 42 40 38 37 38 36 33 35 37 39 49 48 50 50 48 48 49 49
52 51 50 50 50 48 48 48 48 47 47 46 46 46 46 46 45 45 46 47 48 48 48 47 46 42 40 37 36 35 33 32 34 34 37 49 48 50 50 48 47 47 46
48 47 47 47 47 48 47 47 46 47 46 45 45 45 45 45 45 44 45 45 46 47 47 46 46 41 38 37 34 33 31 32 33 33 42 47 47 45 49 50 48 47 46

GFSGL_sfc_temp_141.txt.gz
Temp
66 65 65 64 63 61 61 60 59 59 59 59 60 59 59 59 58 57 57 58 56 55 56 56 56 56 56 58 56 55 54 53 52 57 60 61 57 58 61 61 61 60 61
64 64 62 60 60 58 57 57 57 57 57 58 59 59 60 58 55 54 54 54 54 53 54 54 55 59 54 53 52 52 52 52 54 54 57 57 56 58 59 58 61 64 63
63 61 60 57 55 54 55 55 56 56 56 57 58 58 55 54 53 53 52 52 51 52 52 52 52 53 52 52 53 54 55 56 54 52 52 56 58 59 59 60 61 62 61
63 59 56 54 54 55 55 55 56 56 56 57 57 57 53 52 51 51 50 49 49 50 51 52 53 54 54 52 52 50 51 51 52 52 52 52 54 56 57 55 56 60 59
60 57 55 55 55 55 54 55 55 54 55 56 55 54 52 51 49 46 46 45 45 47 50 54 57 56 56 51 49 48 48 48 49 49 48 49 49 50 50 53 51 52 53
57 55 56 56 56 54 53 52 52 51 50 52 52 51 50 51 46 46 47 43 45 52 50 51 53 55 50 49 49 49 49 45 44 44 45 44 46 48 49 49 48 47 46
58 58 57 56 55 53 52 51 48 47 47 51 52 52 48 45 45 44 46 45 45 49 51 52 54 52 47 45 45 45 47 47 48 45 44 44 45 47 48 46 47 47 47
56 56 56 54 52 51 49 47 51 51 49 49 51 51 48 47 44 43 44 44 49 50 51 53 48 45 44 42 42 42 44 45 45 47 47 46 47 48 47 47 46 46 47
54 53 53 52 49 48 47 44 44 48 50 50 51 50 49 47 43 42 42 41 45 45 51 50 47 43 42 41 41 40 41 42 47 47 46 45 44 44 45 45 45 44 43
52 52 51 50 50 51 50 44 48 50 47 45 49 50 47 45 43 42 42 43 42 44 48 47 46 43 41 40 40 40 38 41 41 43 46 48 49 50 49 50 49 45 44
52 51 49 47 50 49 49 45 45 47 43 41 45 48 48 43 42 42 42 44 43 44 47 45 45 42 41 40 41 41 39 41 43 44 45 47 49 50 50 50 49 48 45
51 49 48 46 47 45 41 41 41 41 38 39 39 41 46 45 43 41 40 41 44 45 46 45 44 41 40 41 42 40 40 43 43 43 43 45 47 50 49 49 49 49 50
49 46 45 45 45 43 38 37 36 37 37 38 39 39 39 42 42 41 40 40 43 44 46 45 42 41 41 43 42 42 42 41 41 41 41 45 48 52 50 49 49 50 50
45 47 44 42 39 38 40 36 34 35 36 36 34 33 35 37 37 38 40 41 45 45 44 47 44 42 42 43 43 43 43 41 40 40 42 46 50 50 50 49 48 48 47
42 43 45 40 37 35 37 36 36 36 35 36 35 35 32 32 35 38 39 42 44 43 43 46 42 41 39 39 41 41 42 41 40 40 43 45 49 49 48 49 50 50 47
40 42 42 43 41 41 39 37 39 38 38 38 38 38 40 38 39 40 40 40 40 40 44 41 39 38 36 36 38 39 41 40 39 41 43 44 47 48 47 48 48 48 48
39 44 46 44 42 40 39 37 36 39 40 40 40 39 39 38 40 40 40 40 39 41 42 40 40 37 36 36 37 37 37 39 40 41 42 44 47 49 48 47 46 46 45
42 45 47 45 43 41 40 39 37 36 36 39 41 40 39 39 38 39 39 41 41 41 40 42 41 39 36 35 34 36 36 37 37 40 42 43 47 47 49 46 44 43 44
43 44 41 41 39 38 39 39 39 38 38 38 41 42 39 39 38 39 40 40 39 40 42 41 41 40 36 34 33 34 34 34 35 37 40 41 46 47 48 47 45 40 41
42 43 42 40 39 38 38 37 37 37 38 38 39 39 39 41 40 36 36 39 39 39 41 41 39 38 36 34 33 33 32 32 32 35 38 40 47 48 47 48 47 44 43
41 40 42 40 38 39 38 37 37 36 36 36 36 40 36 43 41 37 36 37 35 40 41 40 39 38 36 34 33 32 31 31 31 33 37 39 46 47 48 48 49 47 44
41 40 40 39 38 38 37 37 37 37 37 36 36 40 37 42 42 41 38 38 37 39 39 39 38 36 35 33 32 31 30 29 30 32 35 38 46 48 48 47 47 48 46
42 41 40 38 38 38 37 36 36 36 36 36 37 38 40 39 39 41 41 41 38 40 39 37 36 34 34 33 33 32 29 28 29 33 32 37 44 45 48 46 46 45 46
41 41 40 38 38 35 36 35 35 37 37 36 37 38 37 39 37 37 41 41 39 38 39 36 34 33 32 31 31 31 31 31 32 33 34 41 43 43 47 47 47 46 45
41 40 39 36 36 34 34 35 35 35 36 36 36 36 36 37 38 38 39 41 41 39 39 36 33 33 32 30 30 30 30 31 31 32 37 41 41 42 44 48 47 46 45
38 37 36 34 34 34 33 33 33 34 34 35 34 34 36 37 37 38 38 39 39 39 39 37 34 32 31 30 30 30 30 30 30 32 38 39 38 40 40 47 47 46 44

GFSGL_sfc_temp_144.txt.gz
Temp
64 63 62 61 60 59 57 57 56 56 56 57 57 57 55 53 53 51 51 52 51 49 50 50 50 51 50 51 52 50 50 50 49 53 55 57 52 53 58 59 60 59 60
61 59 59 60 60 59 56 55 55 54 55 55 55 54 53 52 50 50 50 49 48 47 48 49 50 54 49 49 49 49 49 49 49 49 53 55 55 56 56 55 58 61 60
61 58 58 60 58 56 53 53 54 55 55 55 53 52 51 50 49 48 48 47 47 47 47 47 49 50 52 54 53 52 53 53 52 50 50 54 54 56 55 57 57 58 61
60 58 58 56 54 53 53 52 53 53 52 52 51 51 49 48 48 47 47 44 44 47 48 49 53 53 51 49 49 48 49 47 47 48 49 50 51 52 53 51 51 55 55
59 56 53 53 53 52 51 51 51 51 51 51 50 48 47 47 47 45 44 43 43 45 52 53 55 53 52 50 47 46 45 44 44 45 44 46 47 48 47 50 49 50 51
55 53 54 53 52 50 50 49 48 47 47 48 47 46 43 48 45 46 46 42 44 48 49 50 53 50 47 46 46 46 46 43 42 42 42 42 44 46 47 47 46 45 44
55 54 53 51 50 49 48 47 45 44 44 46 47 47 46 46 44 43 46 43 43 45 46 48 46 46 44 44 44 45 45 46 46 44 42 43 43 45 45 44 45 45 45
52 51 51 50 48 47 46 44 44 44 46 50 47 47 47 46 43 43 44 42 42 43 44 44 44 44 43 42 42 42 43 43 44 45 44 44 44 45 45 45 46 46 46
49 49 49 49 47 46 43 42 43 44 46 49 48 47 45 42 42 42 42 40 41 42 45 45 45 43 42 42 41 40 41 42 47 46 46 45 44 44 45 47 46 45 45
48 48 48 48 47 44 43 46 47 45 39 44 48 47 46 39 42 41 41 42 40 42 44 45 46 43 41 41 40 40 38 40 41 44 45 47 48 49 49 50 48 45 45
48 47 46 44 41 40 38 38 38 37 38 38 42 44 44 44 42 41 40 40 41 41 44 44 45 42 40 40 41 42 39 41 42 43 44 46 49 50 51 49 49 48 46
46 44 42 40 42 39 35 35 35 35 34 35 37 40 42 42 42 41 40 40 42 38 43 45 44 41 40 40 42 40 41 43 43 42 43 44 46 49 50 49 49 49 50
43 41 40 40 39 37 34 32 33 33 34 34 37 37 37 40 40 41 41 41 44 41 46 44 42 41 41 42 42 42 43 43 41 40 41 43 46 49 50 50 50 50 50
41 39 38 35 35 34 35 33 33 33 36 34 31 31 32 36 36 40 43 43 45 46 46 42 43 42 42 42 41 43 43 42 40 40 41 44 47 49 48 48 48 48 48
41 39 36 34 33 32 33 32 32 35 33 36 35 32 32 32 36 39 39 40 40 41 43 41 39 38 37 37 39 40 41 41 39 40 41 43 46 48 48 47 47 48 47
39 37 35 34 35 34 33 35 39 39 39 39 39 38 39 38 39 39 40 39 39 40 43 38 36 35 33 33 33 36 38 38 37 38 40 42 44 47 46 46 46 46 44
37 37 39 41 40 35 37 38 35 40 42 41 40 40 39 38 38 39 39 39 40 41 40 39 36 33 32 32 32 33 33 35 38 38 39 41 43 47 47 45 44 44 44
40 42 37 38 40 40 40 39 38 38 37 40 41 40 40 39 39 38 39 41 41 41 39 37 35 34 32 31 31 31 32 34 35 36 38 40 42 46 47 46 44 43 43
41 38 36 35 34 39 39 39 36 35 32 32 35 38 39 39 38 38 39 40 39 39 39 37 35 34 32 31 30 30 31 31 33 35 38 40 41 46 45 47 46 40 40
40 39 38 35 34 34 34 33 33 33 32 33 35 34 36 38 38 38 39 37 36 38 37 36 34 33 32 30 30 29 29 30 31 33 36 39 42 46 45 45 46 45 43
38 39 39 35 34 34 34 33 33 33 32 32 32 35 34 38 38 38 37 36 33 35 34 34 33 32 31 30 29 29 28 28 29 32 34 37 43 43 46 46 45 46 45
37 36 37 35 35 35 33 33 33 33 33 32 33 37 35 38 38 38 38 37 35 35 34 33 32 31 30 29 28 28 27 27 28 30 32 36 41 42 46 46 45 45 45
38 37 36 35 35 35 34 32 32 32 32 32 33 35 37 36 36 37 38 37 37 35 33 32 31 30 29 29 29 28 27 27 28 30 31 36 40 41 43 46 45 44 44
37 36 35 34 33 31 31 31 31 33 33 32 32 33 33 35 34 36 37 37 36 36 35 32 30 29 28 28 29 29 29 29 30 31 33 36 37 39 42 46 46 45 44
36 35 34 32 32 30 30 31 31 31 33 33 33 31 30 33 34 35 36 36 36 35 36 33 31 29 28 28 28 29 29 30 30 31 33 35 35 37 40 43 45 44 44
34 34 31 31 30 30 30 29 30 31 31 31 30 30 29 29 31 33 34 35 34 34 34 33 33 31 29 29 29 29 29 29 30 31 32 33 33 34 36 38 41 43 43